[[{"header":{"parameterUnit":"m.s-1","parameterCategory":1,"la1":30.6,"la2":28.766,"lo1":-90.7593,"lo2":-88.6598,"dy":0.0162,"dx":0.0183,"nx":116,"ny":114,"refTime":"2024-05-08T00:00:00:Z","depth":0,"parameterNumber":2,"parameterNumberName":"U-component_of_WINDS"},"data":[0.0,0.0,0.0,0.0,0.0,0.0,0.0,0.0,0.0,0.0,0.0,0.0,0.0,0.0,0.0,0.0,0.0,0.0,0.0,0.0,0.0,0.0,0.0,0.0,0.0,0.0,0.0,0.0,0.0,0.0,0.0,0.0,0.0,0.0,0.0,0.0,0.0,0.0,0.0,0.0,0.0,0.0,0.0,0.0,0.0,0.0,0.0,0.0,0.0,0.0,0.0,0.0,0.0,0.0,0.0,0.0,0.0,0.0,0.0,0.0,0.0,0.0,0.0,0.0,0.0,0.0,0.0,0.0,0.0,0.0,0.0,0.0,0.0,0.0,0.0,0.0,0.0,0.0,0.0,0.0,0.0,0.0,0.0,0.0,0.0,0.0,0.0,0.0,0.0,0.0,0.0,0.0,0.0,0.0,0.0,0.0,0.0,0.0,0.0,0.0,0.0,0.0,0.0,0.0,0.0,0.0,0.0,0.0,0.0,0.0,0.0,0.0,0.0,0.0,0.0,0.0,0.0,0.0,0.0,0.0,0.0,0.0,0.0,0.0,0.0,0.0,0.0,0.0,0.0,0.0,0.0,0.0,0.0,0.0,0.0,0.0,0.0,0.0,0.0,0.0,0.0,0.0,0.0,0.0,0.0,0.0,0.0,0.0,0.0,0.0,0.0,0.0,0.0,0.0,0.0,0.0,0.0,0.0,0.0,0.0,0.0,0.0,0.0,0.0,0.0,0.0,0.0,0.0,0.0,0.0,0.0,0.0,0.0,0.0,0.0,0.0,0.0,0.0,0.0,0.0,0.0,0.0,0.0,0.0,0.0,0.0,0.0,0.0,0.0,0.0,0.0,0.0,0.0,0.0,0.0,0.0,0.0,0.0,0.0,0.0,0.0,0.0,0.0,0.0,0.0,0.0,0.0,0.0,0.0,0.0,0.0,0.0,0.0,0.0,0.0,0.0,0.0,0.0,0.0,0.0,0.0,0.0,0.0,0.0,0.0,0.0,0.0,0.0,0.0,0.0,0.0,0.0,0.0,0.0,0.0,0.0,0.0,0.0,0.0,0.0,0.0,0.0,0.0,0.0,0.0,0.0,0.0,0.0,0.0,0.0,0.0,0.0,0.0,0.0,0.0,0.0,0.0,0.0,0.0,0.0,0.0,0.0,0.0,0.0,0.0,0.0,0.0,0.0,0.0,0.0,0.0,0.0,0.0,0.0,0.0,0.0,0.0,0.0,0.0,0.0,0.0,0.0,0.0,0.0,0.0,0.0,0.0,0.0,0.0,0.0,0.0,0.0,0.0,0.0,0.0,0.0,0.0,0.0,0.0,0.0,0.0,0.0,0.0,0.0,0.0,0.0,0.0,0.0,0.0,0.0,0.0,0.0,0.0,0.0,0.0,0.0,0.0,0.0,0.0,0.0,0.0,0.0,0.0,0.0,0.0,0.0,0.0,0.0,0.0,0.0,0.0,0.0,0.0,0.0,0.0,0.0,0.0,0.0,0.0,0.0,0.0,0.0,0.0,0.0,0.0,0.0,0.0,0.0,0.0,0.0,0.0,0.0,0.0,0.0,0.0,0.0,0.0,0.0,0.0,0.0,0.0,0.0,0.0,0.0,0.0,0.0,0.0,0.0,0.0,0.0,0.0,0.0,0.0,0.0,0.0,0.0,0.0,0.0,0.0,0.0,0.0,0.0,0.0,0.0,0.0,0.0,0.0,0.0,0.0,0.0,0.0,0.0,0.0,0.0,0.0,0.0,0.0,0.0,0.0,0.0,0.0,0.0,0.0,0.0,0.0,0.0,0.0,0.0,0.0,0.0,0.0,0.0,0.0,0.0,0.0,0.0,0.0,0.0,0.0,0.0,0.0,0.0,0.0,0.0,0.0,0.0,0.0,0.0,0.0,0.0,0.0,0.0,0.0,0.0,0.0,0.0,0.0,0.0,0.0,0.0,0.0,0.0,0.0,0.0,0.0,0.0,0.0,0.0,0.0,0.0,0.0,0.0,0.0,0.0,0.0,0.0,0.0,0.0,0.0,0.0,0.0,0.0,0.0,0.0,0.0,0.0,0.0,0.0,0.0,0.0,0.0,0.0,0.0,0.0,0.0,0.0,0.0,0.0,0.0,0.0,0.0,0.0,0.0,0.0,0.0,0.0,0.0,0.0,0.0,0.0,0.0,0.0,0.0,0.0,0.0,0.0,0.0,0.0,0.0,0.0,0.0,0.0,0.0,0.0,0.0,0.0,0.0,0.0,0.0,0.0,0.0,0.0,0.0,0.0,0.0,0.0,0.0,0.0,0.0,0.0,0.0,0.0,0.0,0.0,0.0,0.0,0.0,0.0,0.0,0.0,0.0,0.0,0.0,0.0,0.0,0.0,0.0,0.0,0.0,0.0,0.0,0.0,0.0,0.0,0.0,0.0,0.0,0.0,0.0,0.0,0.0,0.0,0.0,0.0,0.0,0.0,0.0,0.0,0.0,0.0,0.0,0.0,0.0,0.0,0.0,0.0,0.0,0.0,0.0,0.0,0.0,0.0,0.0,0.0,0.0,0.0,0.0,0.0,0.0,0.0,0.0,0.0,0.0,0.0,0.0,0.0,0.0,0.0,0.0,0.0,0.0,0.0,0.0,0.0,0.0,0.0,0.0,0.0,0.0,0.0,0.0,0.0,0.0,0.0,0.0,0.0,0.0,0.0,0.0,0.0,0.0,0.0,0.0,0.0,0.0,0.0,0.0,0.0,0.0,0.0,0.0,0.0,0.0,0.0,0.0,0.0,0.0,0.0,0.0,0.0,0.0,0.0,0.0,0.0,0.0,0.0,0.0,0.0,0.0,0.0,0.0,0.0,0.0,0.0,0.0,0.0,0.0,0.0,0.0,0.0,0.0,0.0,0.0,0.0,0.0,0.0,0.0,0.0,0.0,0.0,0.0,0.0,0.0,0.0,0.0,0.0,0.0,0.0,0.0,0.0,0.0,0.0,0.0,0.0,0.0,0.0,0.0,0.0,0.0,0.0,0.0,0.0,0.0,0.0,0.0,0.0,0.0,0.0,0.0,0.0,0.0,0.0,0.0,0.0,0.0,0.0,0.0,0.0,0.0,0.0,0.0,0.0,0.0,0.0,0.0,0.0,0.0,0.0,0.0,0.0,0.0,0.0,0.0,0.0,0.0,0.0,0.0,0.0,0.0,0.0,0.0,0.0,0.0,0.0,0.0,0.0,0.0,0.0,0.0,0.0,0.0,0.0,0.0,0.0,0.0,0.0,0.0,0.0,0.0,0.0,0.0,0.0,0.0,0.0,0.0,0.0,0.0,0.0,0.0,0.0,0.0,0.0,0.0,0.0,0.0,0.0,0.0,0.0,0.0,0.0,0.0,0.0,0.0,0.0,0.0,0.0,0.0,0.0,0.0,0.0,0.0,0.0,0.0,0.0,0.0,0.0,0.0,0.0,0.0,0.0,0.0,0.0,0.0,0.0,0.0,0.0,0.0,0.0,0.0,0.0,0.0,0.0,0.0,0.0,0.0,0.0,0.0,0.0,0.0,0.0,0.0,0.0,0.0,0.0,0.0,0.0,0.0,0.0,0.0,0.0,0.0,0.0,0.0,0.0,0.0,0.0,0.0,0.0,0.0,0.0,0.0,0.0,0.0,0.0,0.0,0.0,0.0,0.0,0.0,0.0,0.0,0.0,0.0,0.0,0.0,0.0,0.0,0.0,0.0,0.0,0.0,0.0,0.0,0.0,0.0,0.0,0.0,0.0,0.0,0.0,0.0,0.0,0.0,0.0,0.0,0.0,0.0,0.0,0.0,0.0,0.0,0.0,0.0,0.0,0.0,0.0,0.0,0.0,0.0,0.0,0.0,0.0,0.0,0.0,0.0,0.0,0.0,0.0,0.0,0.0,0.0,0.0,0.0,0.0,0.0,0.0,0.0,0.0,0.0,0.0,0.0,0.0,0.0,0.0,0.0,0.0,0.0,0.0,0.0,0.0,0.0,0.0,0.0,0.0,0.0,0.0,0.0,0.0,0.0,0.0,0.0,0.0,0.0,0.0,0.0,0.0,0.0,0.0,0.0,0.0,0.0,0.0,0.0,0.0,0.0,0.0,0.0,0.0,0.0,0.0,0.0,0.0,0.0,0.0,0.0,0.0,0.0,0.0,0.0,0.0,0.0,0.0,0.0,0.0,0.0,0.0,0.0,0.0,0.0,0.0,0.0,0.0,0.0,0.0,0.0,0.0,0.0,0.0,0.0,0.0,0.0,0.0,0.0,0.0,0.0,0.0,0.0,0.0,0.0,0.0,0.0,0.0,0.0,0.0,0.0,0.0,0.0,0.0,0.0,0.0,0.0,0.0,0.0,0.0,0.0,0.0,0.0,0.0,0.0,0.0,0.0,0.0,0.0,0.0,0.0,0.0,0.0,0.0,0.0,0.0,0.0,0.0,0.0,0.0,0.0,0.0,0.0,0.0,0.0,0.0,0.0,0.0,0.0,0.0,0.0,0.0,0.0,0.0,0.0,0.0,0.0,0.0,0.0,0.0,0.0,0.0,0.0,0.0,0.0,0.0,0.0,0.0,0.0,0.0,0.0,0.0,0.0,0.0,0.0,0.0,0.0,0.0,0.0,0.0,0.0,0.0,0.0,0.0,0.0,0.0,0.0,0.0,0.0,0.0,0.0,0.0,0.0,0.0,0.0,0.0,0.0,0.0,0.0,0.0,0.0,0.0,0.0,0.0,0.0,0.0,0.0,0.0,0.0,0.0,0.0,0.0,0.0,0.0,0.0,0.0,0.0,0.0,0.0,0.0,0.0,0.0,0.0,0.0,0.0,0.0,0.0,0.0,0.0,0.0,0.0,0.0,0.0,0.0,0.0,0.0,0.0,0.0,0.0,0.0,0.0,0.0,0.0,0.0,0.0,0.0,0.0,0.0,0.0,0.0,0.0,0.0,0.0,0.0,0.0,0.0,0.0,0.0,0.0,0.0,0.0,0.0,0.0,0.0,0.0,0.0,0.0,0.0,0.0,0.0,0.0,0.0,0.0,0.0,0.0,0.0,0.0,0.0,0.0,0.0,0.0,0.0,0.0,0.0,0.0,0.0,0.0,0.0,0.0,0.0,0.0,0.0,0.0,0.0,0.0,0.0,0.0,0.0,0.0,0.0,0.0,0.0,0.0,0.0,0.0,0.0,0.0,0.0,0.0,0.0,0.0,0.0,0.0,0.0,0.0,0.0,0.0,0.0,0.0,0.0,0.0,0.0,0.0,0.0,0.0,0.0,0.0,0.0,0.0,0.0,0.0,0.0,0.0,0.0,0.0,0.0,0.0,0.0,0.0,0.0,0.0,0.0,0.0,0.0,0.0,0.0,0.0,0.0,0.0,0.0,0.0,0.0,0.0,0.0,0.0,0.0,0.0,0.0,0.0,0.0,0.0,0.0,0.0,0.0,0.0,0.0,0.0,0.0,0.0,0.0,0.0,0.0,0.0,0.0,0.0,0.0,0.0,0.0,0.0,0.0,0.0,0.0,0.0,0.0,0.0,0.0,0.0,0.0,0.0,0.0,0.0,0.0,0.0,0.0,0.0,0.0,0.0,0.0,0.0,0.0,0.0,0.0,0.0,0.0,0.0,0.0,0.0,0.0,0.0,0.0,0.0,0.0,0.0,0.0,0.0,0.0,0.0,0.0,0.0,0.0,0.0,0.0,0.0,0.0,0.0,0.0,0.0,0.0,0.0,0.0,0.0,0.0,0.0,0.0,0.0,0.0,0.0,0.0,0.0,0.0,0.0,0.0,0.0,0.0,0.0,0.0,0.0,0.0,0.0,0.0,0.0,0.0,0.0,0.0,0.0,0.0,0.0,0.0,0.0,0.0,0.0,0.0,0.0,0.0,0.0,0.0,0.0,0.0,0.0,0.0,0.0,0.0,0.0,0.0,0.0,0.0,0.0,0.0,0.0,0.0,0.0,0.0,0.0,0.0,0.0,0.0,0.0,0.0,0.0,0.0,0.0,0.0,0.0,0.0,0.0,0.0,0.0,0.0,0.0,0.0,0.0,0.0,0.0,0.0,0.0,0.0,0.0,0.0,0.0,0.0,0.0,0.0,0.0,0.0,0.0,0.0,-6.6445,0.0,0.0,0.0,0.0,0.0,0.0,0.0,0.0,0.0,0.0,0.0,0.0,0.0,0.0,0.0,0.0,0.0,0.0,0.0,0.0,0.0,0.0,0.0,0.0,-6.207,-6.2305,-6.2305,-6.2305,-6.2305,-6.2305,0.0,0.0,0.0,0.0,0.0,-6.1501,-6.2172,-6.2795,-6.3419,-6.4052,-6.4253,-6.404,-6.5401,-6.536,-6.4076,0.0,0.0,0.0,0.0,0.0,0.0,0.0,0.0,0.0,0.0,0.0,0.0,0.0,0.0,0.0,0.0,0.0,0.0,0.0,0.0,0.0,0.0,0.0,0.0,0.0,0.0,0.0,0.0,0.0,0.0,0.0,0.0,0.0,0.0,0.0,0.0,0.0,0.0,0.0,0.0,0.0,0.0,0.0,0.0,0.0,0.0,0.0,0.0,0.0,0.0,0.0,0.0,0.0,0.0,0.0,0.0,0.0,0.0,0.0,0.0,0.0,0.0,0.0,0.0,0.0,0.0,0.0,0.0,0.0,0.0,0.0,-7.0039,0.0,0.0,0.0,0.0,0.0,0.0,0.0,0.0,0.0,0.0,0.0,0.0,0.0,0.0,0.0,0.0,0.0,0.0,0.0,0.0,0.0,-6.1758,-6.1914,-6.2578,-6.3047,-6.3203,-6.3242,-6.3164,-6.3008,-6.2203,-6.166,-6.1504,-6.1504,-6.1582,-6.1738,-6.2547,-6.3379,-6.414,-6.4304,-6.5205,-6.6717,-6.8355,-6.7922,-6.5832,-6.4587,0.0,0.0,0.0,0.0,0.0,0.0,0.0,0.0,0.0,0.0,0.0,0.0,0.0,0.0,0.0,0.0,0.0,0.0,0.0,0.0,0.0,0.0,0.0,0.0,0.0,0.0,0.0,0.0,0.0,0.0,0.0,0.0,0.0,0.0,0.0,0.0,0.0,0.0,0.0,0.0,0.0,0.0,0.0,0.0,0.0,0.0,0.0,0.0,0.0,0.0,0.0,0.0,0.0,0.0,0.0,0.0,0.0,0.0,0.0,0.0,0.0,0.0,0.0,-8.3906,-8.4804,-8.4765,-8.4179,-8.3828,-8.3554,-8.0703,-7.8789,-7.7344,0.0,0.0,0.0,0.0,0.0,0.0,0.0,0.0,0.0,0.0,0.0,0.0,0.0,0.0,0.0,0.0,0.0,0.0,0.0,0.0,-6.1992,-6.2734,-6.293,-6.3281,-6.4062,-6.414,-6.3828,-6.3047,-6.275,-6.2284,-6.1543,-6.1504,-6.1855,-6.2596,-6.4145,-6.4724,-6.4257,-6.6518,-6.9175,-7.2264,-7.25,-7.2723,-7.2725,-6.732,-6.5652,-6.6622,0.0,0.0,0.0,0.0,0.0,0.0,0.0,0.0,0.0,0.0,0.0,0.0,0.0,0.0,0.0,0.0,0.0,0.0,0.0,0.0,0.0,0.0,0.0,0.0,0.0,0.0,0.0,0.0,0.0,0.0,0.0,0.0,0.0,0.0,0.0,0.0,0.0,0.0,0.0,0.0,0.0,-6.2187,-6.5351,0.0,0.0,0.0,0.0,0.0,0.0,0.0,0.0,0.0,0.0,0.0,0.0,0.0,-7.9922,-8.3164,-8.8867,-9.1445,-9.0976,-9.7109,-9.8125,-9.4648,-9.5234,-9.5117,-9.4414,-9.3984,0.0,-7.9258,-7.8008,0.0,0.0,0.0,0.0,0.0,0.0,0.0,0.0,0.0,0.0,0.0,0.0,0.0,0.0,0.0,0.0,0.0,0.0,0.0,0.0,0.0,-6.5469,-6.6562,-6.6484,-6.914,-6.9219,-6.543,-6.648,-6.5956,-6.3104,-6.2945,-6.314,-6.353,-6.4138,-6.5059,-6.6307,-7.0506,-7.2773,-7.332,-7.3789,-7.3844,-7.3336,-7.0628,-6.9148,-6.8486,-6.5572,0.0,0.0,0.0,0.0,0.0,0.0,0.0,0.0,0.0,0.0,0.0,0.0,0.0,0.0,0.0,0.0,0.0,0.0,0.0,0.0,0.0,0.0,0.0,0.0,0.0,0.0,0.0,0.0,0.0,0.0,0.0,0.0,0.0,0.0,0.0,0.0,0.0,0.0,0.0,-6.3203,-6.6601,-6.6211,-6.7969,-6.7695,0.0,0.0,0.0,0.0,0.0,0.0,0.0,0.0,0.0,-8.3515,-8.6289,-8.9336,-9.2773,-9.7851,-10.0195,-9.9883,-10.3906,-10.4297,-10.1601,-10.1914,-10.1601,-10.0781,-10.0781,-9.7461,-9.1601,-8.6367,-8.1406,-7.668,0.0,0.0,0.0,0.0,-7.414,-7.4961,0.0,0.0,0.0,0.0,0.0,0.0,0.0,0.0,0.0,0.0,0.0,0.0,-6.5117,-6.7773,-6.9531,-6.9805,-7.293,-7.3008,-6.8515,-6.875,-6.7648,-6.4478,-6.4007,-6.3971,-6.4357,-6.5147,-6.7208,-7.0592,-7.4371,-7.6015,-7.5625,-7.6208,-7.5999,-7.5065,-7.4779,-7.3461,-7.1208,-6.7473,-6.5166,-6.3935,0.0,0.0,0.0,0.0,0.0,0.0,0.0,0.0,0.0,0.0,0.0,0.0,0.0,0.0,0.0,0.0,0.0,0.0,0.0,0.0,0.0,0.0,0.0,0.0,0.0,0.0,0.0,0.0,0.0,0.0,0.0,0.0,0.0,0.0,0.0,0.0,0.0,-6.8164,-7.0742,-6.8203,-7.2461,-7.3008,0.0,0.0,0.0,0.0,0.0,0.0,-8.1601,-8.3984,-8.7539,-9.25,-9.539,-9.8633,-10.2304,-10.5508,-10.7187,-10.75,-10.8711,-10.8398,-10.6797,-10.6601,-10.5898,-10.4804,-10.4414,-10.3281,-10.1289,-9.3789,-8.789,-8.3242,-7.914,-7.6797,-7.6015,-7.9258,-8.0312,-8.0976,0.0,0.0,0.0,0.0,0.0,0.0,0.0,0.0,0.0,0.0,0.0,-6.3359,-6.7539,-6.8906,-7.0781,-7.3984,-7.3008,-7.207,-7.1758,-6.7265,-6.4747,-6.5033,-6.3759,-6.3687,-6.5028,-6.8525,-7.2851,-7.7968,-7.7422,-7.875,-8.1836,-8.1686,-8.1504,-8.1205,-8.0203,-7.8244,-7.5274,-6.868,-6.7205,-6.8898,-6.4051,0.0,0.0,0.0,0.0,0.0,0.0,0.0,0.0,0.0,0.0,0.0,0.0,0.0,0.0,0.0,0.0,0.0,0.0,0.0,0.0,0.0,0.0,0.0,0.0,0.0,0.0,0.0,0.0,0.0,0.0,0.0,0.0,0.0,0.0,0.0,0.0,0.0,0.0,-7.418,-8.0859,0.0,0.0,0.0,0.0,-7.9062,-8.1601,-8.5351,-9.039,-9.2344,-9.6406,-10.3203,-10.4414,-10.6992,-11.1211,-11.1484,-11.1992,-11.2812,-11.289,-11.1992,-11.0312,-10.9492,-10.8203,-10.6484,-10.4883,-10.3711,-10.25,-9.7969,-9.3984,-9.0429,-8.6953,-8.5547,-8.5508,-8.5742,-8.6797,-8.8164,0.0,0.0,0.0,0.0,0.0,-5.8238,-5.9453,-6.0078,-6.0898,-6.2344,-6.4492,-6.7109,-7.0312,-7.3906,-7.6367,-7.7031,-7.8555,-7.8047,-7.4726,-7.1671,-6.9741,-6.9221,-6.6615,-6.6264,-6.8526,-7.2175,-7.5234,-7.7656,-8.0664,-8.2187,-8.2304,-8.2659,-8.2435,-8.1672,-8.1152,-8.0332,-7.8938,-7.3745,-7.0514,-6.8629,-6.5705,-6.382,0.0,0.0,0.0,0.0,0.0,0.0,0.0,0.0,0.0,0.0,0.0,0.0,0.0,0.0,0.0,0.0,0.0,0.0,0.0,0.0,0.0,0.0,0.0,0.0,0.0,0.0,0.0,0.0,0.0,0.0,0.0,0.0,0.0,0.0,0.0,0.0,0.0,-8.3594,-8.9531,0.0,-8.2383,-8.4219,-8.625,-8.7109,-9.1094,-9.5273,-9.9375,-10.1719,-10.4883,-10.8984,-11.0,-11.1992,-11.5195,-11.5195,-11.5117,-11.4804,-11.4883,-11.3711,-11.1406,-11.0508,-10.9492,-10.8281,-10.6601,-10.5312,-10.4414,-10.2304,-9.8789,-9.4453,-9.2695,-9.0976,-8.9609,-9.0742,-9.1523,-9.2226,0.0,0.0,0.0,-5.6463,-5.7261,-5.8203,-5.9062,-5.9883,-6.0937,-6.2383,-6.5586,-6.8945,-7.2109,-7.6523,-7.9531,-8.0156,-8.0976,-8.0,-7.6562,-7.2726,-7.0495,-7.0307,-6.8666,-6.9077,-7.1809,-7.5661,-7.8359,-7.9805,-8.3203,-8.4453,-8.3633,-8.3713,-8.3357,-8.2669,-8.2368,-8.2187,-8.1841,-7.8921,-7.4938,-7.0321,-6.809,-6.6821,-6.5859,0.0,0.0,0.0,0.0,0.0,0.0,0.0,0.0,0.0,0.0,0.0,0.0,0.0,0.0,0.0,0.0,0.0,0.0,0.0,0.0,0.0,0.0,0.0,0.0,0.0,0.0,0.0,0.0,0.0,0.0,0.0,0.0,0.0,0.0,0.0,-8.9765,-9.0,-9.6367,-9.7929,-9.0781,-9.2929,-9.5273,-9.6406,-9.9648,-10.3203,-10.6992,-10.8593,-11.0586,-11.3515,-11.4218,-11.539,-11.7383,-11.7109,-11.6406,-11.5312,-11.5,-11.3593,-11.1015,-11.0117,-10.9218,-10.8281,-10.6601,-10.5586,-10.5,-10.4101,-10.1601,-9.8164,-9.7578,-9.5937,-9.4023,-9.5195,-9.5429,-9.5312,0.0,-5.5673,-5.6452,-5.6562,-5.7305,-5.8164,-5.9062,-5.9844,-6.0703,-6.1601,-6.4844,-6.8672,-7.293,-7.6523,-8.0,-8.3359,-7.9687,-7.7187,-7.7187,-6.9883,-6.6283,-6.788,-6.9634,-7.1928,-7.4765,-7.8945,-8.2344,-8.4961,-8.5039,-8.5469,-8.6172,-8.5158,-8.465,-8.4564,-8.4126,-8.3921,-8.3897,-8.3693,-8.0292,-7.4735,-7.1297,-6.9873,-6.9527,0.0,0.0,0.0,0.0,0.0,0.0,0.0,0.0,0.0,0.0,0.0,0.0,0.0,0.0,0.0,0.0,0.0,0.0,0.0,0.0,0.0,0.0,0.0,0.0,0.0,0.0,0.0,0.0,0.0,0.0,0.0,0.0,0.0,-7.9687,-8.8203,-9.3906,-9.3242,-10.1289,-10.4609,-9.875,-10.1992,-10.5117,-10.6719,-10.6914,-10.8711,-11.3008,-11.2383,-11.3515,-11.6914,-11.6992,-11.7383,-11.8281,-11.7383,-11.6093,-11.4414,-11.3593,-11.1797,-10.9297,-10.8398,-10.75,-10.6601,-10.4883,-10.4219,-10.4101,-10.3203,-10.2304,-10.1601,-10.1601,-10.0508,-9.8984,-9.8984,-9.8437,-9.7539,-5.394,-5.5335,-5.656,-5.6601,-5.6797,-5.7461,-5.8984,-5.9375,-6.0273,-6.2383,-6.7305,-7.1758,-7.4844,-7.9375,-8.2812,-8.4414,-7.9453,-7.6523,-7.7148,-6.9247,-6.5824,-6.8736,-7.1075,-7.4777,-8.0078,-8.1953,-8.4179,-8.6797,-8.8008,-8.7773,-8.6211,-8.6332,-8.5746,-8.4607,-8.4295,-8.4181,-8.4172,-8.4136,-8.3495,-8.2048,-7.6495,-7.3613,-7.2181,0.0,0.0,0.0,0.0,0.0,0.0,0.0,0.0,0.0,0.0,0.0,0.0,0.0,0.0,0.0,0.0,0.0,0.0,0.0,0.0,0.0,0.0,0.0,0.0,0.0,0.0,0.0,0.0,0.0,0.0,0.0,0.0,-8.5195,-8.7734,-9.4687,-10.1015,-10.5195,-10.9609,-11.1484,-10.9218,-11.0,-11.0703,-11.0508,-11.1093,-11.1914,-11.3086,-11.4101,-11.5117,-11.6093,-11.6718,-11.7109,-11.7383,-11.6484,-11.5312,-11.3593,-11.3281,-11.1797,-10.9297,-10.8398,-10.75,-10.6601,-10.4883,-10.3789,-10.3203,-10.2304,-10.1406,-10.0703,-10.1406,-10.0508,-9.8984,-9.8984,-9.8086,-9.6797,-5.3116,-5.4429,-5.5625,-5.5976,-5.6367,-5.7187,-5.8945,-5.9492,-6.0351,-6.2226,-6.8047,-7.2734,-7.4609,-7.9101,-8.2031,-8.2187,-7.7695,-7.4414,-7.3476,-6.8977,-6.7365,-6.9747,-7.4004,-7.8389,-8.2734,-8.4726,-8.6484,-8.8008,-8.8984,-8.8711,-8.7265,-8.7254,-8.7123,-8.6847,-8.6283,-8.6215,-8.6527,-8.6093,-8.642,-8.6826,-8.1949,-7.9277,-7.7583,-7.1872,-7.0177,-7.0447,-6.7877,-6.8548,-7.0222,-6.7564,0.0,0.0,0.0,0.0,0.0,0.0,0.0,0.0,0.0,0.0,0.0,0.0,0.0,0.0,0.0,0.0,0.0,0.0,0.0,0.0,0.0,0.0,0.0,0.0,-8.6094,-9.2773,-9.7148,-10.1211,-10.5586,-11.0586,-11.3086,-11.4609,-11.4804,-11.4492,-11.4297,-11.4609,-11.4414,-11.4609,-11.5312,-11.5898,-11.6406,-11.6797,-11.6914,-11.6992,-11.6992,-11.5508,-11.3984,-11.2617,-11.1484,-11.0,-10.8203,-10.6992,-10.6093,0.0,-10.4219,-10.3398,-10.2812,-10.1992,-10.1094,0.0,0.0,0.0,0.0,0.0,-9.7344,-9.6406,-5.2442,-5.3389,-5.4375,-5.5156,-5.6015,-5.7187,-5.8945,-5.9805,-6.0625,-6.1562,-6.7539,-7.1992,-7.2656,-7.6562,-7.8906,-7.8398,-7.4882,-7.1405,-6.8359,-6.9023,-7.0195,-7.164,-7.8047,-8.2422,-8.4297,-8.75,-8.914,-8.914,-8.914,-8.9023,-8.8828,-8.8203,-8.8633,-8.9804,-8.8954,-8.8997,-8.9657,-8.8716,-8.8935,-8.9657,-8.6845,-8.5096,-8.3548,-7.7661,-7.6154,-7.6901,-7.4425,-7.3004,-7.1991,-7.0273,0.0,0.0,0.0,0.0,0.0,0.0,0.0,0.0,0.0,0.0,0.0,0.0,0.0,0.0,0.0,0.0,0.0,0.0,0.0,0.0,0.0,0.0,0.0,0.0,-9.2734,-9.9531,-10.6211,-10.7187,-10.8515,-11.1797,-11.3711,-11.539,-11.6914,-11.6406,-11.6601,-11.8008,-11.6797,-11.6484,-11.789,0.0,0.0,0.0,0.0,-11.7109,-11.6914,-11.4492,-11.2812,-11.1718,-10.9218,-10.75,-10.6484,-10.4883,-10.4101,-10.3984,-10.3203,-10.2812,-10.25,-10.1797,-10.0898,-10.0,-10.0,-9.9531,-9.8672,-9.707,-9.6445,-9.6094,-5.2372,-5.3897,-5.5117,-5.5273,-5.6015,-5.7187,-5.8945,-5.9336,-5.9961,-6.1484,-6.6523,-6.9765,-6.9258,-7.3008,-7.6094,-7.7344,-7.2252,-6.8671,-6.8005,-6.9416,-7.2562,-7.7734,-8.2617,-8.6328,-8.8711,-9.0781,-9.1836,-9.1836,-9.1836,-9.1133,-8.9765,-9.0312,-9.0,-8.8984,-8.9452,-8.9762,-8.9918,-8.9717,-9.0148,-9.0778,-8.8155,-8.5668,-8.3089,-7.9523,-7.6749,-7.4607,-7.3229,-7.453,-7.6528,-7.4158,-7.5101,-7.664,-7.3203,-7.039,0.0,0.0,0.0,0.0,0.0,0.0,0.0,0.0,0.0,0.0,0.0,0.0,0.0,0.0,0.0,0.0,0.0,0.0,0.0,-9.0312,-9.7148,-10.3594,-10.9101,-11.0508,-11.1718,-11.3711,-11.5508,-11.6601,-11.6992,-11.75,-11.7617,-11.7304,-11.6992,-11.6601,-11.6211,-11.6718,0.0,-11.7187,-11.7812,-11.7383,-11.6015,-11.4804,-11.3086,-11.0781,0.0,0.0,-10.5703,-10.4687,-10.3789,-10.3086,-10.3008,-10.2109,-10.0781,-10.0586,-9.9609,-9.8203,-9.8203,-9.8086,-9.7812,-9.6875,-9.6054,-9.5195,-5.1864,-5.2693,-5.3633,-5.4492,-5.5,-5.6015,-5.8203,-5.8906,-5.9648,-6.0898,-6.5234,-6.8047,-6.7617,-7.0195,-7.1952,-7.1903,-6.8284,-6.6739,-6.846,-7.1889,-7.6205,-8.1406,-8.6211,-8.9531,-9.125,-9.3008,-9.3242,-9.1953,-9.2383,-9.1914,-9.0664,-9.0664,-9.0664,-9.0664,-9.0664,-9.0898,-9.1289,-9.0859,-9.1133,-9.1758,-8.9609,-8.7419,-8.5134,-8.2674,-8.0487,-7.8631,-7.7976,-7.8209,-7.8491,-7.634,-7.662,-7.7265,-7.4258,-7.2383,-7.0937,0.0,0.0,0.0,0.0,0.0,0.0,0.0,0.0,0.0,0.0,0.0,0.0,0.0,0.0,-7.5547,-7.8555,0.0,-9.0742,-9.6758,-10.25,-10.7304,-11.0781,-11.1992,-11.3008,-11.4297,-11.5586,-11.6601,-11.6992,-11.7812,-11.8086,-11.7695,-11.7695,-11.75,-11.6992,-11.7383,-11.7695,-11.7695,-11.7617,-11.6992,-11.5703,-11.3984,-11.2109,-10.9883,-10.7812,-10.6093,-10.4804,-10.3906,-10.3281,-10.289,-10.2383,-10.1797,-10.0898,-10.0,-9.8867,-9.7656,-9.7265,-9.7109,-9.6992,-9.6172,-9.5039,-9.3711,-5.1406,-5.1523,-5.2148,-5.3711,-5.4141,-5.5078,-5.7539,-5.8633,-5.9492,-6.0273,-6.3906,-6.6289,-6.5937,-6.7382,-6.7681,-6.5917,-6.5184,-6.6326,-6.9923,-7.5023,-7.9999,-8.4648,-8.9648,-9.2578,-9.3086,-9.4648,-9.4336,-9.207,-9.2773,-9.2656,-9.1797,-9.125,-9.1679,-9.2812,-9.2304,-9.2461,-9.3047,-9.2344,-9.2383,-9.2695,-9.0937,-8.9336,-8.7773,-8.5715,-8.4167,-8.3064,-8.2701,-8.1026,-7.8813,-7.7798,-7.6858,-7.5859,-7.4258,-7.3906,-7.3515,-7.0742,-7.0586,0.0,0.0,0.0,0.0,0.0,0.0,0.0,0.0,0.0,-7.2187,-7.668,-7.8828,-8.164,-8.7187,-9.1992,-9.707,-10.289,-10.7109,-11.0195,-11.1914,-11.2617,-11.3281,-11.4101,-11.5,-11.5781,-11.6484,-11.7304,-11.7812,-11.7812,-11.8008,-11.8008,-11.8008,-11.8203,-11.8281,-11.8281,-11.75,-11.6601,-11.5703,-11.3203,-11.1015,-10.9297,-10.6719,-10.5,-10.4219,-10.3086,-10.2617,-10.2617,-10.1484,-10.1094,-10.1015,-9.9414,-9.8242,-9.7383,-9.6758,-9.6289,-9.5898,-9.5195,-9.3945,-9.2422,-5.1406,-5.2031,-5.2851,-5.3828,-5.4648,-5.5781,-5.7617,-5.8633,-5.9492,-6.0273,-6.2851,-6.3984,-6.2461,-6.3733,-6.4181,-6.2889,-6.5537,-6.9067,-7.3286,-7.7852,-8.3068,-8.9023,-9.3554,-9.5586,-9.4922,-9.5859,-9.582,-9.4765,-9.4844,-9.4453,-9.3633,-9.4297,-9.4297,-9.3789,-9.4453,-9.4804,-9.4883,-9.4804,-9.4375,-9.3594,-9.1875,-9.0586,-8.9453,-8.6952,-8.453,-8.2262,-8.1308,-7.9455,-7.7655,-7.8944,-7.8359,-7.7383,-7.9375,-7.8515,-7.668,-7.6328,-7.2617,-6.8633,-6.875,-6.8047,-6.832,-7.2539,-7.1992,-7.3008,0.0,0.0,-8.2148,-8.7226,-8.9062,-9.0898,-9.4648,-9.7656,-10.1289,-10.6601,-10.9101,-11.1093,-11.2812,-11.25,-11.2383,-11.3203,-11.4101,-11.4687,-11.4804,-11.5586,-11.6093,-11.6093,-11.6718,-11.7109,-11.7109,-11.789,-11.8281,-11.8281,-11.75,-11.6601,-11.5781,-11.3203,-11.1015,-10.9297,-10.6719,-10.5,-10.4101,-10.25,-10.1719,-10.1719,-10.0,-9.9297,-9.9219,-9.8242,-9.7383,-9.664,-9.6523,-9.5547,-9.4179,-9.4062,-9.3437,-9.2265,-5.1406,-5.168,-5.2383,-5.375,-5.4726,-5.5703,-5.6953,-5.832,-5.9336,-5.9648,-6.1484,-6.25,-6.1797,-6.2173,-6.2235,-6.1604,-6.4752,-6.8419,-7.2405,-7.8694,-8.4585,-8.9765,-9.4179,-9.6328,-9.5976,-9.6758,-9.6523,-9.5195,-9.5703,-9.5508,-9.4648,-9.5039,-9.5,-9.4687,-9.5039,-9.5195,-9.5195,-9.5195,-9.5,-9.4492,-9.2773,-9.1211,-8.9687,-8.6601,-8.3203,-8.0039,-7.9562,-7.8159,0.0,-7.5508,-7.5742,-7.6719,-7.8281,-7.7695,-7.6445,-7.6445,-7.4297,-7.2109,-7.3008,-7.2305,-7.2148,-7.5312,-7.7539,-8.0312,-8.5547,-8.6367,-8.7344,-9.207,-9.3711,-9.5703,-10.0195,-10.2617,-10.539,0.0,-11.1289,-11.2187,-11.2383,-11.1718,-11.0703,-10.9609,-11.0195,-11.1718,-11.4297,-11.4804,-11.539,-11.6406,-11.6797,-11.7187,-11.7695,-11.8086,-11.8281,-11.8281,-11.75,-11.6601,-11.5781,-11.3203,-11.1015,-10.9297,-10.6719,-10.5,-10.4101,-10.2383,-10.1015,-10.0,-9.9336,-9.8711,-9.8164,-9.7344,-9.6797,-9.6406,-9.539,-9.4531,-9.3828,-9.332,-9.2265,-9.0781,-5.1406,-5.1601,-5.2226,-5.375,-5.4726,-5.5586,-5.6484,-5.8086,-5.9219,-5.9219,-6.0664,-6.1678,-6.1585,-6.1404,-6.12,-6.0963,-6.3689,-6.716,-7.1348,-7.8304,-8.4583,-8.9765,-9.3945,-9.6367,-9.6836,-9.7383,-9.7109,-9.5898,-9.6523,-9.6523,-9.5898,-9.5898,-9.5898,-9.5898,-9.5898,-9.5898,-9.5898,-9.5898,-9.5625,-9.5039,-9.3281,-9.1406,-8.9179,-8.5039,-8.125,-7.8086,-7.7617,-7.5703,-7.3203,-7.1716,-7.2343,-7.4023,-7.5584,-7.5819,-7.5586,-7.582,-7.4922,-7.4062,-7.4961,-7.5234,-7.6015,-7.8945,-8.3008,-8.6797,-8.8633,-9.0156,-9.2265,-9.6172,-9.7461,-9.9258,-10.3711,-10.5703,-10.7812,-11.1015,-11.2304,-11.2617,-11.1992,-11.0703,-10.8984,-10.6601,-10.6093,-10.7304,-11.0898,-11.2383,-11.3711,-11.5117,-11.5898,-11.6718,-11.7617,-11.8008,-11.8203,-11.789,-11.7109,-11.6093,-11.5117,-11.25,-11.0312,-10.8593,-10.6211,-10.4609,-10.3398,-10.1719,-10.0117,-9.8633,-9.8633,-9.8164,-9.7304,-9.6758,-9.6211,-9.5664,-9.4375,-9.375,-9.3398,-9.2304,-9.1094,-8.9726,-5.1406,-5.207,-5.293,-5.3828,-5.4726,-5.5586,-5.6484,-5.8086,-5.9219,-5.9219,-6.0664,-6.1587,-6.1334,-6.1289,-6.1182,-6.0811,-6.2559,-6.5926,-7.1231,-7.663,-8.2712,-8.9687,-9.3359,-9.6015,-9.7617,-9.7695,-9.7695,-9.7617,-9.7656,-9.7656,-9.7617,-9.7617,-9.7617,-9.7617,-9.7617,-9.7617,-9.7617,-9.7617,-9.6679,-9.5039,-9.3281,-9.1054,-8.8086,-8.2148,-7.8789,-7.7031,-7.5312,-7.1484,-6.7382,-6.8798,-6.8891,-6.8984,-7.2197,-7.3892,-7.4805,-7.5664,-7.4101,-7.2265,-7.3125,-7.5195,-7.8555,-8.4453,-8.789,-9.0976,-9.5234,-9.6836,-9.8164,-10.0898,-10.1406,-10.2304,-10.5,-10.6093,-10.7617,-11.0195,-11.1406,-11.1914,-11.1914,-10.9687,-10.7383,-10.5703,-10.2617,-10.1211,0.0,-10.6992,-10.9804,-11.0703,-11.3086,-11.5,-11.5781,-11.7383,-11.789,-11.7109,-11.6211,-11.4883,-11.3281,-11.0703,-10.8515,-10.6797,-10.5117,-10.3281,-10.1601,-9.9883,-9.8594,-9.7734,-9.7734,-9.7265,-9.6523,-9.6523,-9.5508,-9.3984,-9.3906,-9.3398,-9.2422,-9.0703,-9.0039,-8.9648,-5.1406,-5.1641,-5.2109,-5.3008,-5.3867,-5.4726,-5.5586,-5.7695,-5.9219,-5.9219,-6.0577,0.0,0.0,0.0,0.0,0.0,-6.2386,-6.4695,-6.7814,-7.4554,-7.983,-8.2908,-8.9177,-9.289,-9.3437,-9.4609,-9.5469,-9.6054,-9.6601,-9.6914,-9.6914,-9.7461,-9.7695,-9.7695,-9.7695,-9.7695,-9.7656,-9.7148,-9.5898,-9.4062,-9.1172,-8.9179,-8.7304,-8.1797,-7.7535,-7.4197,0.0,-6.8804,-6.5716,-6.4484,-6.4726,-6.5878,-6.8233,-6.9217,-6.9648,-7.0547,-7.1758,-7.3437,-7.6055,-8.0312,-8.5195,-9.0078,-9.3672,-9.664,-9.9297,-10.0508,-10.1211,-10.1484,-10.0195,-9.9453,-10.0898,-10.1406,-10.2812,-10.6601,-10.8906,-11.0195,-11.0195,-10.9883,-10.7617,-10.1914,-10.2187,0.0,0.0,0.0,0.0,-11.0312,-11.1992,-11.3906,-11.6484,-11.7695,-11.789,-11.6992,-11.5586,-11.4101,-11.2383,-10.9687,-10.789,-10.6719,-10.4414,-10.2383,-10.0703,-9.9531,-9.8515,-9.7695,-9.7695,-9.7226,-9.6445,-9.5898,-9.4609,-9.2969,-9.2383,-9.164,-9.0664,-8.8984,-8.8359,-8.8047,0.0,-5.1875,-5.2148,-5.3008,-5.3633,0.0,0.0,0.0,0.0,0.0,0.0,0.0,0.0,0.0,0.0,0.0,0.0,-6.3329,-6.5592,-7.1055,-7.5234,-7.7567,-8.3111,-8.6482,-8.7148,-8.8242,-8.9414,-9.0586,-9.1445,-9.2383,-9.3281,-9.4101,-9.4648,-9.4961,-9.4961,-9.4961,-9.4922,-9.4414,-9.2812,-9.0429,-8.7578,-8.5155,-8.2689,-7.7455,-7.3486,0.0,-6.736,-6.5231,-6.359,-6.1989,-6.2418,-6.3896,-6.5415,-6.656,-6.7656,-6.914,-7.1992,-7.5703,-8.0429,-8.5429,-9.0508,-9.5429,-9.8554,-10.0703,-10.1797,-10.25,-10.2187,-9.9804,-9.7461,-9.5664,-9.5,-9.4375,-9.5586,-10.0508,-10.3008,-10.5195,-10.8008,-10.7812,-10.5586,-10.1015,-10.1015,-10.0312,0.0,0.0,0.0,-10.8281,-11.0703,-11.3086,-11.6015,-11.7187,-11.7383,-11.6601,-11.4883,-11.3008,-11.1015,-10.8711,-10.6601,-10.4883,-10.289,-10.1211,-9.9804,-9.8945,-9.8242,-9.7695,-9.7383,-9.6797,-9.5976,-9.5078,-9.3711,-9.207,-9.1523,-9.0586,-8.9375,-8.8008,-8.7109,-8.6367,0.0,0.0,-5.2969,0.0,0.0,0.0,0.0,0.0,0.0,0.0,0.0,0.0,0.0,0.0,0.0,0.0,0.0,0.0,-6.451,-6.6424,-6.9388,-7.3729,-7.5693,-7.7556,-7.9336,-7.9453,-8.0351,-8.2031,-8.289,-8.4609,-8.707,-8.7851,-8.8672,-8.9453,-8.9453,-8.9453,-8.9453,-8.9414,-8.7461,-8.4297,-8.2539,-7.9251,-7.4879,-6.9871,-6.7313,-6.5932,-6.2455,-6.1113,-6.1023,-6.1227,-6.205,-6.3152,-6.4049,-6.6197,-6.8906,-7.1562,-7.4844,-7.914,-8.5976,-9.039,-9.4453,-10.0312,-10.2304,-10.289,-10.2812,-10.2695,-10.1094,-9.5937,-9.3359,-9.0976,0.0,0.0,-8.6719,-9.2734,-9.4765,-9.8203,-10.5703,-10.4101,-10.2304,0.0,0.0,0.0,0.0,0.0,0.0,-10.5195,0.0,-11.25,-11.4492,-11.6093,-11.6601,-11.5781,-11.3984,-11.1914,-10.9218,-10.7383,-10.4883,-10.1719,-10.0703,-9.9883,-9.9023,-9.8125,-9.7695,-9.7617,-9.6836,-9.5976,-9.5078,-9.4179,-9.2812,-9.1211,-9.1172,-9.0117,-8.8476,-8.7656,-8.6289,-8.4726,0.0,0.0,0.0,0.0,0.0,0.0,0.0,0.0,0.0,0.0,0.0,0.0,0.0,0.0,0.0,0.0,0.0,0.0,-6.1803,-6.4803,-6.6819,-6.7447,-7.1714,-7.4351,-7.4922,-7.6211,-7.7383,-7.8515,-7.9375,-8.0156,-8.082,-8.1601,-8.2109,-8.2344,-8.2344,-8.2344,-8.2265,-8.164,-8.0117,-7.8047,-7.6289,-7.4531,-7.2612,-6.9887,-6.782,-6.6166,-6.4504,-6.2578,-6.0902,-6.1186,-6.3311,-6.6012,-6.6872,-6.8944,-7.1797,-7.5703,-8.0195,-8.5117,-9.0742,-9.5703,-10.0,-10.2812,-10.3203,-10.2617,-10.1289,-9.9492,-9.664,-9.1445,-8.6953,-8.289,0.0,0.0,0.0,-9.0117,-9.6601,0.0,-10.6992,-10.8593,0.0,-10.4297,0.0,-10.4101,-10.1797,-10.2617,0.0,0.0,-10.7812,-11.0195,-11.5117,-11.5781,-11.5703,-11.4883,-11.3086,-11.0703,-10.7383,-10.5,-10.3398,-10.2617,-10.1015,-10.0195,-9.9922,-9.8398,-9.7383,-9.6797,-9.6601,-9.5625,-9.414,-9.3281,-9.1914,-9.0273,-8.9609,-8.832,-8.6719,-8.5898,-8.4883,-8.3828,0.0,0.0,0.0,0.0,0.0,0.0,0.0,0.0,0.0,0.0,0.0,0.0,0.0,0.0,0.0,0.0,0.0,0.0,0.0,-6.2688,-6.3669,-6.333,-6.6268,-6.7979,-6.8114,-6.9139,-7.0469,-7.2109,-7.2617,-7.3594,-7.5078,-7.5547,-7.5937,-7.6328,-7.6328,-7.6328,-7.6328,-7.6211,-7.4765,0.0,0.0,-7.0037,-6.8384,-6.6833,-6.5818,-6.5102,-6.4445,-6.3545,-6.3008,-6.5183,-6.7342,-6.9492,-7.1523,-7.414,-7.7461,-8.2148,-8.6679,-9.1172,-9.5976,-10.0508,-10.4101,-10.5117,-10.4414,-10.25,-9.8906,-9.6054,-9.2109,-8.4609,-7.9883,-7.6015,-7.2578,-7.4219,0.0,0.0,0.0,0.0,-10.5898,-10.8203,-10.8398,0.0,-10.6992,0.0,-10.4804,-10.5781,-10.7304,0.0,-10.8711,-11.0195,-11.4414,-11.5,-11.4804,-11.3984,-11.1914,-10.9101,-10.5586,-10.3789,-10.25,-10.1719,-10.0781,-9.9883,-9.914,-9.8164,-9.7265,-9.6484,0.0,-9.5156,-9.3789,-9.2539,-9.1211,-8.9883,-8.8633,-8.7148,-8.5508,-8.4648,-8.3789,-8.2969,0.0,0.0,0.0,0.0,0.0,0.0,0.0,0.0,0.0,0.0,-6.0199,-6.0363,0.0,0.0,0.0,0.0,0.0,0.0,0.0,0.0,-6.0839,-6.0988,-6.1172,-6.1339,-6.1501,-6.1591,-6.2773,-6.5078,-6.5078,-6.6601,-6.9492,-6.9609,-7.0039,-7.0625,-7.0859,-7.0898,-7.0859,-7.1758,-7.039,-6.7695,-6.7695,-6.6243,-6.401,0.0,-6.3058,-6.358,-6.3301,-6.3922,-6.5684,-7.0504,-7.2445,-7.3515,-7.7226,-8.082,-8.4648,-8.9726,-9.3594,-9.7148,-10.1289,-10.4687,-10.6992,-10.6914,-10.5312,-10.2109,-9.6054,-9.2226,-8.7109,-7.7109,-7.2969,-7.0156,-6.6836,-6.7305,-7.1055,-7.9765,0.0,-9.2851,-10.4219,-10.5703,-10.6719,-10.9492,-10.8281,-10.7383,-10.7695,-10.8281,-10.9414,-11.1015,-11.1015,-11.1718,-11.3281,-11.3906,-11.3593,-11.25,-11.0117,-10.7304,-10.4219,-10.3281,-10.2109,-10.0508,-10.039,-9.9453,-9.7851,-9.7656,-9.7109,-9.6289,0.0,0.0,-9.3594,-9.1836,-9.0625,-8.9648,-8.7969,-8.625,-8.4648,-8.3867,-8.3047,-8.2304,0.0,0.0,0.0,0.0,0.0,0.0,0.0,0.0,0.0,0.0,-6.0832,-6.0816,0.0,0.0,0.0,0.0,0.0,0.0,0.0,0.0,0.0,-6.0988,-6.104,-6.1188,-6.1501,-6.1515,-6.1818,-6.2383,-6.2383,-6.2695,-6.3281,-6.3984,-6.4023,-6.3555,-6.5,-6.5234,-6.4609,-6.5508,-6.5508,-6.4961,-6.4961,-6.4687,-6.4213,-6.376,0.0,0.0,-6.2796,-6.3161,-6.5055,-7.1718,-7.5454,-7.8203,-8.3086,-8.7461,-9.1679,-9.6133,-9.9414,-10.2304,-10.5898,-10.7812,-10.8711,-10.8008,-10.4297,-9.9414,-9.3359,-8.7226,0.0,-7.2305,-6.8515,-6.5859,-6.3125,-6.5664,-7.125,-8.0547,-8.6406,-9.3945,-10.5898,-10.6914,-10.8008,0.0,-11.1015,-11.0781,-11.289,-11.2617,0.0,0.0,0.0,0.0,-11.4218,-11.3086,-11.1289,-10.8984,-10.7109,-10.5508,-10.4219,-10.3281,-10.2383,-10.1406,-10.0586,-9.9765,-9.8711,-9.7344,-9.625,-9.539,0.0,0.0,-9.2695,-9.0937,-8.9726,-8.875,-8.707,-8.5351,-8.3828,-8.3672,-8.3047,-8.2304,0.0,0.0,0.0,0.0,0.0,0.0,0.0,-5.9207,-6.0409,-6.3264,-6.4335,-6.4127,-6.2293,-6.132,-6.0781,0.0,0.0,0.0,0.0,0.0,0.0,-6.0874,-6.0973,-6.1058,-6.1238,-6.1417,-6.1988,-6.2954,0.0,-6.2148,-6.3047,-6.3008,-6.2773,-6.2422,-6.3711,-6.4062,-6.3711,-6.4609,-6.4726,-6.4336,-6.4805,-6.4961,-6.492,0.0,0.0,0.0,-6.4023,-6.4369,-6.604,-7.1878,-7.6207,-8.0351,-8.7344,-9.2148,-9.6094,-10.039,-10.3203,-10.5586,-10.9101,-11.1015,-11.1601,-10.9804,-10.5117,-9.8828,-9.0547,0.0,0.0,-6.7812,-6.4765,-6.3203,-6.1914,-6.4883,0.0,-7.6523,-8.1211,-8.8242,-10.0312,-10.2383,-10.5,-11.1093,-11.2304,-11.289,0.0,0.0,0.0,0.0,0.0,0.0,-11.3203,-11.1484,-10.9609,-10.7383,-10.6093,-10.4883,-10.3515,-10.2695,-10.1797,-10.0898,-10.0,-9.9179,-9.8281,-9.707,-9.6015,-9.5156,-9.4297,0.0,-9.1836,-9.0547,-8.9492,-8.8476,-8.6367,-8.5,-8.4179,-8.3242,-8.2656,-8.2304,0.0,0.0,0.0,0.0,0.0,0.0,-6.0811,-6.1493,-6.2924,-6.6636,-6.8178,-6.7782,-6.4731,-6.2897,-6.1589,0.0,0.0,0.0,0.0,0.0,0.0,0.0,0.0,0.0,0.0,0.0,0.0,0.0,-6.2767,0.0,0.0,0.0,0.0,0.0,0.0,-6.4765,-6.4648,-6.5508,-6.5469,0.0,0.0,-6.5898,0.0,0.0,0.0,0.0,0.0,-6.5461,-6.679,-7.1045,-7.4961,-7.9414,-8.7148,-9.332,-9.8398,-10.1992,-10.5117,-10.8008,-11.1289,-11.3398,-11.4101,-11.1289,-10.5586,-9.8125,-8.7969,-8.0,-7.25,-6.4375,-6.2187,-6.1719,-6.1719,-6.3945,-6.7383,0.0,-7.5469,-8.1719,-9.4179,-9.7539,-10.1719,0.0,-11.2617,0.0,0.0,0.0,0.0,0.0,0.0,0.0,-11.1406,-10.9883,-10.8086,-10.6211,-10.5586,-10.4414,-10.2617,-10.1914,-10.1094,-10.0,-9.9336,-9.8554,-9.7656,-9.6679,-9.5859,-9.5156,-9.4062,0.0,0.0,-9.0429,-8.9492,-8.8437,-8.5898,-8.4804,-8.4414,-8.2851,-8.2304,-8.2304,0.0,0.0,0.0,0.0,0.0,0.0,-6.0711,-6.2555,-6.5192,-6.9849,-7.0566,-6.9975,-6.8129,-6.6436,-6.4166,0.0,0.0,0.0,0.0,0.0,0.0,0.0,0.0,0.0,0.0,0.0,0.0,0.0,0.0,0.0,0.0,0.0,0.0,0.0,0.0,0.0,0.0,-6.6406,0.0,0.0,0.0,0.0,0.0,0.0,0.0,0.0,0.0,-6.4726,-6.5836,-6.8785,-7.1055,-7.3555,-7.8281,-8.8047,-9.7929,-9.914,0.0,0.0,-11.2304,-11.4297,-11.4804,-11.1406,-10.4297,-9.5547,-8.6015,0.0,-6.9414,-6.3125,-6.1758,-6.1719,-6.1719,-6.1953,-6.4375,-7.1055,-7.3047,-7.8555,-9.2226,-9.625,-10.1015,-10.9609,0.0,0.0,0.0,0.0,0.0,0.0,0.0,0.0,0.0,-10.8593,-10.6992,-10.4492,-10.4414,-10.3515,-10.1719,-10.1601,-10.0781,-9.9101,-9.9023,-9.8554,-9.7656,-9.6054,-9.5273,-9.5117,0.0,0.0,0.0,-9.0703,-8.9492,-8.8437,-8.5898,-8.4414,-8.3594,-8.2656,-8.2304,-8.2304,0.0,0.0,0.0,0.0,0.0,0.0,-6.1197,-6.1947,-6.4138,-7.0117,-7.1822,-7.2014,-7.0821,-6.9629,-6.6705,-6.1281,-6.0781,0.0,0.0,0.0,0.0,0.0,0.0,0.0,0.0,0.0,-6.2736,-6.3409,-6.3932,0.0,0.0,0.0,0.0,0.0,0.0,0.0,0.0,-6.6758,0.0,0.0,0.0,0.0,0.0,0.0,0.0,0.0,0.0,0.0,-6.4752,-6.5934,-6.75,-6.914,-7.0351,-7.7109,-8.5976,-9.3086,-9.9297,-10.5117,-11.0898,-11.4804,-11.6289,-11.2383,-10.4883,-9.5859,-8.5859,-7.6914,-6.8984,-6.293,-6.1719,-6.1719,-6.1719,-6.1719,-6.2773,-6.6055,-6.5976,-6.9258,-8.0,-8.3281,-8.9101,-10.1406,0.0,0.0,0.0,0.0,0.0,0.0,0.0,0.0,0.0,-10.7695,-10.6289,-10.4297,-10.4219,-10.3398,-10.1601,-10.1094,-10.0195,-9.8984,-9.8476,-9.8047,-9.7656,-9.5976,-9.5195,-9.5117,0.0,0.0,0.0,-9.0508,-8.9219,-8.7773,-8.5703,-8.4375,-8.3476,-8.2617,-8.2304,-8.2304,0.0,0.0,0.0,0.0,0.0,-5.6503,-6.1214,-6.1754,-6.3646,-6.9411,-7.1668,-7.2514,-7.186,-7.036,-6.7513,-6.2704,-6.1358,0.0,0.0,0.0,0.0,0.0,0.0,0.0,0.0,0.0,-6.3053,-6.3798,-6.4501,-6.5245,0.0,0.0,0.0,0.0,0.0,0.0,0.0,0.0,0.0,0.0,0.0,0.0,0.0,0.0,0.0,0.0,0.0,0.0,0.0,0.0,0.0,-6.5191,-6.4648,-6.7929,-7.4215,-8.5507,-9.3554,-10.0312,-10.7304,-11.2617,-11.5117,-11.1289,-10.3711,-9.4609,-8.5,-7.6172,-6.8398,-6.2851,-6.1719,-6.1719,-6.1719,-6.1719,-6.1914,-6.2539,-6.2031,-6.4297,-7.2187,-7.5469,-8.1523,0.0,0.0,0.0,0.0,0.0,0.0,0.0,0.0,0.0,0.0,-10.6914,-10.5703,-10.4219,-10.3906,-10.3008,-10.1211,-10.0586,-9.9726,-9.8594,-9.8008,-9.7695,-9.7656,-9.5976,-9.5195,-9.5117,0.0,0.0,0.0,-9.0469,-8.914,-8.7656,-8.5664,-8.4375,-8.3476,-8.2617,-8.2304,-8.2304,0.0,0.0,0.0,0.0,0.0,-5.703,-6.0497,-6.2423,-6.4655,-6.8001,-6.9898,-7.0937,-7.0898,-6.7936,-6.5897,-6.5859,-6.2743,0.0,0.0,0.0,0.0,0.0,0.0,0.0,-6.2062,-6.308,-6.3681,-6.3798,-6.5675,-6.6692,-6.6914,-6.7773,-6.7695,-6.6914,0.0,0.0,0.0,0.0,-6.6914,0.0,0.0,0.0,0.0,0.0,0.0,0.0,0.0,0.0,0.0,0.0,0.0,0.0,0.0,-6.2293,-6.5153,-7.6522,-8.7148,-9.6406,-10.1601,-10.6797,-11.0,-10.7383,-9.9648,-9.0625,-8.2812,-7.4375,-6.6992,-6.2617,-6.1719,-6.1719,-6.1719,-6.1719,-6.1719,-6.1719,-6.3164,-6.6367,-7.2461,-7.6953,0.0,0.0,0.0,0.0,0.0,0.0,0.0,0.0,0.0,0.0,0.0,-10.6406,-10.5117,-10.4219,-10.3398,-10.2109,-10.0312,-10.0312,-9.9414,-9.7695,-9.7695,-9.7695,-9.7656,-9.5976,-9.5195,0.0,0.0,0.0,0.0,-9.0703,-8.9492,-8.8437,-8.5898,-8.4375,-8.3476,-8.2617,-8.2304,-8.2304,0.0,0.0,0.0,0.0,0.0,0.0,-5.7909,-5.8718,-6.0459,-6.4397,-6.5897,-6.7475,-6.9821,-6.759,-6.5897,-6.5897,-6.2781,0.0,0.0,0.0,0.0,0.0,0.0,-6.2397,-6.2101,-6.3542,-6.4406,-6.4699,-6.6485,-6.7777,-6.8594,-6.832,-6.8047,-6.7773,-6.7461,-6.7148,0.0,-6.6914,-6.6831,0.0,0.0,0.0,0.0,0.0,0.0,0.0,0.0,0.0,0.0,0.0,0.0,0.0,0.0,0.0,0.0,-6.8476,-7.7383,-8.6367,-9.039,-9.5703,-9.9023,-9.4687,-8.9531,-8.3672,-7.6484,-7.0937,-6.625,-6.2461,-6.1719,-6.1719,-6.1719,-6.1719,-6.2461,-6.4883,-6.5234,-6.6484,0.0,0.0,0.0,0.0,0.0,0.0,0.0,0.0,0.0,0.0,0.0,0.0,0.0,-10.5312,-10.3906,-10.4219,-10.2812,-10.1484,-10.0312,-9.9726,-9.8828,-9.7695,-9.7148,-9.6875,-9.6836,-9.5117,0.0,0.0,0.0,0.0,0.0,-8.9258,-8.7773,-8.6797,-8.4804,-8.3476,-8.2695,-8.2383,-8.2304,-8.2304,0.0,0.0,0.0,0.0,0.0,0.0,-5.6291,-5.6791,-5.7945,-6.0589,-6.1935,-6.3974,-6.7398,-6.5513,-6.4512,-6.5782,-6.3051,0.0,0.0,0.0,0.0,0.0,-6.3462,-6.3205,-6.3051,-6.4051,-6.5192,-6.6407,-6.7837,-6.9301,-7.0767,-7.0572,-6.9839,-6.8633,-6.8437,-6.7812,0.0,-6.7265,-6.7053,-6.6521,0.0,0.0,-6.6477,0.0,0.0,0.0,0.0,0.0,0.0,0.0,0.0,0.0,0.0,0.0,0.0,0.0,-6.9375,-7.6289,-8.1406,-8.6484,-8.957,-8.6328,-8.2422,-7.8008,-7.2695,-6.8594,-6.5117,-6.2265,-6.1719,-6.1719,-6.1719,-6.1719,-6.2422,-6.4609,-6.4492,0.0,0.0,0.0,0.0,0.0,0.0,0.0,0.0,0.0,0.0,0.0,0.0,0.0,0.0,0.0,-10.3515,-10.3711,-10.2304,-10.1015,-9.9804,-9.9258,-9.8554,-9.7695,-9.6875,-9.6484,-9.6445,-9.4687,0.0,0.0,0.0,0.0,0.0,-8.8437,-8.6992,-8.6015,-8.4297,-8.3086,-8.2304,-8.2304,-8.2304,-8.2304,0.0,0.0,0.0,0.0,0.0,0.0,0.0,-5.6406,-5.6945,-5.7099,-5.8434,-6.0666,-6.3974,-6.2204,-6.2089,-6.5243,-6.3435,0.0,0.0,0.0,0.0,-6.4666,-6.3935,-6.382,-6.4589,-6.4666,-6.5978,-6.8607,-6.9536,-7.1093,-7.3181,-7.4012,-7.2656,-6.9609,-7.0351,-6.9297,-6.6914,-6.7733,-6.7412,-6.6368,-6.6381,-6.6381,0.0,0.0,0.0,0.0,0.0,0.0,0.0,0.0,0.0,0.0,0.0,0.0,0.0,0.0,0.0,0.0,0.0,-7.8594,-8.1172,-8.0976,-7.7383,-7.3203,-7.0625,-6.7031,0.0,-6.2031,-6.1719,-6.1719,-6.1797,-6.1758,-6.1797,-6.2109,-6.2109,0.0,0.0,0.0,0.0,0.0,0.0,0.0,0.0,0.0,0.0,0.0,0.0,0.0,0.0,0.0,-10.3594,-10.2812,-10.1914,-10.0586,-9.9023,-9.8945,-9.8515,-9.7695,-9.6836,-9.6406,-9.6367,-9.4531,0.0,0.0,0.0,0.0,0.0,-8.8008,-8.6797,-8.5859,-8.414,-8.3008,-8.2304,-8.2304,-8.2304,-8.2304,0.0,0.0,0.0,0.0,0.0,0.0,0.0,0.0,0.0,0.0,-5.8357,-5.9396,-6.1473,-6.1166,-6.1127,0.0,0.0,0.0,0.0,0.0,0.0,-6.5551,-6.5397,-6.5051,-6.4628,-6.5243,-6.6607,-6.8675,-7.0176,-7.2219,-7.4756,-7.5143,-7.3832,-7.1162,-7.0854,-6.9214,-6.6678,-6.6767,-6.6581,-6.6153,-6.6161,-6.6161,0.0,0.0,0.0,0.0,-6.4715,-6.3866,0.0,0.0,0.0,0.0,0.0,0.0,0.0,0.0,-6.2148,-6.3008,-6.4844,0.0,-7.0039,-6.8047,-6.7109,-6.6211,0.0,-6.3555,-6.3008,-6.1914,-6.1719,-6.1914,-6.2578,-6.2148,-6.2773,-6.6133,0.0,0.0,0.0,0.0,0.0,0.0,0.0,0.0,0.0,0.0,0.0,0.0,0.0,0.0,0.0,0.0,-10.2109,-10.1914,-10.039,-9.9414,-9.8984,-9.8359,-9.789,-9.7695,-9.6211,-9.5508,-9.5429,-9.3008,0.0,0.0,0.0,0.0,-8.7969,-8.6211,-8.5,-8.4101,-8.3047,-8.2461,-8.2304,-8.2304,-8.2304,-8.2304,0.0,0.0,0.0,0.0,0.0,0.0,0.0,0.0,0.0,0.0,-5.7819,-5.8665,-5.955,-6.0319,-6.0781,0.0,0.0,0.0,0.0,0.0,0.0,-6.5282,-6.5705,-6.5667,-6.5205,-6.5667,-6.7345,-7.029,-7.1216,-7.3527,-7.7034,-7.6699,-7.5033,-7.2232,-6.9826,-6.7868,-6.6406,-6.6828,-6.6617,-6.6014,-6.607,0.0,0.0,0.0,0.0,0.0,-6.3882,-6.3081,0.0,-6.3867,-6.3398,-6.2461,0.0,0.0,0.0,0.0,-6.1719,-6.1719,-6.1719,-6.3359,-6.4765,-6.3359,-6.3359,-6.3476,-6.25,-6.2344,-6.2265,-6.1797,-6.1719,-6.1836,-6.2305,-6.2031,-6.2734,0.0,-6.6367,0.0,0.0,0.0,0.0,0.0,0.0,0.0,0.0,0.0,0.0,0.0,0.0,0.0,0.0,0.0,-10.0781,-10.039,-9.9492,-9.8828,-9.8398,-9.7578,-9.7148,-9.7109,-9.5,-9.4023,-9.3906,-9.1289,0.0,0.0,0.0,0.0,-8.6211,-8.5273,-8.4375,-8.3515,-8.2656,-8.2304,-8.2304,-8.2304,-8.2304,-8.2304,0.0,0.0,0.0,0.0,0.0,0.0,0.0,0.0,0.0,0.0,0.0,0.0,0.0,0.0,0.0,0.0,0.0,0.0,0.0,0.0,-6.4282,-6.4397,-6.5359,-6.5974,-6.609,-6.609,-6.8013,-7.2014,-7.2514,-7.4922,-7.9014,-7.8551,-7.6549,-7.3041,-6.8805,-6.6602,-6.6157,-6.7068,-6.6835,-6.5897,-6.6059,0.0,0.0,0.0,0.0,0.0,0.0,0.0,0.0,-6.3555,-6.3515,-6.2969,-6.3828,0.0,0.0,0.0,0.0,0.0,-6.2187,-6.3047,-6.3633,-6.2969,-6.289,-6.2969,-6.2812,-6.2226,-6.1719,-6.1719,-6.1719,-6.1758,-6.1875,-6.2226,0.0,0.0,0.0,0.0,0.0,0.0,0.0,0.0,0.0,0.0,0.0,0.0,0.0,0.0,0.0,0.0,0.0,0.0,0.0,-9.9023,-9.8867,-9.8398,-9.7539,-9.6836,-9.6484,-9.6484,-9.3867,-9.2617,-9.25,-8.9765,-8.8125,0.0,0.0,0.0,-8.4687,-8.4687,-8.4179,-8.332,-8.2578,-8.2304,-8.2304,-8.2304,-8.2304,-8.2304,0.0,0.0,0.0,0.0,0.0,0.0,0.0,0.0,0.0,0.0,0.0,0.0,0.0,0.0,0.0,0.0,0.0,0.0,0.0,-6.1935,-6.2781,-6.3474,-6.5051,-6.6205,-6.6898,-6.6898,-6.8282,-7.1091,-7.4014,-7.651,-7.8626,-8.0833,-7.8971,-7.3737,-7.0723,-6.8142,-6.61,-6.6146,-6.6073,-6.5897,-6.6049,0.0,0.0,0.0,0.0,0.0,0.0,0.0,0.0,-6.2851,-6.2617,-6.2031,-6.293,0.0,0.0,0.0,0.0,0.0,-6.4414,-6.6172,-6.6523,-6.2812,-6.2461,-6.2812,-6.207,-6.1797,-6.1719,-6.1719,-6.1719,-6.1914,-6.2656,-6.4609,-6.6445,0.0,0.0,0.0,0.0,0.0,0.0,0.0,0.0,0.0,0.0,0.0,0.0,0.0,0.0,0.0,0.0,0.0,0.0,-9.8984,-9.8281,-9.75,-9.6679,-9.6562,-9.6484,-9.6484,-9.3867,-9.2617,-9.25,-8.9179,-8.7617,0.0,0.0,-8.4726,-8.3789,-8.3789,-8.3281,-8.25,-8.2344,-8.2304,-8.2304,-8.2304,-8.2304,-8.2304,0.0,0.0,0.0,0.0,0.0,0.0,0.0,0.0,0.0,0.0,0.0,0.0,0.0,0.0,0.0,0.0,0.0,0.0,0.0,-6.1639,-6.287,-6.4628,-6.5474,-6.6282,-6.709,-6.8013,-6.9975,-7.2937,-7.6399,-7.9196,-8.1374,-7.9876,-7.6992,-7.2893,-6.9308,-6.7078,-6.5997,-6.5921,-6.5897,-6.5897,0.0,0.0,0.0,0.0,0.0,0.0,0.0,0.0,0.0,0.0,-6.2734,-6.2461,-6.2851,0.0,0.0,0.0,0.0,0.0,-6.3164,-6.4414,-6.5039,-6.3476,-6.4453,-6.5195,-6.293,-6.2031,-6.1836,-6.2305,-6.2383,-6.2812,-6.414,0.0,-6.9765,-7.4375,0.0,0.0,0.0,0.0,0.0,0.0,0.0,0.0,0.0,0.0,0.0,0.0,0.0,0.0,0.0,0.0,0.0,0.0,-9.7265,-9.6406,-9.5117,-9.4648,-9.4375,-9.4375,-9.2226,-9.0703,-8.9765,-8.7226,-8.5859,-8.5351,0.0,-8.3711,-8.2929,-8.3398,-8.3086,-8.2304,-8.2304,-8.2304,-8.2304,-8.2304,-8.2304,-8.2304,0.0,0.0,0.0,0.0,0.0,0.0,0.0,0.0,0.0,0.0,0.0,0.0,0.0,0.0,0.0,0.0,0.0,0.0,0.0,-6.1396,-6.282,-6.5205,-6.5667,-6.6744,-6.8552,-6.9898,-7.2245,-7.5592,-7.9208,-8.2284,-8.4597,-7.948,-7.5568,-7.2591,-6.859,-6.6474,-6.5897,-6.5897,-6.5909,-6.5967,0.0,0.0,0.0,0.0,0.0,0.0,0.0,0.0,0.0,0.0,0.0,0.0,0.0,0.0,0.0,-6.1914,-6.1719,-6.1836,-6.2461,-6.3242,-6.4023,-6.4492,-6.5781,-6.6601,-6.5156,-6.3984,-6.3633,-6.5117,-6.539,-6.5703,0.0,-6.9531,0.0,0.0,0.0,0.0,0.0,0.0,0.0,0.0,0.0,0.0,0.0,0.0,0.0,0.0,0.0,0.0,0.0,0.0,0.0,0.0,-9.6015,-9.5156,-9.3594,-9.2539,-9.1992,-9.1953,-9.0234,-8.8633,-8.7148,-8.539,-8.4219,-8.3594,-8.3398,-8.2929,-8.2344,-8.3008,-8.289,-8.2304,-8.2304,-8.2304,-8.2304,-8.2304,-8.2304,-8.2304,0.0,0.0,0.0,0.0,0.0,0.0,0.0,0.0,0.0,0.0,0.0,0.0,0.0,0.0,0.0,0.0,0.0,0.0,-6.0781,-6.0858,-6.1666,-6.3397,-6.5051,-6.8129,-7.2937,-7.3168,-7.4861,-7.8207,-8.2477,-8.5417,-8.7028,-8.1947,-7.7737,-7.4361,-7.0937,-6.8129,-6.5897,-6.5897,-6.5951,-6.61,-6.629,0.0,0.0,0.0,0.0,0.0,0.0,0.0,0.0,0.0,0.0,0.0,0.0,0.0,-6.1797,-6.1719,-6.1719,-6.2226,-6.4648,-6.5976,-6.6445,-6.5703,-6.4414,-6.457,-6.9101,-6.8906,-6.8633,-7.1875,-7.2578,-7.2109,-7.0625,-7.5078,0.0,0.0,0.0,0.0,0.0,0.0,0.0,0.0,0.0,0.0,0.0,0.0,0.0,0.0,0.0,0.0,0.0,0.0,0.0,0.0,0.0,-9.3633,-9.2695,-9.1015,-9.0195,-9.0156,-8.8476,-8.7187,-8.6211,-8.4492,-8.3672,-8.3554,-8.2734,-8.2344,-8.2304,-8.2383,-8.2344,-8.2304,-8.2304,-8.2304,-8.2304,-8.2304,-8.2304,-8.2304,0.0,0.0,0.0,0.0,0.0,0.0,0.0,0.0,0.0,0.0,0.0,0.0,0.0,0.0,0.0,0.0,0.0,0.0,-6.0781,-6.0781,-6.1781,-6.4012,-6.4743,-6.7205,-7.1783,-7.5515,-7.9092,-8.2477,-8.567,-8.7017,-8.6478,-8.0323,-7.5899,-7.2976,-6.9052,-6.7458,-6.7564,-6.6381,-6.6664,-6.7743,-6.6795,-6.6118,0.0,0.0,0.0,0.0,0.0,0.0,0.0,0.0,-6.1579,-6.1579,-6.1579,-6.1579,-6.1584,-6.1679,-6.1719,-6.1914,-6.289,-6.4609,-6.6015,-6.5664,-6.5937,-6.6875,-6.9336,-7.0234,-7.1562,-7.5,-7.6562,-7.7226,-7.7148,0.0,0.0,0.0,0.0,0.0,0.0,0.0,0.0,0.0,0.0,0.0,0.0,0.0,0.0,0.0,0.0,0.0,0.0,0.0,0.0,0.0,0.0,-9.1367,-8.9453,-8.8242,-8.7109,-8.6015,-8.6484,-8.5937,-8.457,-8.3906,-8.3281,-8.2773,-8.2422,-8.2304,-8.2304,-8.2304,-8.2304,-8.2304,-8.2304,-8.2304,-8.2304,-8.2304,-8.2304,-8.2304,0.0,0.0,0.0,0.0,0.0,0.0,0.0,0.0,0.0,0.0,0.0,0.0,0.0,0.0,0.0,0.0,0.0,0.0,-6.0781,-6.0781,-6.1704,-6.3705,-6.432,-6.6474,-7.0437,-7.6361,-8.0823,-8.3708,-8.7055,-8.7517,-8.5209,-8.0015,-7.6245,-7.363,-6.9937,-6.9061,-7.0157,-6.805,-6.7861,-6.885,-6.7164,-6.6112,0.0,0.0,0.0,0.0,0.0,0.0,0.0,0.0,-6.1517,-6.1571,-6.1509,-6.152,-6.158,-6.1679,-6.1523,-6.1289,-6.1289,-6.2617,-6.4101,-6.4648,-6.6484,-6.8984,-7.1953,-7.3555,-7.5664,-7.9961,-8.0898,-8.1211,-8.207,-8.3906,0.0,0.0,0.0,0.0,0.0,0.0,0.0,0.0,0.0,0.0,0.0,0.0,0.0,0.0,0.0,0.0,0.0,0.0,0.0,0.0,0.0,-8.914,-8.7109,-8.5937,-8.4765,-8.3594,-8.4531,-8.4336,-8.3203,-8.3203,-8.2851,-8.2304,-8.2304,-8.2304,-8.2304,-8.2304,-8.2304,-8.2304,-8.2304,-8.2304,-8.2304,-8.2304,-8.2304,-8.2304,0.0,0.0,0.0,0.0,0.0,0.0,0.0,0.0,-5.6983,-5.6983,-5.8434,0.0,0.0,0.0,0.0,0.0,-6.0781,-6.0781,-6.0781,-6.0781,-6.1166,-6.2062,-6.3705,-6.6167,-6.9552,-7.5399,-7.9285,-8.1131,-8.617,-8.6901,-8.3478,-8.1823,-7.9669,-7.713,-7.463,-7.3601,-7.3594,-7.0968,-6.9616,-6.9039,-6.7319,-6.6574,-6.6372,0.0,0.0,0.0,0.0,0.0,0.0,0.0,-6.1582,-6.1679,-6.1525,-6.1584,-6.1719,-6.1719,-6.1094,-6.043,-6.039,-6.043,-6.0859,-6.2617,-6.5664,-7.0273,-7.7969,-7.9726,-8.1445,-8.7539,-8.6054,-8.3945,-8.4804,-8.5664,0.0,0.0,0.0,0.0,0.0,0.0,0.0,0.0,0.0,0.0,0.0,0.0,0.0,0.0,0.0,0.0,0.0,0.0,0.0,0.0,0.0,0.0,-8.6172,-8.4453,-8.3594,-8.3594,-8.2695,-8.2304,-8.2304,-8.2304,-8.2304,-8.2304,-8.2304,-8.2304,-8.2304,-8.2304,-8.2304,-8.2304,-8.2304,-8.2304,-8.2304,-8.2304,-8.2304,-8.2304,0.0,0.0,0.0,0.0,0.0,0.0,0.0,0.0,-5.6088,-5.6088,-5.7049,0.0,0.0,0.0,0.0,0.0,0.0,-6.0781,-6.0781,-6.0781,-6.0935,-6.1166,-6.2255,-6.332,-6.432,-6.8975,-7.5476,-8.3785,-8.467,-8.3054,-7.9131,-7.74,-7.5553,-7.3707,-7.3553,-7.2945,-7.1851,-6.9726,-6.8888,-6.8878,-6.7656,-6.6081,-6.4503,0.0,0.0,0.0,0.0,0.0,0.0,0.0,0.0,0.0,-6.1491,-6.1949,-6.2361,-6.1834,-6.1953,-6.2109,-6.1484,-6.2226,-6.3711,-6.6055,-6.9687,-7.4414,-8.0937,-8.2929,-8.5234,-9.1914,-9.1015,-8.8906,-8.8554,-8.9219,0.0,0.0,0.0,0.0,0.0,0.0,0.0,0.0,0.0,0.0,0.0,0.0,0.0,0.0,0.0,0.0,0.0,0.0,0.0,0.0,0.0,0.0,-8.4375,-8.3242,-8.2695,-8.2695,-8.2422,-8.2304,-8.2304,-8.2304,-8.2304,-8.2304,-8.2304,-8.2304,-8.2304,-8.2304,-8.2304,-8.2304,-8.2304,-8.2304,-8.2304,-8.2304,-8.2304,-8.2304,0.0,0.0,0.0,0.0,0.0,0.0,0.0,0.0,-5.5703,-5.5703,-5.6483,-5.7319,0.0,0.0,0.0,0.0,-6.0781,-6.0781,-6.0781,-6.0781,-6.0781,-6.0781,-6.1281,-6.2216,-6.3601,-6.7744,-7.2668,-7.8361,-7.9515,-7.8246,-7.4784,-7.6476,-7.6515,-7.5322,-7.79,-7.7445,-7.4619,-7.28,-7.1221,-6.985,-6.8901,-6.7346,-6.5615,0.0,0.0,0.0,0.0,0.0,0.0,0.0,0.0,0.0,-6.14,-6.1852,-6.2285,-6.1785,-6.1326,-6.1015,-6.1133,-6.2187,-6.414,-6.7773,-7.2422,-7.8008,-8.5039,-8.7851,-9.0351,-9.5195,-9.3867,-9.1758,-9.1562,-9.1133,0.0,0.0,0.0,0.0,0.0,0.0,0.0,0.0,0.0,0.0,0.0,0.0,0.0,0.0,0.0,0.0,0.0,0.0,0.0,0.0,0.0,0.0,-8.3086,-8.2578,-8.2304,-8.2304,-8.1953,-8.1797,-8.1797,-8.2148,-8.2304,-8.2304,-8.2304,-8.2304,-8.2304,-8.2304,-8.2304,-8.2304,-8.2304,-8.2304,-8.2304,-8.2304,-8.2304,-8.2304,0.0,0.0,-5.4511,-5.4587,0.0,0.0,0.0,0.0,-5.5703,-5.5703,-5.6406,-5.7203,0.0,0.0,0.0,0.0,0.0,0.0,-6.0781,-6.0781,-6.0781,-6.0781,-6.0935,-6.2589,-6.5936,-6.9552,-7.0244,-6.7923,-7.2168,-7.3053,-7.0937,-7.7553,-8.0323,-8.0015,-8.4709,-8.4126,-7.9489,-7.7597,-7.4508,-7.0813,-7.0246,-6.927,-6.8073,-6.7484,0.0,0.0,0.0,0.0,0.0,0.0,0.0,0.0,-6.1359,-6.1546,-6.1796,-6.1571,-5.9947,-5.8594,-6.0312,-6.1328,-6.3242,-6.875,-7.4922,-8.1758,-8.9726,-9.3437,-9.5664,-9.7265,0.0,-9.3242,-9.3906,0.0,0.0,0.0,0.0,0.0,0.0,0.0,0.0,0.0,0.0,0.0,0.0,0.0,0.0,0.0,0.0,0.0,0.0,0.0,0.0,0.0,0.0,0.0,-8.2304,-8.2226,-8.2187,0.0,-8.1289,-8.0898,-8.0898,-8.1719,-8.207,-8.207,-8.207,-8.2109,-8.2187,-8.2187,-8.2226,-8.2304,-8.2304,-8.2304,-8.2304,-8.2304,-8.2304,-8.2304,0.0,0.0,-5.4703,-5.5318,0.0,0.0,0.0,0.0,0.0,-5.5703,-5.5857,0.0,0.0,0.0,0.0,0.0,0.0,0.0,-6.0781,-6.0781,-6.0781,-6.0781,-6.205,-6.4051,-6.6782,-6.5782,-6.4936,-6.4397,-6.8667,-7.0475,-7.0052,-7.4861,-7.8054,-7.99,-8.167,-7.9984,-7.5666,-7.2661,-6.9321,-6.6229,-6.8069,-6.7058,-6.4556,-6.5894,-6.4357,0.0,0.0,0.0,0.0,0.0,0.0,0.0,-6.1571,-6.2106,-6.2578,-6.1873,-6.1288,-6.125,-6.3008,-6.3594,-6.5625,-7.3555,-8.2109,-8.9375,-9.2617,-9.4297,-9.5508,-9.6523,-9.6679,-9.625,0.0,0.0,0.0,0.0,0.0,0.0,0.0,0.0,0.0,0.0,0.0,0.0,0.0,0.0,0.0,0.0,0.0,0.0,0.0,0.0,0.0,0.0,0.0,-8.25,-8.2304,-8.1601,-8.1289,0.0,-8.039,-7.9961,-8.0,-8.0156,-8.0273,-8.0273,-8.0273,-8.0664,-8.1289,-8.1289,-8.1679,-8.2304,-8.2304,-8.2304,-8.2304,-8.2304,-8.2304,-8.2304,0.0,0.0,0.0,0.0,0.0,0.0,0.0,0.0,0.0,0.0,0.0,0.0,0.0,0.0,0.0,0.0,0.0,0.0,-6.0781,-6.0781,-6.0973,-6.1408,-6.2627,-6.3743,-6.4679,-6.3782,-6.2897,-6.2089,-6.4359,-6.6705,-6.9167,-7.3822,-7.7784,-8.1054,-8.2324,-8.0092,-7.513,-7.2168,-6.8936,-6.5936,-6.7705,-6.709,-6.5217,-6.6233,-6.4475,-6.1494,-6.1164,0.0,0.0,0.0,0.0,0.0,0.0,0.0,-6.2169,-6.1674,-6.104,-6.0898,-6.2578,-6.457,-6.8633,-7.8945,-8.6445,-9.1758,-9.3515,-9.457,-9.5195,-9.5234,-9.5937,0.0,0.0,0.0,0.0,0.0,0.0,0.0,0.0,0.0,0.0,0.0,0.0,0.0,0.0,0.0,0.0,0.0,0.0,0.0,0.0,0.0,0.0,0.0,-8.1875,-8.1914,-8.1054,-8.1015,-8.0781,-8.0351,-7.9531,-7.8906,-7.8515,-7.9336,-7.9687,-7.9687,-7.9687,-7.9961,-8.039,-8.039,-8.0664,-8.1054,-8.1054,-8.1054,-8.1054,-8.1054,-8.1328,-8.1679,0.0,0.0,0.0,0.0,0.0,0.0,0.0,0.0,0.0,0.0,0.0,0.0,0.0,0.0,0.0,0.0,0.0,0.0,-6.0512,-6.0704,-6.132,-6.2486,-6.3012,-6.3205,-6.2986,-6.3166,-6.2627,-6.1243,-6.1089,-6.3935,-6.9577,-7.3822,-7.8284,-8.2785,-8.3478,-8.0823,-7.5553,-7.2437,-6.9244,-6.632,-6.7359,-6.7128,-6.6244,-6.6397,-6.4551,-6.1793,-6.105,-6.0781,-6.0827,-6.0954,0.0,0.0,0.0,0.0,-6.1428,-6.1193,-6.0168,-5.9569,-6.1406,-6.5742,-7.2265,-8.2695,-8.8086,0.0,-9.2656,-9.3672,-9.4062,-9.3164,0.0,0.0,0.0,0.0,0.0,0.0,0.0,0.0,0.0,0.0,0.0,0.0,0.0,0.0,0.0,0.0,0.0,0.0,0.0,0.0,0.0,0.0,-8.1172,-7.9765,-8.1094,-8.1172,-7.9726,-8.0117,-7.9961,-7.9258,-7.8437,-7.7578,-7.6797,-7.8515,-7.9258,-7.9258,-7.9258,-7.9336,-7.9492,-7.9492,-7.957,-7.9687,-7.9687,-7.9687,-7.9687,-7.9687,-8.0156,-8.0781,0.0,0.0,0.0,0.0,0.0,0.0,0.0,0.0,0.0,0.0,-5.5703,-5.5742,0.0,0.0,-5.7099,-5.733,-5.8011,-5.8819,-5.9627,0.0,0.0,-6.4166,-6.3666,-6.4282,-6.6397,-6.4359,-6.3192,-6.2974,-6.2281,-6.6013,-7.386,-7.4553,-7.8361,-8.4401,-8.09,-7.7707,-7.4514,-6.9052,-6.5205,-6.2909,-6.4474,-6.4166,-6.2832,-6.3551,-6.2627,-6.0973,-6.0819,-6.0781,-6.0827,-6.0954,-6.0997,0.0,0.0,0.0,-6.1183,-6.0527,-5.9664,-5.9497,-6.2108,-6.9258,-7.6914,-8.0742,-8.539,-8.9101,0.0,0.0,-9.0469,0.0,0.0,0.0,0.0,0.0,0.0,0.0,0.0,0.0,0.0,0.0,0.0,0.0,0.0,0.0,0.0,0.0,0.0,0.0,0.0,0.0,0.0,-7.9922,-7.9922,-7.9726,-7.9922,-7.9922,-7.9687,-7.8359,-7.7656,-7.7539,-7.664,-7.5781,-7.5,-7.6758,-7.7539,-7.7539,-7.7539,-7.7969,-7.8672,-7.8672,-7.9062,-7.9687,-7.9687,-7.9687,-7.9687,-7.9687,-7.9765,-7.9883,0.0,0.0,0.0,0.0,0.0,0.0,0.0,0.0,0.0,0.0,0.0,-5.5703,-5.5703,-5.6049,-5.6483,-5.6945,-5.7368,-5.8127,-5.9435,-5.9858,-6.1012,-6.3089,-6.2358,-6.2666,-6.4255,-6.2704,-6.1897,-6.1897,-6.155,-6.6436,-7.6169,-7.663,-8.0708,-8.7478,-8.2285,-7.8284,-7.5014,-6.859,-6.4436,-6.2178,-6.2897,-6.3589,-6.4089,-6.3051,-6.2743,-6.2743,-6.132,-6.0781,-6.0804,-6.086,-6.0902,-6.0884,-6.0993,0.0,0.0,0.0,-5.9861,-6.0542,-6.4764,-6.8984,-7.3711,0.0,-8.3437,-8.5625,-8.7578,0.0,0.0,0.0,0.0,0.0,0.0,0.0,0.0,0.0,0.0,0.0,0.0,0.0,0.0,0.0,0.0,0.0,0.0,0.0,0.0,0.0,0.0,0.0,-7.7617,-7.8047,-7.8281,-7.8281,-7.8789,-7.8555,-7.7578,-7.7305,-7.6719,-7.5742,-7.5351,-7.5234,-7.5351,-7.5625,-7.6015,-7.6484,-7.6992,-7.7422,-7.7773,-7.7773,-7.7969,-7.8281,-7.8281,-7.8281,-7.8281,-7.8281,-7.8594,-7.9023,0.0,0.0,0.0,0.0,0.0,0.0,0.0,0.0,0.0,0.0,0.0,-5.5703,-5.5703,0.0,0.0,0.0,-5.6868,-5.7627,-5.9088,-5.9588,-6.0319,-6.1408,-6.1012,-6.1089,-6.1755,-6.1127,-6.0781,-6.0781,-6.1243,-6.709,-7.7938,-7.8977,-8.4016,-9.1902,-8.5747,-8.0785,-7.6553,-6.9975,-6.6051,-6.4205,-6.2935,-6.3551,-6.5089,-6.3871,-6.4012,-6.4666,-6.2512,-6.1627,-6.1358,-6.0935,-6.0781,-6.0781,-6.0781,-6.086,0.0,0.0,0.0,-6.075,-6.5029,0.0,-6.9295,-7.6836,-7.9883,-8.1758,0.0,0.0,0.0,0.0,0.0,0.0,0.0,0.0,0.0,0.0,0.0,0.0,0.0,0.0,0.0,0.0,0.0,0.0,0.0,0.0,0.0,0.0,0.0,0.0,-7.5586,-7.6172,-7.6523,-7.6523,-7.7187,-7.6875,-7.5586,-7.5976,-7.5469,-7.3945,-7.414,-7.4492,-7.4883,-7.4687,-7.4961,-7.5625,-7.6484,-7.6875,-7.6875,-7.7109,-7.7187,-7.7187,-7.7187,-7.7187,-7.7187,-7.7187,-7.7617,-7.8164,0.0,0.0,0.0,0.0,0.0,0.0,0.0,0.0,0.0,0.0,0.0,-5.5703,-5.5703,-5.5703,-5.5703,-5.5742,-5.6522,-5.7396,-5.8319,-5.9858,-6.0396,-5.9665,-6.0396,0.0,-6.0858,-6.0819,-6.0781,-6.0781,-6.2397,-6.8821,-7.9708,-8.1323,-8.7902,-9.8019,-9.1287,-8.5055,-7.9208,-7.3206,-7.0552,-7.0014,-6.5166,-6.332,-6.3666,-6.5974,-6.6397,-6.5705,-6.4743,-6.3858,-6.2935,-6.1358,-6.0781,-6.0781,-6.0781,-6.0793,-6.0668,0.0,0.0,0.0,-6.0285,-6.3042,0.0,-6.8358,-7.3242,0.0,0.0,0.0,0.0,0.0,0.0,0.0,0.0,0.0,0.0,0.0,0.0,0.0,0.0,0.0,0.0,0.0,0.0,0.0,0.0,0.0,0.0,0.0,0.0,0.0,-7.4687,-7.4726,-7.4726,-7.4726,-7.4765,-7.4765,-7.4687,-7.3906,-7.3047,-7.2148,-7.2969,-7.2969,-7.2265,-7.3867,-7.4609,-7.4726,-7.5586,-7.5976,-7.6015,-7.6875,-7.7187,-7.7187,-7.7187,-7.7187,-7.7187,-7.7187,-7.7226,-7.7265,0.0,0.0,0.0,0.0,0.0,0.0,0.0,0.0,0.0,0.0,0.0,0.0,0.0,-5.6522,-5.6742,-5.7319,-5.7665,-5.7973,-5.828,-5.9358,-5.9819,-5.9511,-6.0319,-6.0781,-6.0781,-6.0781,-6.0781,-6.0781,-6.1396,-6.6513,-7.5822,-7.8054,-8.2939,-8.9787,-8.7325,-8.4747,-8.1631,-7.236,-6.8167,-6.7436,-6.4474,-6.4615,-6.6436,-6.5166,-6.6205,-6.8013,-6.5513,-6.4397,-6.4051,-6.3435,-6.2512,-6.1639,-6.1639,-6.1243,-6.0646,-5.99,-5.9233,-5.9149,-6.1198,0.0,0.0,-6.716,-7.0151,-7.2461,0.0,0.0,0.0,0.0,0.0,0.0,0.0,0.0,0.0,0.0,0.0,0.0,0.0,0.0,0.0,0.0,0.0,0.0,0.0,0.0,0.0,0.0,0.0,0.0,-7.2851,-7.2334,-7.2762,-7.4531,-7.4062,-7.3515,-7.293,-7.1523,-7.0664,-7.039,-7.125,-7.1758,-7.2031,-7.2656,-7.3242,-7.3789,-7.4101,-7.5195,-7.6719,-7.6484,-7.6719,-7.7187,-7.7187,-7.7187,-7.7187,-7.7187,-7.7187,-7.7187,0.0,0.0,0.0,0.0,0.0,-5.5703,-5.5703,-5.5703,-5.5703,-5.5703,0.0,0.0,0.0,0.0,-5.778,-5.8627,-5.8704,-5.8704,-5.8704,-5.9473,-5.9819,-5.9511,-6.0319,-6.0781,-6.0781,-6.0781,-6.0781,-6.0781,-6.1358,-6.5397,-7.2668,-7.4976,-7.9054,-8.4362,-8.1785,-8.2208,-8.4324,-7.613,-7.2014,-7.0706,-6.7244,-6.7552,-7.0014,-6.8859,-6.9821,-7.1514,-6.9244,-6.7705,-6.6436,-6.4743,-6.3243,-6.2062,-6.1755,-6.1281,-6.0673,-5.9842,-5.9306,-5.9359,-6.1154,-6.1328,-6.19,0.0,0.0,-6.8125,0.0,0.0,0.0,0.0,0.0,0.0,0.0,0.0,0.0,0.0,0.0,0.0,0.0,0.0,0.0,0.0,0.0,0.0,0.0,0.0,0.0,0.0,0.0,0.0,-7.1054,-7.0444,-7.0909,-7.2812,-7.2305,-7.1758,-7.1172,-7.0,-6.9414,-6.9453,-7.0,-7.0703,-7.1562,-7.1562,-7.2187,-7.3281,-7.3008,-7.418,-7.6328,-7.6015,-7.6406,-7.7187,-7.7187,-7.7187,-7.7187,-7.7187,-7.7187,-7.7187,0.0,0.0,-5.5703,-5.5703,-5.5703,-5.5703,-5.5742,-5.5742,-5.5742,-5.578,0.0,0.0,0.0,0.0,0.0,-5.9627,-5.9665,-5.9627,-5.9511,-6.0319,-6.0396,-5.955,-6.0319,-6.0781,-6.0781,-6.0781,-6.0781,-6.0781,-6.2435,-6.5782,-7.0706,-7.2476,-7.6823,-8.2901,-7.5553,-7.7746,-8.6824,-8.417,-8.2208,-8.0362,-7.3514,-7.1937,-7.4014,-7.7092,-7.7361,-7.6053,-7.6015,-7.3899,-7.0321,-6.532,-6.3051,-6.2139,-6.1127,-6.0819,-6.0666,-5.9781,-5.955,-5.9579,0.0,0.0,0.0,-6.3279,0.0,0.0,0.0,0.0,0.0,0.0,0.0,0.0,0.0,0.0,0.0,0.0,0.0,0.0,0.0,0.0,0.0,0.0,0.0,0.0,0.0,0.0,0.0,0.0,0.0,-6.915,-6.9336,-6.9234,-6.9269,-6.9414,-6.9453,-6.9453,-6.9453,-6.9375,-6.9336,-6.9336,-6.9336,-6.9805,-7.0664,-7.0703,-7.164,-7.3203,-7.2383,-7.2969,-7.4648,-7.5508,-7.6367,-7.7148,-7.7187,-7.7187,-7.7187,-7.7187,-7.7187,-7.7187,0.0,-5.5703,-5.5703,-5.5703,-5.5703,-5.5895,-5.656,-5.6637,-5.6857,0.0,0.0,0.0,-5.9627,-6.2166,-6.3897,-6.4089,-6.3551,-6.2127,-5.9665,-6.0319,-6.0396,-5.955,-6.0319,-6.0781,-6.0781,-6.0781,-6.0781,-6.0781,-6.1243,-6.282,-6.5436,-6.7205,-7.0283,-7.4399,-7.413,-7.5245,-7.7015,-7.1975,-7.2783,-7.6861,-7.0629,-7.1745,-7.6823,-7.4053,-7.5014,-7.763,-7.6438,-7.5784,-7.513,-7.2437,-6.9783,-6.6898,-6.2974,-6.1755,-6.1562,-6.0704,-6.0435,-6.0458,-6.0498,0.0,0.0,0.0,0.0,0.0,0.0,0.0,0.0,0.0,0.0,0.0,0.0,0.0,0.0,0.0,0.0,0.0,0.0,0.0,0.0,0.0,0.0,0.0,0.0,0.0,0.0,0.0,-6.6499,-6.6727,-6.7539,-6.8748,-6.9412,-6.9453,-6.8867,-6.8555,-6.8555,-6.793,-6.7578,-6.7617,-6.8242,-6.8984,-6.9844,-7.043,-7.1328,-7.2344,-7.2109,-7.2617,-7.3711,-7.4609,-7.5469,-7.6328,-7.6953,-7.7187,-7.7187,-7.7187,-7.7187,-7.7187,-5.578,-5.5972,-5.6252,-5.6252,-5.6819,-5.7473,-5.7973,-5.8357,-5.8627,0.0,0.0,0.0,-6.2666,-6.5936,-6.7552,-6.6474,-6.5282,-6.3589,-6.1243,-6.0896,-6.055,-6.005,-6.0512,-6.0781,-6.0781,-6.0781,-6.0781,-6.0781,-6.0781,-6.1281,-6.2281,-6.3281,-6.5205,-6.7744,-6.8552,-6.9436,-7.0052,-6.5859,-6.8282,-7.4784,-7.2668,-7.5168,-7.99,-7.8361,-7.9631,-8.2093,-8.1093,-8.0631,-7.9939,-7.6438,-7.2283,-6.7859,-6.3486,-6.2101,-6.1985,-6.1473,-6.1089,-6.0781,-6.0781,-6.0884,-6.0954,-6.0801,0.0,0.0,-5.9081,-6.0264,0.0,0.0,0.0,0.0,0.0,0.0,0.0,0.0,0.0,0.0,0.0,0.0,0.0,0.0,0.0,0.0,0.0,0.0,0.0,0.0,-6.4898,-6.5072,-6.569,-6.6756,-6.75,-6.7851,-6.7383,-6.7109,-6.7109,-6.6953,-6.6719,-6.6367,-6.7226,-6.8125,-6.8984,-6.9453,-7.0312,-7.1445,-7.1445,-7.1953,-7.2812,-7.3711,-7.457,-7.543,-7.6328,-7.664,-7.6719,-7.707,-7.7187,-7.7187,0.0,-5.6329,-5.6907,-5.7099,-5.8434,-5.9627,-6.0012,-6.0627,-6.0973,0.0,-6.1473,-6.3358,-6.6782,-6.9629,-7.0398,-6.8129,-6.6244,-6.4666,-6.3512,-6.1973,-6.105,-6.0935,-6.1012,-6.0973,-6.0781,-6.0896,-6.0896,-6.0781,-6.0781,-6.0781,-6.0781,-6.0781,-6.1589,-6.2974,-6.1473,-6.2474,-6.5243,-6.4089,-6.709,-7.2976,-7.6515,-7.9823,-8.2901,-8.5978,-8.7363,-8.7671,-8.7671,-8.6709,-8.4555,-7.8592,-7.2668,-6.7205,-6.3871,-6.2601,-6.237,-6.2255,-6.155,-6.0819,-6.0935,-6.1018,-6.1435,-6.2805,-6.1189,0.0,-5.9903,-5.9108,-5.8426,0.0,0.0,0.0,0.0,0.0,0.0,0.0,0.0,0.0,0.0,0.0,0.0,0.0,0.0,0.0,0.0,0.0,-6.4101,-6.4023,-6.4003,-6.401,-6.4127,-6.4251,-6.4648,-6.543,-6.5469,-6.5469,-6.5469,-6.6211,-6.6289,-6.5625,-6.6367,-6.7226,-6.8163,-6.8163,-6.9023,-7.0546,-7.0664,-7.1133,-7.1914,-7.2812,-7.3672,-7.4531,-7.543,-7.582,-7.5976,-7.6758,-7.7109,-7.7146,-5.5742,-5.5818,-5.6395,-5.778,-5.8858,-6.0435,-6.3166,-6.3166,-6.4012,-6.7282,-6.9013,-7.1283,-7.4707,-7.4399,-7.3745,-7.3245,-7.0437,-6.7475,-6.4551,-6.3397,-6.2512,-6.187,-6.2474,-6.2166,-6.0819,-6.1473,-6.1512,-6.0781,-6.0781,-6.0781,-6.0781,-6.0781,-6.0973,-6.1281,-6.0935,-6.1166,-6.1935,-6.4359,-6.6167,-6.7782,-7.2552,-7.8477,-8.4478,-8.5132,-8.7055,-8.9402,-8.9402,-8.921,-8.8017,-8.2093,-7.663,-7.1668,0.0,0.0,0.0,-6.3281,-6.1973,-6.0935,-6.1678,-6.1867,-6.1659,-6.0711,0.0,0.0,-5.9527,-6.0339,-6.124,0.0,0.0,0.0,0.0,0.0,0.0,0.0,0.0,0.0,0.0,0.0,0.0,0.0,0.0,0.0,0.0,0.0,-6.2969,-6.2265,-6.2811,-6.3513,-6.4216,-6.4296,-6.4375,-6.4531,-6.4531,-6.4531,-6.4531,-6.4726,-6.5078,-6.5586,-6.5606,-6.6444,-6.7969,-6.7969,-6.8515,-6.9533,-7.0348,-7.0781,-7.1015,-7.1875,-7.2773,-7.3633,-7.4492,-7.5273,-7.5937,-7.6094,-7.6514,-7.699,-5.5857,-5.6703,-5.8011,-5.9319,-6.0935,-6.3051,-6.6051,-6.6821,-6.8013,-7.0591,-7.3514,-7.5668,-7.6553,-7.663,-7.5745,-7.363,-7.0744,-6.7975,-6.5436,-6.4051,-6.3128,-6.2704,-6.2704,-6.2704,-6.2704,-6.1858,-6.1627,-6.205,-6.1204,-6.0781,-6.0781,-6.0781,-6.0358,-5.9627,-6.0858,-6.0742,-5.9781,-6.3628,-6.5513,-6.6513,-7.3745,-7.9438,-8.3862,-8.644,-8.8979,-9.1133,-9.071,-8.9748,-8.7748,-8.1785,-7.7823,0.0,-6.9898,-6.7513,-6.6397,0.0,-6.4359,-6.2704,0.0,0.0,0.0,-6.2221,0.0,0.0,0.0,-6.0196,-6.0155,0.0,0.0,0.0,0.0,0.0,0.0,0.0,0.0,0.0,0.0,0.0,0.0,0.0,0.0,0.0,0.0,0.0,-6.2187,-6.1719,-6.2109,-6.2499,-6.2877,-6.2967,-6.3163,-6.3541,-6.3631,-6.3631,-6.3541,-6.397,-6.4154,-6.4121,-6.4852,-6.5645,-6.6507,-6.6931,-6.7633,-6.85,-6.8983,-6.9726,-7.0647,-7.0969,-7.1678,-7.2642,-7.4061,-7.4609,-7.4687,-7.546,-7.5709,-7.5588,-5.6049,-5.7473,-5.9358,-6.0358,-6.2781,-6.5474,-6.8013,-6.9821,-7.1437,-7.2976,-7.6438,-7.84,-7.7553,-7.7938,-7.7207,-7.463,-7.0706,-6.8244,-6.7859,-6.532,-6.3666,-6.3308,-6.3166,-6.332,-6.3858,-6.2166,-6.1858,-6.3089,-6.155,-6.0781,-6.0781,-6.0781,-6.0089,-5.8858,-6.0742,-6.0819,-5.9742,-6.3166,-6.5551,-6.7821,-7.6015,-8.0015,-8.1708,-8.7286,-9.0287,-9.1479,-9.1287,-8.9556,-8.6594,-8.1246,-7.8592,-7.6592,-7.1283,-6.9167,0.0,0.0,0.0,0.0,0.0,0.0,0.0,0.0,0.0,-6.2302,0.0,0.0,0.0,0.0,0.0,0.0,0.0,0.0,0.0,0.0,0.0,0.0,0.0,0.0,0.0,0.0,0.0,0.0,0.0,0.0,-6.1719,-6.1719,-6.1719,-6.1638,-6.1527,-6.1635,-6.1988,-6.2581,-6.2691,-6.2689,-6.256,-6.3263,-6.3335,-6.2852,-6.4183,-6.498,-6.533,-6.603,-6.6729,-6.7397,-6.7626,-6.865,-7.0181,-7.0191,-7.0793,-7.1827,-7.3375,-7.3704,-7.3393,-7.463,-7.471,-7.4216,-5.6049,-5.656,-5.778,-5.9358,-6.2397,-6.5474,-6.8013,-6.9821,-7.2283,-7.6207,-7.8438,-8.0439,-8.2516,-7.9554,-7.8746,-8.2016,-7.3783,-7.0244,-7.4553,-6.9052,-6.4936,-6.3346,-6.5397,-6.4859,-6.132,-6.2397,-6.2743,-6.2255,-6.1281,-6.0781,-6.0781,-6.0781,-6.0704,-6.0473,-6.0012,-6.132,-6.3935,-6.4397,-6.7244,-7.1822,-7.5938,-7.7246,0.0,-8.4863,-8.7825,-8.8248,-9.0441,-8.9556,-8.694,0.0,-8.0939,-7.7861,0.0,-7.1937,-6.9552,-6.9552,0.0,0.0,0.0,0.0,0.0,0.0,-6.6667,0.0,0.0,0.0,0.0,0.0,0.0,0.0,0.0,0.0,0.0,0.0,0.0,0.0,0.0,0.0,0.0,0.0,0.0,0.0,0.0,0.0,0.0,-6.1719,-6.1719,-6.168,-6.1679,-6.1679,-6.1758,-6.1835,-6.1836,-6.1791,-6.166,-6.1738,-6.243,-6.3663,-6.3759,-6.4558,-6.6001,-6.6078,-6.6194,-6.632,-6.7299,-6.8235,-6.9143,-6.9909,-7.0726,-7.155,-7.177,-7.2326,-7.3023,-7.3103,-7.3503,-7.4042,-5.7357,-5.828,-5.9588,-6.0781,-6.3012,-6.5628,-6.8706,-7.3514,-7.763,-7.99,-8.2093,-8.4055,-8.5632,-8.2901,-8.1285,-8.2093,-7.7323,-7.3899,-7.3091,-7.036,-6.8052,-6.632,-6.6359,-6.6013,-6.5243,-6.3512,-6.2897,-6.3551,-6.1704,-6.0781,-6.0781,-6.0781,-6.0512,-6.0089,-6.0704,-6.182,-6.3281,-6.5243,-6.759,0.0,0.0,0.0,0.0,-8.3747,-8.6978,-8.7555,-8.8594,-8.7671,-8.5401,0.0,-8.0015,0.0,0.0,0.0,0.0,0.0,0.0,0.0,0.0,0.0,0.0,0.0,0.0,0.0,-6.5013,0.0,-6.3397,0.0,0.0,0.0,0.0,0.0,0.0,0.0,0.0,0.0,0.0,0.0,0.0,0.0,0.0,0.0,0.0,0.0,0.0,0.0,0.0,-6.1678,-6.1584,-6.1677,-6.1678,-6.1582,-6.1582,-6.1515,-6.1378,-6.1256,-6.1507,-6.2065,-6.2488,-6.3362,-6.4481,-6.4982,-6.5523,-6.5997,-6.6474,-6.7193,-6.8083,-6.883,-6.9702,-7.0589,-7.0979,-7.1564,-7.2156,-7.2485,-7.2517,-7.2374,-5.8934,-5.9781,-6.0627,-6.1293,-6.2974,-6.5551,-6.9436,-7.513,-7.9746,-8.1708,-8.3593,-8.5517,-8.7517,-8.5478,-8.4209,-8.4863,-8.1631,-7.8284,-7.5245,-7.3322,-7.1014,-6.8167,-6.7552,-6.7205,-6.7013,-6.4474,-6.3628,-6.4589,-6.2281,-6.1166,-6.1127,-6.0896,-6.0589,-6.0281,-6.2012,-6.3435,-6.4679,-6.7359,-6.9667,-7.1745,-7.3976,-7.5784,-7.7707,-8.3054,-8.5863,-8.7017,-8.6786,-8.5786,-8.4016,-8.04,-7.9631,0.0,-7.6669,0.0,0.0,0.0,0.0,0.0,-6.9129,0.0,0.0,0.0,0.0,0.0,0.0,0.0,0.0,0.0,0.0,0.0,0.0,0.0,0.0,-5.9973,0.0,0.0,0.0,0.0,0.0,0.0,0.0,0.0,0.0,0.0,0.0,0.0,0.0,0.0,-6.1182,-6.1519,-6.1677,-6.1571,-6.1515,-6.146,-6.1289,-6.1112,-6.107,-6.1166,-6.1793,-6.2627,-6.3666,-6.432,-6.5089,-6.5897,-6.5897,-6.6429,-6.7353,-6.8115,-6.8962,-6.9922,-7.0606,-7.1085,-7.1404,-7.1887,-7.17,-7.118,-6.055,-6.0089,-5.955,-5.9588,-6.1666,-6.5051,-7.009,-7.2514,-7.5515,-8.0477,-8.1208,-8.3131,-8.8132,-8.6363,-8.7478,-9.398,-8.6978,-8.317,-8.5478,-7.9477,-7.3245,-6.7398,-6.9436,-6.8475,-6.3577,-6.4974,-6.5397,-6.4589,-6.2897,-6.2062,-6.2062,-6.1166,-6.1243,-6.2101,-6.3782,-6.6782,-7.0667,-7.1629,-7.4899,-7.9361,-7.8631,-8.0323,-8.3247,0.0,-8.3978,-8.6055,-8.5247,0.0,0.0,-8.1593,-8.1054,0.0,0.0,0.0,0.0,0.0,0.0,0.0,0.0,0.0,0.0,-7.0283,0.0,0.0,0.0,0.0,-6.6282,0.0,0.0,0.0,0.0,-6.137,-6.0781,-6.0742,-6.0012,0.0,0.0,0.0,0.0,0.0,0.0,0.0,0.0,0.0,0.0,0.0,0.0,0.0,-6.043,-6.125,-6.1719,-6.168,-6.1575,-6.146,-6.1289,-6.1112,-6.1379,-6.2062,-6.2101,-6.2974,-6.4551,-6.4589,-6.5089,-6.5897,-6.5897,-6.6372,-6.7192,-6.8052,-6.8936,-6.9796,-7.0591,-7.0912,-7.0925,-7.0964,-7.1053,-7.118,-6.1473,-6.1396,-6.1216,-6.1216,-6.2358,-6.5205,-7.0898,-7.4168,-7.8246,-8.4439,-8.6247,-8.9517,-9.6288,-9.5788,-9.6095,-9.8904,0.0,-9.1287,-8.8786,-8.3862,0.0,-7.5668,-7.4168,-7.2091,-6.9244,-6.8129,-6.6859,-6.5474,-6.3743,-6.2897,-6.2897,-6.2589,-6.2935,-6.3782,-6.4359,-6.6667,0.0,0.0,0.0,0.0,0.0,-8.1747,-8.517,0.0,0.0,-8.4324,-8.3478,-8.2631,0.0,-8.1285,-8.0708,-8.0131,-7.9554,-7.7823,-7.5899,-7.5322,-7.4745,0.0,0.0,0.0,-7.5938,-7.2283,0.0,0.0,0.0,0.0,0.0,0.0,0.0,0.0,0.0,-6.187,-6.1485,-6.0896,-6.0089,-5.9396,0.0,0.0,0.0,0.0,0.0,0.0,0.0,0.0,0.0,0.0,0.0,0.0,0.0,-6.1211,-6.1677,-6.1577,-6.1421,-6.1289,-6.1112,-6.0954,-6.0999,-6.1243,-6.1831,-6.2666,-6.3782,-6.4359,-6.5089,-6.5897,-6.5897,-6.6051,-6.6397,-6.7821,-6.8577,-6.8975,-7.036,-7.0898,-7.0898,-7.0898,-7.094,-7.1056,-6.2474,-6.2512,-6.2512,-6.2512,-6.3705,-6.6167,-7.0629,-7.5476,-8.0631,0.0,-8.9479,0.0,-10.0596,0.0,-10.1212,0.0,-10.1289,-9.7519,-9.1248,-8.9133,0.0,-8.0054,-7.8246,-7.6207,0.0,0.0,0.0,-6.7244,-6.582,-6.482,-6.4205,-6.3589,-6.3782,-6.4628,-6.5551,-6.7667,-7.0744,-7.3053,-7.4976,0.0,0.0,-8.2324,0.0,0.0,-8.4209,-8.4247,0.0,-8.1554,-8.1093,-8.1093,-8.0746,-8.0246,-8.0246,-7.8938,-7.7246,-7.663,-7.6284,-7.5861,-7.4938,-7.6361,0.0,-7.4322,-7.413,0.0,-6.9783,0.0,0.0,0.0,0.0,0.0,0.0,0.0,-6.1908,-6.1358,-6.0512,-5.9858,0.0,-5.9749,0.0,0.0,0.0,0.0,0.0,0.0,0.0,-5.8789,-5.9219,0.0,0.0,0.0,-6.1323,-6.1507,-6.1364,-6.1207,-6.1006,-6.086,-6.0781,-6.0819,-6.1678,-6.2512,-6.332,-6.4205,-6.5089,-6.5897,-6.5897,-6.5897,-6.6013,-6.7705,-6.8385,-6.8577,-7.0244,-7.0898,-7.0898,-7.0898,-7.0898,-7.1052,-6.3512,-6.3462,-6.3577,-6.3628,-6.559,-6.7782,0.0,0.0,-8.2362,0.0,-9.0864,-9.598,-10.1096,-10.1712,-10.302,-10.629,-10.579,-10.1789,-9.3672,-9.5172,0.0,0.0,-8.1939,-8.0708,-7.6476,0.0,0.0,0.0,-6.8898,-6.7552,-6.6051,-6.4282,-6.3858,-6.4782,-6.7282,-6.9744,-7.2245,-7.5707,-7.8207,-7.9939,-8.1593,-8.2324,-8.2401,-8.2285,-8.3824,-8.5593,-8.2285,-8.1093,-8.1093,-8.1093,-8.1093,-8.1093,-8.1093,-8.0516,-7.9477,-7.7823,-7.7938,-7.8015,-7.5553,-7.6169,-7.7246,-7.6284,0.0,0.0,0.0,0.0,-7.2615,0.0,0.0,0.0,0.0,0.0,-6.2139,-6.2062,-6.1331,-6.0512,-5.9665,-5.9727,0.0,0.0,0.0,0.0,0.0,0.0,-5.8828,-5.789,-5.789,-5.8281,0.0,0.0,-6.0736,-6.1468,-6.1369,-6.122,-6.1023,-6.0882,-6.0804,-6.0804,-6.1716,-6.2551,-6.332,-6.4243,-6.5128,-6.5897,-6.5936,-6.5974,-6.609,-6.7744,-6.8436,-6.8615,-7.0206,-7.086,-7.0898,-7.0898,-7.0898,-7.1129,-6.4166,-6.5782,-6.7321,-6.7936,-6.8052,-6.9283,0.0,0.0,0.0,0.0,-9.5288,-10.0596,-10.629,-10.7482,-10.829,-10.9098,-10.8406,0.0,0.0,0.0,0.0,-9.1287,-8.9094,-8.5978,-8.1747,-7.8938,0.0,-7.4399,0.0,-6.7859,-6.8667,-6.632,-6.5359,-6.5628,-6.7552,-6.8783,-6.9629,-7.3668,-7.7092,-7.99,-8.0977,-8.2554,0.0,0.0,-8.2978,-8.4863,-8.2093,-8.1093,-8.1093,-8.1093,-8.1093,-8.1093,-8.1093,-8.0516,-7.9592,-7.8515,-7.8784,-7.9169,-7.7861,-7.8784,-7.9631,-7.7476,-7.6784,-7.5861,0.0,0.0,0.0,0.0,0.0,0.0,0.0,0.0,0.0,-6.132,-6.0935,-6.0704,-6.0512,0.0,0.0,-6.0696,0.0,0.0,0.0,0.0,-5.8555,-5.7031,-5.7539,-5.8281,0.0,0.0,0.0,-6.1468,-6.1481,-6.1378,-6.1227,-6.1023,-6.0944,-6.0983,-6.2348,-6.3089,-6.3346,-6.4859,-6.5705,-6.5936,-6.6513,-6.6782,-6.6859,-6.7975,-6.8783,-6.9398,-6.986,-7.036,-7.0898,-7.0898,-7.0898,-7.1052,-6.5667,-6.8052,-7.0437,-7.1668,0.0,0.0,-7.663,-7.9592,0.0,-9.0517,-9.5788,0.0,-10.5097,-10.7982,-10.9906,-11.0714,-10.9983,0.0,-10.3712,0.0,0.0,-9.4634,-9.2941,-9.0133,-8.5901,-8.1747,0.0,-7.6015,0.0,-6.8552,-6.909,-6.6898,-6.5897,-6.5974,-6.7244,-6.8244,-6.9283,-7.3899,-7.7592,-8.04,-8.09,0.0,0.0,-8.1631,-8.1977,-8.3054,-8.1593,-8.1093,-8.1093,-8.1093,-8.1093,-8.1016,-8.0669,-8.0208,-7.9631,-7.8746,-7.8861,-7.9208,-7.9092,-7.9515,-7.9708,-7.8669,-7.8092,-7.7015,-7.3976,-7.4399,-7.4437,0.0,0.0,0.0,0.0,0.0,0.0,-6.1627,-6.105,-6.0781,0.0,0.0,0.0,0.0,0.0,0.0,0.0,0.0,-5.8086,-5.6719,-5.7031,0.0,0.0,0.0,0.0,-6.1468,-6.1775,-6.1689,-6.1179,-6.1387,-6.1301,-6.0915,-6.2556,-6.3308,-6.3346,-6.5128,-6.5897,-6.5936,-6.6744,-6.709,-6.7205,-6.8436,-6.9244,-6.9744,-7.009,-7.0514,-7.0898,-7.0898,-7.1129,-7.1591,-6.7705,-7.0244,0.0,0.0,0.0,0.0,0.0,-8.2747,0.0,-9.0287,0.0,-9.9519,-10.1712,-10.6097,-10.9483,-11.0906,0.0,-10.7598,-10.2212,-10.3712,-10.1712,-9.4826,-9.5057,-9.3403,-8.9286,-8.4209,-8.0015,0.0,-7.2052,-6.936,-6.8706,-6.6782,-6.5897,-6.5936,-6.6744,0.0,0.0,-7.4899,-7.8284,-8.0477,-8.0939,-8.1093,-8.1093,-8.1093,-8.1093,-8.1093,-8.1093,-8.1093,-8.1093,-8.1093,-8.1093,-8.0939,-8.0092,-7.9823,-7.9631,-7.8631,-7.84,-7.8631,-7.9285,-7.9015,-7.8669,-7.9323,-7.8823,-7.7553,-7.5245,-7.463,-7.386,-7.1398,-6.9667,-6.8205,0.0,0.0,0.0,0.0,0.0,0.0,0.0,0.0,0.0,0.0,0.0,0.0,0.0,0.0,0.0,0.0,0.0,0.0,0.0,0.0,0.0,0.0,-6.1997,0.0,-6.1203,0.0,-6.1813,-6.1185,-6.2716,-6.3462,-6.3551,-6.5166,-6.5897,-6.5936,-6.6859,-6.7282,-6.7398,-6.9013,-6.9706,-6.9783,-7.0591,-7.0898,-7.0898,-7.0898,-7.1514,-7.2476,-6.9975,-7.2399,0.0,0.0,0.0,-8.3478,-8.7517,-9.0787,-9.3595,-9.5865,-10.1212,-10.502,-10.552,-10.7521,-10.879,-10.8406,-10.8213,0.0,0.0,0.0,0.0,-9.9096,-9.775,-9.5403,-9.1902,-8.6824,-8.3247,0.0,-7.3476,-6.9975,-7.0398,-6.7321,-6.5897,-6.5936,-6.6744,0.0,-6.9937,-7.3591,0.0,-7.713,-7.9977,-8.1093,-8.1093,-8.1093,-8.1093,-8.1093,-8.1093,-8.1093,-8.1093,-8.1093,-8.1093,-8.0939,-8.0092,-7.9823,-7.9515,-7.7938,-7.7977,-7.84,-7.7861,-7.8092,-7.8361,-7.7861,-7.7092,-7.613,-7.4976,-7.4207,-7.3168,-7.1283,-7.0129,-6.8552,-6.559,0.0,0.0,0.0,0.0,0.0,0.0,0.0,0.0,0.0,0.0,0.0,0.0,0.0,0.0,0.0,0.0,0.0,0.0,0.0,0.0,0.0,0.0,0.0,0.0,0.0,-6.2549,-6.3129,-6.3978,-6.4359,-6.4397,-6.5436,-6.5897,-6.5974,-6.7513,-6.8167,-6.8244,-6.9283,-6.9706,-6.9783,-7.0591,-7.0898,-7.0898,-7.0898,-7.1898,-7.3283,-7.4399,0.0,0.0,0.0,0.0,0.0,0.0,-9.6095,0.0,-9.6403,-9.9096,-10.152,-10.2404,-10.5097,-10.7098,-10.7713,-10.6905,-10.5597,-10.3905,-10.2597,-10.1019,-9.8827,-9.7942,0.0,-9.3172,-8.7709,-8.4055,-8.2285,-7.4245,-7.0321,-7.0206,-6.7705,-6.6513,-6.6551,0.0,-6.8552,0.0,0.0,0.0,-7.6938,-7.99,-8.1093,-8.1093,-8.1093,-8.1093,-8.1093,-8.1093,-8.1093,-8.1093,-8.1093,-8.1093,-8.0862,-7.9554,-7.9131,-7.8784,-7.713,-7.6899,-7.7207,-7.7284,-7.6899,-7.6553,-7.6592,-7.5668,-7.4361,-7.3014,-7.2783,-7.2206,-7.0052,-6.9321,-6.8129,-6.5166,-6.2897,0.0,0.0,0.0,0.0,0.0,0.0,0.0,0.0,0.0,0.0,0.0,0.0,0.0,0.0,0.0,0.0,0.0,0.0,0.0,0.0,0.0,0.0,0.0,0.0,0.0,-6.3583,-6.3808,-6.4166,-6.4628,-6.5013,-6.5705,-6.659,-6.7859,-6.8667,-6.9129,-6.9975,-7.0321,-7.036,-7.0744,-7.0898,-7.0898,-7.0898,-7.2014,-7.3514,0.0,-8.0054,0.0,0.0,-8.9787,0.0,-9.598,-9.9019,-9.9981,-9.7019,-9.7211,-9.8134,-9.9442,-10.2712,-10.5405,-10.679,-10.5482,-10.3905,-10.2404,-10.1289,-9.9788,-9.7596,-9.7326,-9.6211,-9.4018,-8.8556,-8.4516,0.0,-7.5091,-7.0821,0.0,-6.7936,-6.7282,0.0,0.0,0.0,0.0,0.0,-7.513,-7.7515,-8.0054,-8.1093,-8.1093,-8.1093,-8.1093,-8.1093,-8.1093,-8.1093,-8.1093,-8.1093,-8.0977,-8.0554,-7.8977,-7.8361,-7.7938,-7.6438,-7.6015,-7.6092,-7.6592,-7.5745,-7.4822,-7.5361,-7.4207,-7.2591,-7.1206,-7.1168,-7.0783,-6.859,-6.7705,-6.6782,-6.4936,-6.3089,0.0,0.0,0.0,0.0,0.0,0.0,0.0,0.0,0.0,0.0,0.0,0.0,0.0,0.0,0.0,0.0,-5.789,-5.8711,0.0,0.0,0.0,-6.3491,-6.2964,0.0,-6.4551,0.0,-6.3742,-6.4051,-6.4859,-6.4666,-6.5436,-6.6898,-6.7936,-6.9013,-7.0014,-7.0629,-7.0898,-7.0898,-7.0898,-7.0898,-7.0898,-7.0898,-7.2014,-7.3514,0.0,0.0,0.0,0.0,0.0,0.0,-9.6134,-9.8519,-10.0596,-10.1712,-10.202,-10.2097,-10.2212,-10.3289,-10.4097,-10.4212,-10.3405,-10.2404,-10.152,-9.9904,-9.8596,-9.7557,-9.6788,-9.5942,-9.4903,-9.0594,-8.5978,0.0,0.0,-7.1937,0.0,-6.7975,0.0,0.0,0.0,0.0,0.0,-7.3245,-7.563,-7.7515,-8.0054,-8.1093,-8.1093,-8.1093,-8.1093,-8.1093,-8.1093,-8.1093,-8.1093,-8.1093,-8.0592,-7.9746,-7.8784,-7.7977,-7.7207,-7.6284,-7.6015,-7.5861,-7.513,-7.4822,-7.4553,-7.3899,-7.2437,-7.1091,-7.0937,-6.9783,-6.8475,-6.7436,-6.5397,-6.3974,-6.4512,-6.2589,-6.1435,0.0,0.0,0.0,0.0,0.0,0.0,0.0,0.0,0.0,0.0,0.0,0.0,0.0,0.0,-5.789,-5.789,-5.8711,-5.9083,-5.887,0.0,-6.2944,-6.3516,-6.426,0.0,-6.5838,-6.4937,-6.4936,-6.5743,-6.4974,-6.5128,-6.609,-6.7705,-6.9321,-7.0783,-7.086,-7.0898,-7.0898,-7.0898,-7.0898,-7.0898,-7.0898,-7.2014,-7.3514,0.0,0.0,0.0,0.0,0.0,0.0,0.0,-9.9442,-10.0481,-10.1712,-10.1404,-10.1481,-10.252,-10.2404,-10.2597,-10.3097,-10.1904,-10.0712,-9.9865,-9.8673,-9.7634,-9.6826,-9.648,-9.6134,-9.5788,-9.2633,-8.8979,0.0,0.0,0.0,0.0,0.0,0.0,0.0,0.0,-6.9937,-7.1398,-7.4245,-7.6169,-7.7515,-8.0054,-8.1093,-8.1093,-8.1093,-8.1093,-8.1093,-8.1093,-8.1093,-8.1093,-8.1093,-8.0516,-7.9669,-7.8746,-7.7938,-7.713,-7.6245,-7.6015,-7.5822,-7.4938,-7.4361,-7.3668,-7.2283,-7.1437,-7.0514,-6.8975,-6.8898,-6.8667,-6.6782,-6.5166,-6.4051,-6.3858,-6.3012,-6.2358,0.0,0.0,0.0,0.0,0.0,0.0,0.0,0.0,0.0,0.0,0.0,0.0,0.0,0.0,0.0,-5.8711,-5.9405,0.0,-5.9611,0.0,-6.3431,-6.3711,-6.488,-6.543,-6.5296,-6.432,-6.4282,-6.5089,-6.4205,-6.4859,-6.6667,-6.7898,-6.909,-7.0167,-7.0167,-7.0475,-7.0898,-7.0898,-7.0898,-7.0898,-7.0898,-7.2014,-7.3514,-8.9671,0.0,-9.221,0.0,-9.6442,-9.8019,-9.9827,-9.9635,-9.9712,-10.0789,-10.0212,-10.0404,-10.202,-10.1712,-10.152,-10.2212,-10.0904,-9.9712,-9.8865,-9.798,-9.7134,-9.6326,-9.6288,0.0,-9.6288,-9.4057,-9.1056,-8.7401,-8.367,0.0,0.0,0.0,0.0,0.0,-7.0898,-7.2091,-7.3822,-7.563,-7.7169,-7.8554,-8.0362,-8.1093,-8.1093,-8.1093,-8.1093,-8.1093,-8.1093,-8.1093,-8.1093,-8.1093,-8.0516,-7.9669,-7.8746,-7.7746,-7.6784,-7.6169,-7.6015,-7.5745,-7.4668,-7.3937,-7.3091,-7.1321,-7.0706,-7.0014,-6.7936,-6.8244,-6.8359,-6.632,-6.5205,-6.432,-6.3474,-6.3128,-6.2743,-6.2178,0.0,0.0,0.0,0.0,0.0,0.0,-5.9204,-5.8858,-5.8357,0.0,0.0,0.0,0.0,0.0,0.0,0.0,0.0,0.0,0.0,0.0,0.0,-6.4772,-6.5102,-6.4792,-6.3549,-6.3512,-6.4589,-6.4243,-6.5166,-6.7128,-6.7744,-6.8667,-6.9706,-6.9706,-7.0167,-7.0898,-7.0898,-7.0898,-7.0898,-7.0898,-7.1822,-7.3168,-9.1941,-9.3787,-9.5749,-9.8288,-9.9481,-10.0115,-10.0096,-9.8634,-9.8134,-9.9865,-9.9365,-9.9442,-10.1096,-10.1289,-10.1289,-10.1289,-10.0596,-9.9712,-9.8865,-9.798,-9.7134,0.0,0.0,-9.6288,-9.6288,-9.4595,-9.1633,-8.7401,0.0,0.0,-7.4668,0.0,-7.386,-7.463,-7.463,-7.563,-7.7246,-7.7284,-7.8746,-8.1054,-8.1093,-8.1093,-8.1093,-8.1093,-8.1093,-8.1093,-8.1093,-8.1093,-8.1093,-8.1093,-8.0516,-7.9669,-7.8746,-7.7361,-7.6015,-7.6015,-7.6015,-7.563,-7.3976,-7.3514,-7.3091,-7.1321,-7.0283,-6.9475,-6.859,-6.7744,-6.6898,-6.6051,-6.5205,-6.432,-6.3474,-6.2666,-6.2101,-6.2101,0.0,0.0,0.0,0.0,0.0,0.0,-6.0242,-6.0127,-5.8473,0.0,0.0,0.0,0.0,0.0,0.0,0.0,0.0,-5.9727,-6.1414,0.0,-6.3601,-6.3406,-6.383,-6.4792,-6.2982,-6.2974,-6.4628,-6.5474,-6.632,-6.709,-6.709,-6.809,-6.9706,-6.9706,-7.0167,-7.0898,-7.0898,-7.0898,-7.0898,-7.0898,-7.1475,-7.2322,-9.4941,-9.5942,-9.6788,-9.7057,-9.825,-9.9019,-9.8404,-9.7865,-9.7904,-9.9058,-9.8981,-9.8981,-9.9558,-10.0596,-10.1096,0.0,-9.9712,-9.8827,0.0,-9.7134,-9.6557,-9.6326,-9.6288,-9.6288,-9.6288,-9.5749,-9.3941,-9.0864,0.0,0.0,0.0,-7.5861,-7.5014,-7.4745,-7.5938,-7.7092,-7.8207,-7.94,-8.0362,-8.1093,-8.1093,-8.1093,-8.1093,-8.1093,-8.1093,-8.1093,-8.1093,-8.1093,-8.1093,-8.1093,-8.0516,-7.9669,-7.8746,-7.7746,-7.6784,-7.6169,-7.6015,-7.563,-7.3976,-7.3514,-7.2937,-7.0667,-7.0283,-7.0167,-6.8744,-6.7744,-6.6859,-6.6051,-6.5667,-6.5205,-6.4359,-6.3474,-6.2743,-6.2178,-6.1601,0.0,0.0,0.0,0.0,0.0,0.0,-5.9473,0.0,-5.905,0.0,0.0,0.0,0.0,0.0,0.0,0.0,0.0,-6.16,0.0,-6.3395,-6.333,-6.3445,-6.3769,-6.3176,-6.3512,-6.4628,-6.5513,-6.6051,-6.6282,-6.6282,-6.7244,-6.8821,-6.8821,-6.9629,-7.0898,-7.0898,-7.0898,-7.0898,-7.0898,-7.1437,-7.2245,-9.6288,-9.6942,-9.7326,-9.6826,-9.7634,-9.8134,-9.7596,-9.725,-9.7365,-9.8211,-9.8288,-9.8442,-9.875,-9.9712,0.0,-9.9673,-9.8788,-9.8096,-9.7557,-9.6749,-9.6288,-9.6288,-9.6288,-9.6288,-9.6288,0.0,0.0,-9.2941,-8.994,-8.5901,-8.0862,-7.8861,-7.7784,-7.7592,-7.8361,-7.9015,-7.9554,-8.0631,-8.1093,-8.1093,-8.1093,-8.1093,-8.1093,-8.1093,-8.1093,-8.1093,-8.1093,-8.1093,-8.1093,-8.1093,-8.0746,-8.0131,-7.9246,-7.8631,-7.7938,-7.6438,-7.6015,-7.563,-7.3976,-7.3514,-7.2976,-7.0706,-7.0514,-7.0475,-6.8783,-6.7475,-6.6513,-6.6013,-6.5897,-6.5628,-6.4743,-6.3897,-6.3051,-6.2216,-6.1358,-6.0781,-6.0781,0.0,0.0,0.0,0.0,0.0,0.0,-5.9396,0.0,0.0,0.0,0.0,0.0,0.0,0.0,-6.0945,-6.1384,0.0,-6.3269,-6.2666,-6.2666,-6.3308,-6.3308,-6.3782,-6.4628,-6.5513,-6.5897,-6.5897,-6.6205,-6.7128,-6.8436,-6.8744,-6.9667,-7.0898,-7.0898,-7.0898,-7.0898,-7.0898,-7.1245,-7.1822,-9.6288,-9.6903,0.0,0.0,-9.7403,0.0,-9.7403,-9.6788,-9.6557,-9.7326,-9.748,-9.7788,-9.8519,-9.8673,-9.8673,-9.8634,0.0,0.0,0.0,-9.6711,-9.6288,-9.6288,-9.6288,-9.6288,-9.6288,-9.6249,-9.5365,-9.3633,-8.8671,-8.5824,-8.4939,-8.2362,-8.1593,-8.2247,-8.1477,-8.1131,-8.117,-8.1131,-8.1093,-8.1093,-8.1093,-8.1093,-8.1093,-8.1093,-8.1093,-8.1093,-8.1093,-8.1093,-8.1093,-8.1093,-8.1093,-8.0939,-8.0092,-7.9823,-7.9323,-7.6823,-7.6053,-7.563,-7.3976,-7.3476,-7.3014,-7.1321,-7.0898,-7.0475,-6.8859,-6.7282,-6.6167,-6.609,-6.6013,-6.5743,-6.4936,-6.3974,-6.3051,-6.2332,-6.1396,-6.0781,-6.0781,0.0,0.0,0.0,0.0,0.0,0.0,-6.0089,-5.9588,0.0,0.0,0.0,0.0,0.0,-6.0945,-6.0793,-6.0858,-6.1666,-6.3269,-6.1743,-6.1781,-6.3397,-6.3397,-6.3858,-6.4705,-6.5513,-6.5936,-6.6013,-6.6782,-6.7628,-6.8552,-6.936,-7.0167,-7.0898,-7.0898,-7.0898,-7.0898,-7.0975,-7.0975,-7.1245,0.0,0.0,-9.6596,-9.6596,-9.6596,-9.6596,-9.6596,-9.6442,-9.6365,-9.6557,-9.7134,-9.7326,-9.6942,-9.7442,-9.7557,-9.6942,-9.725,-9.725,-9.6634,-9.6403,-9.6288,-9.6288,-9.6288,-9.6288,-9.6288,-9.5634,-9.448,-9.2787,-8.9633,-8.7325,-8.5747,-8.3208,-8.2131,-8.2247,-8.1477,-8.1439,-8.1977,-8.1362,-8.1093,-8.1093,-8.1093,-8.1093,-8.1093,-8.1093,-8.1093,-8.1093,-8.1093,-8.1093,-8.1093,-8.1093,-8.1093,-8.0939,-8.0092,-7.9823,-7.9438,-7.7553,-7.6515,-7.563,-7.3976,-7.3014,-7.2245,-7.1168,-7.0898,-7.0629,-6.9629,-6.909,-6.8629,-6.7936,-6.7282,-6.6744,-6.6551,-6.4743,-6.3243,-6.3051,-6.1781,-6.0781,-6.0781,-6.0781,0.0,0.0,-6.0781,-6.0781,-6.0781,-6.0589,-6.0473,0.0,0.0,0.0,0.0,-6.0734,-6.0823,-6.0781,-6.1447,-6.2281,-6.3269,-6.2897,-6.3243,-6.4282,-6.4282,-6.4743,-6.559,-6.582,-6.6244,-6.6821,-6.7013,-6.7975,-6.9398,-6.9629,-7.0167,-7.0898,-7.0898,-7.0898,-7.0975,-7.1629,-7.1898,-7.2052,-9.6288,-9.6288,-9.6288,-9.6288,-9.6288,-9.6288,-9.6288,-9.6288,-9.6288,-9.6288,-9.6673,-9.6788,-9.6365,-9.6673,-9.6788,-9.6326,-9.6711,-9.6788,-9.6326,-9.6288,-9.6288,-9.6288,-9.6288,-9.6288,-9.6288,-9.5826,-9.4749,-9.3056,-9.0517,-8.8594,-8.7248,-8.5055,-8.3824,-8.3439,-8.2631,-8.2247,-8.2285,-8.1823,-8.1439,-8.1093,-8.1093,-8.1093,-8.1093,-8.1093,-8.1093,-8.1093,-8.1093,-8.1093,-8.1093,-8.1093,-8.1093,-8.1016,-8.0554,-8.04,-8.0054,-7.8361,-7.7246,-7.6207,-7.4514,-7.3437,-7.2476,-7.1206,-7.0629,-7.0244,-6.9821,-6.9398,-6.8975,-6.85,-6.7705,-6.709,-6.709,-6.5013,-6.3308,-6.3308,-6.1897,-6.0781,-6.0781,-6.0781,0.0,-6.0781,-6.0781,-6.0781,-6.0781,-6.0781,-6.0781,-6.0781,0.0,0.0,-6.0781,-6.1166,-6.1408,-6.1408,-6.187,-6.2666,-6.3897,-6.3897,-6.4128,-6.4589,-6.4589,-6.5051,-6.5897,-6.5897,-6.632,-6.7128,-6.7513,-6.8475,-6.9744,-7.009,-7.0514,-7.0898,-7.0898,-7.0898,-7.0975,-7.1437,-7.186,-7.2322,-9.6288,-9.6288,-9.6288,-9.6288,-9.6288,-9.6288,-9.6288,-9.6288,-9.6288,-9.6288,-9.6288,-9.6288,-9.6288,-9.6288,-9.6288,-9.6288,-9.6288,-9.6249,-9.6095,-9.6249,-9.6249,-9.6095,-9.6249,-9.6288,-9.6288,-9.6057,-9.5057,-9.3326,-9.1018,-8.944,-8.8479,-8.6863,-8.5747,-8.5055,-8.4055,-8.3324,-8.2862,-8.2439,-8.19,-8.1285,-8.1131,-8.1093,-8.1093,-8.1093,-8.1093,-8.1093,-8.1093,-8.1093,-8.1093,-8.1093,-8.1093,-8.1093,-8.1093,-8.1093,-8.0785,-7.9169,-7.813,-7.7053,-7.5207,-7.4014,-7.2937,-7.1283,-7.0398,-6.9937,-7.0052,-6.9398,-6.8821,-6.8936,-6.809,-6.7282,-6.7282,-6.5205,-6.3512,-6.3512,-6.2089,-6.1012,-6.1012,0.0,-6.0781,-6.0781,-6.0781,-6.0781,-6.0781,-6.0781,-6.0781,-6.0781,-6.0781,-6.0781,0.0,-6.1639,-6.2178,-6.2293,-6.2409,-6.3205,-6.4782,-6.4782,-6.4782,-6.4782,-6.4936,-6.5359,-6.609,-6.609,-6.659,-6.7513,-6.8129,-6.8975,-6.9937,-7.0629,-7.0898,-7.0898,-7.0898,-7.0898,-7.0937,-7.1206,-7.1745,-7.2552,-9.6288,-9.6288,-9.6288,-9.6288,-9.6288,-9.6288,-9.6288,-9.6288,-9.6288,-9.6288,-9.6288,-9.6288,-9.6288,-9.6288,-9.6288,-9.6288,-9.6288,-9.598,-9.5249,-9.5903,-9.598,-9.5211,-9.5903,-9.6288,-9.6288,-9.4864,-9.3287,-9.1595,-9.0441,-8.9133,-8.7594,-8.6555,-8.6017,-8.5863,-8.4286,-8.4324,-8.5363,-8.3208,-8.2247,-8.2054,-8.1362,-8.1093,-8.1093,-8.1093,-8.1093,-8.1093,-8.1093,-8.1093,-8.1093,-8.1093,-8.1093,-8.1093,-8.1093,-8.1093,-8.09,-7.99,-7.8977,-7.7784,-7.5361,-7.3591,-7.2168,-7.1168,-7.0821,-7.0898,-7.1629,-7.1129,-7.0706,-7.1475,-6.9783,-6.8205,-6.8205,-6.6128,-6.4397,-6.4397,-6.2974,-6.1908,-6.1908,0.0,-6.0781,-6.0781,-6.0781,-6.0781,-6.0781,-6.0781,-6.0781,-6.0781,-6.0781,-6.0781,-6.0781,-6.1639,-6.2397,-6.3089,-6.382,-6.4705,-6.5705,-6.5705,-6.5705,-6.5705,-6.6397,-6.6782,-6.6898,-6.6898,-6.7782,-6.9244,-6.8667,-6.9283,-7.0706,-7.086,-7.0898,-7.0898,-7.0898,-7.0898,-7.1091,-7.2552,-7.3168,-7.3514,-9.6288,-9.6288,-9.6288,-9.6288,-9.6288,-9.6288,-9.6288,-9.6288,-9.6288,-9.6288,-9.6288,-9.6288,-9.6288,-9.6288,-9.6288,-9.6288,-9.6288,-9.5942,-9.5057,-9.5826,-9.6134,-9.5711,-9.6095,-9.6095,-9.5595,-9.3941,-9.2672,-9.1902,-9.1018,-8.9979,-8.8748,-8.8363,-8.7671,-8.6786,-8.5978,-8.5555,-8.5363,-8.3708,-8.2708,-8.2247,-8.14,-8.1093,-8.1093,-8.1093,-8.1093,-8.1093,-8.1093,-8.1093,-8.1093,-8.1093,-8.1093,-8.1093,-8.1093,-8.1093,-8.0939,-8.0054,-7.8861,-7.74,-7.5284,-7.3822,-7.2783,-7.2399,-7.1591,-7.1245,-7.2591,-7.186,-7.1168,-7.2014,-7.0167,-6.8385,-6.8385,-6.632,-6.4589,-6.4589,-6.3205,0.0,0.0,-6.2012,-6.1666,-6.2089,-6.2166,-6.2166,-6.2166,-6.2166,-6.2166,-6.2166,-6.2166,-6.2166,-6.2166,-6.2974,-6.3628,-6.3974,-6.4859,-6.5474,-6.5897,-6.5897,-6.5897,-6.5897,-6.6705,-6.709,-6.7128,-6.759,-6.8513,-6.9667,-6.9283,-6.9783,-7.0898,-7.0898,-7.0898,-7.0898,-7.0898,-7.0898,-7.1014,-7.1783,-7.2706,-7.363,-9.6288,-9.6288,-9.6288,-9.6288,-9.6288,-9.6288,-9.6288,-9.6288,-9.6288,-9.6288,-9.6288,-9.6288,-9.6288,-9.6288,-9.6288,-9.6288,-9.6288,-9.5942,-9.5057,-9.5826,-9.6211,-9.6019,-9.6019,-9.5595,-9.4711,-9.3249,-9.2402,-9.221,-9.1518,-9.0748,-8.9902,-8.971,-8.894,-8.7671,-8.7286,-8.6517,-8.5401,-8.4132,-8.3208,-8.2516,-8.1516,-8.1093,-8.1093,-8.1093,-8.1208,-8.1362,-8.117,-8.1208,-8.1362,-8.117,-8.1093,-8.1093,-8.1093,-8.1093,-8.0977,-8.0285,-7.9054,-7.7476,-7.5515,-7.4399,-7.3745,-7.3553,-7.2476,-7.1898,-7.3437,-7.2437,-7.1437,-7.2322,-7.0475,-6.8706,-6.8706,-6.6936,-6.5436,-6.5205,0.0,0.0,0.0,-6.2897,-6.2589,-6.3243,-6.3308,-6.3308,-6.3308,-6.3308,-6.3308,-6.3308,-6.3308,-6.3308,-6.3308,-6.4128,-6.4705,-6.4897,-6.5551,-6.5897,-6.5897,-6.609,-6.6167,-6.6205,-6.7205,-6.7705,-6.7744,-6.8398,-6.9167,-6.9975,-6.9783,-7.0167,-7.0898,-7.0898,-7.0898,-7.0898,-7.0898,-7.0898,-7.0937,-7.136,-7.236,-7.3553,-9.6288,-9.6288,-9.6288,-9.6288,-9.6288,-9.6288,-9.6288,-9.6288,-9.6288,-9.6288,-9.6288,-9.6288,-9.6288,-9.6288,-9.6288,-9.6288,-9.6288,-9.5942,-9.5057,-9.5826,-9.5942,-9.5134,-9.5095,-9.4672,-9.3787,-9.2941,-9.2095,-9.1287,-9.1248,-9.0748,-8.9885,-8.9133,-8.8709,-8.8517,-8.6901,-8.6594,-8.7055,-8.4632,-8.3555,-8.3362,-8.1747,-8.1093,-8.1093,-8.1093,-8.1554,-8.2093,-8.1362,-8.1593,-8.2093,-8.1362,-8.1093,-8.1093,-8.1093,-8.1093,-8.1093,-8.1016,-8.0362,-7.9054,-7.6592,-7.5284,-7.4437,-7.3707,-7.3399,-7.3553,-7.4399,-7.3322,-7.236,-7.3206,-7.1398,-6.959,-6.959,-6.8783,-6.7859,-6.7051,0.0,0.0,-6.4628,-6.3782,-6.3243,-6.3269,-6.3308,-6.3308,-6.3308,-6.3308,-6.3308,-6.3308,-6.3308,-6.3308,-6.3308,-6.4128,-6.4974,-6.5782,-6.5859,-6.5897,-6.5897,-6.6628,-6.7013,-6.7013,-6.8706,-6.9513,-6.9513,-6.959,-7.0052,-7.0783,-7.0014,-7.0167,-7.0898,-7.0898,-7.0898,-7.0898,-7.0898,-7.0898,-7.1091,-7.2706,-7.3399,-7.3745,-9.6288,-9.6288,-9.6288,-9.6288,-9.6288,-9.6288,-9.6288,-9.6288,-9.6288,-9.6288,-9.6288,-9.6288,-9.6288,-9.6288,-9.6288,-9.6288,-9.6288,-9.6172,-9.5826,-9.6134,-9.6134,-9.5826,-9.4749,-9.4287,-9.448,-9.2672,-9.1787,-9.2018,-9.1479,-9.1018,-9.071,-9.0402,-8.9979,-8.9402,-8.8209,-8.7594,-8.7286,-8.5247,-8.4401,-8.4286,-8.3131,-8.2631,-8.2631,-8.2631,-8.2516,-8.2247,-8.1939,-8.1708,-8.1516,-8.1208,-8.1093,-8.1093,-8.1093,-8.1093,-8.1093,-8.1093,-8.0477,-7.9592,-7.8631,-7.6976,-7.5438,-7.513,-7.4284,-7.386,-7.5207,-7.3783,-7.2437,-7.3322,-7.1475,-6.9706,-6.9706,-6.9013,-6.8282,-6.7975,0.0,-6.6167,-6.6859,-6.532,-6.4474,-6.5513,-6.5205,-6.4897,-6.4897,-6.4897,-6.4897,-6.4897,-6.4897,-6.4897,-6.4897,-6.5243,-6.5782,-6.6628,-6.6628,-6.6628,-6.6628,-6.6936,-6.7359,-6.7936,-6.9129,-6.9706,-6.9706,-7.0206,-7.0591,-7.0898,-7.0591,-7.0629,-7.0898,-7.0898,-7.0898,-7.0937,-7.1514,-7.1706,-7.186,-7.3053,-7.3822,-7.4361,-9.6288,-9.6288,-9.6288,-9.6288,-9.6288,-9.6288,-9.6288,-9.6288,-9.6288,-9.6288,-9.6288,-9.6288,-9.6288,-9.6288,-9.6288,-9.6288,-9.6288,-9.6172,-9.5903,-9.5903,-9.6019,-9.6288,-9.4634,-9.398,-9.4557,-9.2364,-9.1479,-9.2095,-9.1479,-9.121,-9.121,-9.0941,-9.0479,-8.9863,-8.8786,-8.794,-8.7286,-8.5593,-8.4901,-8.4824,-8.3939,-8.3593,-8.3593,-8.3593,-8.3401,-8.3054,-8.2516,-8.2131,-8.1785,-8.1285,-8.1093,-8.1093,-8.1093,-8.1093,-8.1093,-8.1093,-8.0669,-8.0169,-7.9862,-7.8515,-7.7053,-7.6553,-7.5553,-7.4938,-7.5784,-7.4437,-7.3168,-7.3745,-7.2283,-7.0898,-7.0898,-7.0167,-6.9513,-6.9244,-6.8013,-6.7398,-6.8282,-6.6898,-6.6205,-6.7359,-6.7013,-6.659,-6.6282,-6.6282,-6.6167,-6.5897,-6.5897,-6.6013,-6.6244,-6.6282,-6.6667,-6.7475,-6.7513,-6.7628,-6.7898,-6.7936,-6.8205,-6.8821,-6.9667,-7.009,-7.009,-7.0667,-7.0898,-7.0898,-7.0898,-7.0898,-7.0937,-7.1206,-7.1321,-7.1398,-7.2283,-7.2591,-7.2706,-7.3553,-7.4245,-7.4745,-9.6288,-9.6288,-9.6288,-9.6288,-9.6288,-9.6288,-9.6288,-9.6288,-9.6288,-9.6288,-9.6288,-9.6288,-9.6288,-9.6288,-9.6288,-9.6288,-9.6288,-9.5942,-9.5057,-9.5018,-9.5403,-9.6249,-9.4634,-9.371,-9.371,-9.2056,-9.121,-9.121,-9.121,-9.121,-9.1171,-9.0325,-8.9902,-8.9863,-8.8171,-8.7401,-8.7325,-8.5632,-8.4939,-8.4863,-8.3978,-8.3632,-8.3632,-8.3593,-8.4132,-8.467,-8.2939,-8.2862,-8.3324,-8.167,-8.1093,-8.1093,-8.1093,-8.1093,-8.1093,-8.1093,-8.1093,-8.09,-8.0054,-7.9823,-7.94,-7.7746,-7.7284,-7.7053,-7.6207,-7.5322,-7.4707,-7.4707,-7.4053,-7.3514,-7.3514,-7.2783,-7.1937,-7.1052,-7.0244,-6.9398,-6.8552,-6.8398,-6.8385,-6.8398,-6.8385,-6.8052,-6.7167,-6.709,-6.6782,-6.5974,-6.5897,-6.6282,-6.7051,-6.709,-6.7513,-6.8385,-6.8398,-6.8821,-6.9706,-6.9706,-6.9706,-6.9706,-7.0514,-7.0898,-7.0898,-7.0898,-7.0898,-7.0898,-7.0898,-7.0898,-7.0975,-7.1822,-7.2206,-7.2283,-7.3168,-7.3514,-7.363,-7.4399,-7.4707,-7.4822,-9.6172,-9.6288,-9.6288,-9.6288,-9.6288,-9.6288,-9.6288,-9.6288,-9.6288,-9.6288,-9.6288,-9.6288,-9.6288,-9.6288,-9.6288,-9.6288,-9.6288,-9.6172,-9.5942,-9.5903,-9.6019,-9.6288,-9.4634,-9.398,-9.4595,-9.2364,-9.1518,-9.2095,-9.1518,-9.121,-9.121,-9.0941,-9.0825,-9.0748,-8.9056,-8.8632,-8.9056,-8.7363,-8.7017,-8.7478,-8.6632,-8.6247,-8.6209,-8.5593,-8.517,-8.4824,-8.4324,-8.3516,-8.2593,-8.2093,-8.1554,-8.1093,-8.1093,-8.1093,-8.1093,-8.1093,-8.1093,-8.1054,-8.0785,-8.0708,-8.0285,-7.8554,-7.7707,-7.7207,-7.6976,-7.5745,-7.4707,-7.4707,-7.4053,-7.3514,-7.3514,-7.3283,-7.3053,-7.2783,-7.1514,-7.0667,-7.1014,-6.9552,-6.8629,-6.9244,-6.8783,-6.8321,-6.8052,-6.8013,-6.7898,-6.7667,-6.7667,-6.7782,-6.8013,-6.8013,-6.8398,-6.9283,-6.9321,-6.9706,-7.0514,-6.9975,-6.9975,-7.0552,-7.0783,-7.0898,-7.0898,-7.0898,-7.0898,-7.0898,-7.0898,-7.0898,-7.0975,-7.1822,-7.2206,-7.2322,-7.3783,-7.4361,-7.4437,-7.5284,-7.563,-7.5668,-9.6211,-9.6288,-9.6288,-9.6288,-9.6288,-9.6288,-9.6288,-9.6288,-9.6288,-9.6288,-9.6288,-9.6288,-9.6288,-9.6288,-9.6288,-9.6288,-9.6288,-9.6288,-9.6288,-9.6288,-9.6134,-9.5788,-9.4441,-9.3941,-9.448,-9.2326,-9.1479,-9.1979,-9.1479,-9.121,-9.121,-9.121,-9.121,-9.1133,-8.9787,-8.944,-8.9825,-8.8479,-8.8209,-8.8632,-8.7748,-8.7401,-8.7286,-8.644,-8.5786,-8.5324,-8.5016,-8.4016,-8.2747,-8.2401,-8.1785,-8.1093,-8.1093,-8.1093,-8.1093,-8.1093,-8.1093,-8.1093,-8.1093,-8.1093,-8.0862,-7.9785,-7.89,-7.813,-7.7438,-7.6746,-7.6015,-7.5361,-7.5091,-7.4899,-7.4553,-7.4207,-7.3976,-7.3976,-7.2822,-7.2129,-7.2629,-7.1398,-7.0475,-7.0667,-7.0206,-6.9629,-6.8975,-6.8898,-6.8783,-6.8436,-6.8385,-6.8552,-6.8898,-6.8898,-6.9321,-7.0167,-7.0167,-7.0398,-7.0898,-7.0437,-7.0437,-7.0898,-7.0898,-7.0898,-7.0898,-7.0898,-7.0898,-7.0898,-7.0898,-7.1091,-7.1475,-7.1975,-7.2591,-7.3283,-7.4322,-7.4899,-7.5284,-7.5822,-7.6015,-7.6015,-9.6288,-9.6288,-9.6288,-9.6288,-9.6288,-9.6288,-9.6288,-9.6288,-9.6288,-9.6288,-9.6288,-9.6288,-9.6288,-9.6288,-9.6288,-9.6288,-9.6288,-9.6288,-9.6288,-9.6288,-9.5903,-9.5018,-9.4172,-9.3672,-9.3595,-9.2018,-9.121,-9.121,-9.121,-9.121,-9.121,-9.121,-9.121,-9.1171,-9.0287,-8.9902,-8.9863,-8.9056,-8.8748,-8.8709,-8.7863,-8.7517,-8.744,-8.6632,-8.6247,-8.6017,-8.5363,-8.4516,-8.3555,-8.2631,-8.1785,-8.1093,-8.1093,-8.1093,-8.1093,-8.1093,-8.1093,-8.1093,-8.1093,-8.1093,-8.1093,-8.1093,-8.0516,-7.9515,-7.79,-7.8015,-7.8054,-7.6553,-7.6861,-7.7169,-7.6361,-7.5515,-7.4938,-7.4938,-7.4207,-7.363,-7.363,-7.3553,-7.3206,-7.2399,-7.2245,-7.1591,-7.0052,-6.986,-6.9475,-6.8667,-6.8615,-6.8975,-6.9744,-6.9898,-7.0244,-7.0975,-7.1091,-7.1129,-7.1129,-7.1129,-7.1091,-7.1014,-7.1014,-7.1052,-7.1129,-7.1052,-7.1052,-7.1129,-7.0975,-7.1398,-7.2206,-7.2206,-7.3129,-7.4591,-7.4668,-7.5245,-7.6015,-7.6015,-7.6015,-7.6015,-9.6172,-9.6288,-9.6288,-9.6288,-9.6288,-9.6288,-9.6288,-9.6288,-9.6288,-9.6288,-9.6288,-9.6288,-9.6288,-9.6288,-9.6288,-9.6288,-9.6288,-9.6288,-9.6288,-9.6288,-9.5903,-9.5018,-9.4172,-9.3403,-9.2787,-9.1748,-9.121,-9.121,-9.121,-9.121,-9.121,-9.121,-9.121,-9.1171,-9.0287,-8.9902,-8.9863,-8.9056,-8.9056,-8.9556,-8.8748,-8.8402,-8.8402,-8.8209,-8.7286,-8.617,-8.6671,-8.5901,-8.4401,-8.2824,-8.1785,-8.1093,-8.1093,-8.1093,-8.1093,-8.1093,-8.1093,-8.1093,-8.1093,-8.1093,-8.1093,-8.1093,-8.0977,-8.0554,-7.9515,-7.8861,-7.84,-7.8015,-7.8092,-7.8169,-7.7977,-7.7284,-7.6746,-7.6746,-7.5438,-7.4437,-7.4437,-7.3899,-7.3437,-7.3245,-7.2629,-7.2052,-7.1668,-7.1052,-7.0552,-7.036,-7.036,-7.0437,-7.0629,-7.1283,-7.1745,-7.1898,-7.2591,-7.2937,-7.2937,-7.2937,-7.2591,-7.1898,-7.1898,-7.2283,-7.2899,-7.2245,-7.2283,-7.286,-7.1475,-7.1398,-7.2206,-7.2206,-7.2822,-7.3822,-7.4437,-7.5245,-7.6015,-7.6015,-7.6015,-7.6015,-9.6211,-9.6288,-9.6288,-9.6288,-9.6288,-9.6288,-9.6288,-9.6288,-9.6288,-9.6288,-9.6288,-9.6288,-9.6288,-9.6288,-9.6288,-9.6288,-9.6288,-9.6288,-9.6288,-9.6288,-9.5711,-9.4441,-9.3941,-9.3133,-9.1902,-9.1441,-9.121,-9.121,-9.121,-9.121,-9.121,-9.121,-9.121,-9.1171,-9.071,-9.0517,-9.0479,-8.9633,-8.9517,-8.9825,-8.9017,-8.8709,-8.8709,-8.8709,-8.7863,-8.6786,-8.7248,-8.6055,-8.4093,-8.2747,-8.1785,-8.1093,-8.1093,-8.1093,-8.1093,-8.1093,-8.1093,-8.1093,-8.1093,-8.1093,-8.1093,-8.1093,-8.1093,-8.0862,-8.0015,-7.9785,-7.9477,-7.8669,-7.8823,-7.8977,-7.8592,-7.8169,-7.7861,-7.7861,-7.7092,-7.6361,-7.5976,-7.5592,-7.5014,-7.4168,-7.3668,-7.3245,-7.286,-7.2399,-7.2129,-7.2129,-7.2129,-7.2129,-7.2129,-7.2591,-7.2822,-7.2822,-7.3283,-7.3514,-7.3514,-7.3514,-7.3476,-7.3399,-7.3014,-7.3053,-7.3462,-7.3014,-7.3091,-7.3437,-7.2552,-7.2399,-7.2822,-7.2822,-7.3322,-7.413,-7.4553,-7.5245,-7.6015,-7.6015,-7.6015,-7.6015,-9.6288,-9.6288,-9.6288,-9.6288,-9.6288,-9.6288,-9.6288,-9.6288,-9.6288,-9.6288,-9.6288,-9.6288,-9.6288,-9.6288,-9.6288,-9.6288,-9.6288,-9.6288,-9.6288,-9.6288,-9.5518,-9.3787,-9.371,-9.2903,-9.1248,-9.121,-9.121,-9.121,-9.121,-9.121,-9.121,-9.1056,-9.1056,-9.121,-9.0902,-9.0787,-9.071,-8.9863,-8.9479,-8.944,-8.8902,-8.8709,-8.8709,-8.9017,-8.8479,-8.7632,-8.7632,-8.5901,-8.3478,-8.2747,-8.19,-8.1093,-8.1093,-8.1093,-8.1093,-8.1093,-8.1093,-8.1093,-8.1093,-8.1093,-8.1093,-8.1093,-8.1093,-8.09,-8.0208,-8.0592,-8.0669,-7.9246,-7.9515,-7.9785,-7.9092,-7.8823,-7.8707,-7.8707,-7.8592,-7.8246,-7.7592,-7.74,-7.6746,-7.5322,-7.4899,-7.4399,-7.3591,-7.3514,-7.3514,-7.3514,-7.3514,-7.3514,-7.3514,-7.363,-7.3707,-7.3707,-7.386,-7.3937,-7.3937,-7.3937,-7.4245,-7.4899,-7.4245,-7.3937,-7.3937,-7.3783,-7.3783,-7.3899,-7.363,-7.3591,-7.3707,-7.3553,-7.3976,-7.4707,-7.4707,-7.5245,-7.6015,-7.6015,-7.6015,-7.6015,-9.6288,-9.6288,-9.6288,-9.6288,-9.6288,-9.6288,-9.6288,-9.6288,-9.6288,-9.6288,-9.6288,-9.6288,-9.6288,-9.6288,-9.6288,-9.6288,-9.6288,-9.6288,-9.6288,-9.6288,-9.5518,-9.3787,-9.371,-9.2903,-9.1248,-9.121,-9.121,-9.121,-9.121,-9.121,-9.1171,-9.0441,-9.0479,-9.1133,-8.9671,-8.9017,-8.8979,-8.8094,-8.7748,-8.7786,-8.844,-8.8709,-8.8863,-9.0325,-8.9902,-8.8517,-8.8517,-8.6401,-8.3555,-8.3439,-8.2401,-8.1093,-8.1093,-8.1093,-8.1093,-8.1093,-8.1093,-8.1093,-8.1093,-8.1093,-8.1093,-8.1093,-8.1093,-8.1054,-8.0939,-8.1016,-8.1016,-8.0785,-8.0823,-8.09,-8.0785,-8.0131,-7.9631,-7.9631,-7.8977,-7.8453,-7.8361,-7.7746,-7.7207,-7.6976,-7.563,-7.4399,-7.3591,-7.3514,-7.3514,-7.3514,-7.3514,-7.3514,-7.3514,-7.4168,-7.4553,-7.4553,-7.5284,-7.5668,-7.5668,-7.5668,-7.5707,-7.5822,-7.5707,-7.5668,-7.563,-7.4899,-7.4938,-7.5592,-7.413,-7.3899,-7.4476,-7.3783,-7.3976,-7.4707,-7.4707,-7.5245,-7.6015,-7.6015,-7.6015,-7.6015,-9.6288,-9.6288,-9.6134,-9.5672,-9.5557,-9.5557,-9.5557,-9.5557,-9.5749,-9.6249,-9.6288,-9.6288,-9.6288,-9.6288,-9.6288,-9.6288,-9.6288,-9.6288,-9.6288,-9.5826,-9.5018,-9.3749,-9.3249,-9.2441,-9.1248,-9.121,-9.121,-9.121,-9.121,-9.121,-9.1171,-9.0325,-9.0133,-9.0441,-8.971,-8.9133,-8.8671,-8.8286,-8.7863,-8.7478,-8.8363,-8.8709,-8.8863,-9.0556,-9.0441,-8.9248,-8.8325,-8.6401,-8.4247,-8.3747,-8.2785,-8.1785,-8.1785,-8.1477,-8.1208,-8.1631,-8.1439,-8.1093,-8.1093,-8.1093,-8.1093,-8.1093,-8.1093,-8.1093,-8.1093,-8.1093,-8.1093,-8.1093,-8.1093,-8.1093,-8.1093,-8.0785,-8.0516,-8.0516,-8.0208,-7.9785,-7.9285,-7.8515,-7.763,-7.6669,-7.5899,-7.5284,-7.4938,-7.4899,-7.4899,-7.4899,-7.4899,-7.4899,-7.4899,-7.5245,-7.5438,-7.5438,-7.5784,-7.6015,-7.6015,-7.6015,-7.6015,-7.6015,-7.6015,-7.6015,-7.5976,-7.5592,-7.563,-7.5976,-7.5207,-7.4822,-7.4707,-7.4861,-7.4822,-7.4745,-7.5245,-7.5668,-7.6015,-7.6015,-7.6015,-7.6015]},{"header":{"parameterUnit":"m.s-1","parameterCategory":1,"la1":30.6,"la2":28.766,"lo1":-90.7593,"lo2":-88.6598,"dy":0.0162,"dx":0.0183,"nx":116,"ny":114,"refTime":"2024-05-08T00:00:00:Z","depth":0,"parameterNumber":3,"parameterNumberName":"V-component_of_WINDS"},"data":[0.0,0.0,0.0,0.0,0.0,0.0,0.0,0.0,0.0,0.0,0.0,0.0,0.0,0.0,0.0,0.0,0.0,0.0,0.0,0.0,0.0,0.0,0.0,0.0,0.0,0.0,0.0,0.0,0.0,0.0,0.0,0.0,0.0,0.0,0.0,0.0,0.0,0.0,0.0,0.0,0.0,0.0,0.0,0.0,0.0,0.0,0.0,0.0,0.0,0.0,0.0,0.0,0.0,0.0,0.0,0.0,0.0,0.0,0.0,0.0,0.0,0.0,0.0,0.0,0.0,0.0,0.0,0.0,0.0,0.0,0.0,0.0,0.0,0.0,0.0,0.0,0.0,0.0,0.0,0.0,0.0,0.0,0.0,0.0,0.0,0.0,0.0,0.0,0.0,0.0,0.0,0.0,0.0,0.0,0.0,0.0,0.0,0.0,0.0,0.0,0.0,0.0,0.0,0.0,0.0,0.0,0.0,0.0,0.0,0.0,0.0,0.0,0.0,0.0,0.0,0.0,0.0,0.0,0.0,0.0,0.0,0.0,0.0,0.0,0.0,0.0,0.0,0.0,0.0,0.0,0.0,0.0,0.0,0.0,0.0,0.0,0.0,0.0,0.0,0.0,0.0,0.0,0.0,0.0,0.0,0.0,0.0,0.0,0.0,0.0,0.0,0.0,0.0,0.0,0.0,0.0,0.0,0.0,0.0,0.0,0.0,0.0,0.0,0.0,0.0,0.0,0.0,0.0,0.0,0.0,0.0,0.0,0.0,0.0,0.0,0.0,0.0,0.0,0.0,0.0,0.0,0.0,0.0,0.0,0.0,0.0,0.0,0.0,0.0,0.0,0.0,0.0,0.0,0.0,0.0,0.0,0.0,0.0,0.0,0.0,0.0,0.0,0.0,0.0,0.0,0.0,0.0,0.0,0.0,0.0,0.0,0.0,0.0,0.0,0.0,0.0,0.0,0.0,0.0,0.0,0.0,0.0,0.0,0.0,0.0,0.0,0.0,0.0,0.0,0.0,0.0,0.0,0.0,0.0,0.0,0.0,0.0,0.0,0.0,0.0,0.0,0.0,0.0,0.0,0.0,0.0,0.0,0.0,0.0,0.0,0.0,0.0,0.0,0.0,0.0,0.0,0.0,0.0,0.0,0.0,0.0,0.0,0.0,0.0,0.0,0.0,0.0,0.0,0.0,0.0,0.0,0.0,0.0,0.0,0.0,0.0,0.0,0.0,0.0,0.0,0.0,0.0,0.0,0.0,0.0,0.0,0.0,0.0,0.0,0.0,0.0,0.0,0.0,0.0,0.0,0.0,0.0,0.0,0.0,0.0,0.0,0.0,0.0,0.0,0.0,0.0,0.0,0.0,0.0,0.0,0.0,0.0,0.0,0.0,0.0,0.0,0.0,0.0,0.0,0.0,0.0,0.0,0.0,0.0,0.0,0.0,0.0,0.0,0.0,0.0,0.0,0.0,0.0,0.0,0.0,0.0,0.0,0.0,0.0,0.0,0.0,0.0,0.0,0.0,0.0,0.0,0.0,0.0,0.0,0.0,0.0,0.0,0.0,0.0,0.0,0.0,0.0,0.0,0.0,0.0,0.0,0.0,0.0,0.0,0.0,0.0,0.0,0.0,0.0,0.0,0.0,0.0,0.0,0.0,0.0,0.0,0.0,0.0,0.0,0.0,0.0,0.0,0.0,0.0,0.0,0.0,0.0,0.0,0.0,0.0,0.0,0.0,0.0,0.0,0.0,0.0,0.0,0.0,0.0,0.0,0.0,0.0,0.0,0.0,0.0,0.0,0.0,0.0,0.0,0.0,0.0,0.0,0.0,0.0,0.0,0.0,0.0,0.0,0.0,0.0,0.0,0.0,0.0,0.0,0.0,0.0,0.0,0.0,0.0,0.0,0.0,0.0,0.0,0.0,0.0,0.0,0.0,0.0,0.0,0.0,0.0,0.0,0.0,0.0,0.0,0.0,0.0,0.0,0.0,0.0,0.0,0.0,0.0,0.0,0.0,0.0,0.0,0.0,0.0,0.0,0.0,0.0,0.0,0.0,0.0,0.0,0.0,0.0,0.0,0.0,0.0,0.0,0.0,0.0,0.0,0.0,0.0,0.0,0.0,0.0,0.0,0.0,0.0,0.0,0.0,0.0,0.0,0.0,0.0,0.0,0.0,0.0,0.0,0.0,0.0,0.0,0.0,0.0,0.0,0.0,0.0,0.0,0.0,0.0,0.0,0.0,0.0,0.0,0.0,0.0,0.0,0.0,0.0,0.0,0.0,0.0,0.0,0.0,0.0,0.0,0.0,0.0,0.0,0.0,0.0,0.0,0.0,0.0,0.0,0.0,0.0,0.0,0.0,0.0,0.0,0.0,0.0,0.0,0.0,0.0,0.0,0.0,0.0,0.0,0.0,0.0,0.0,0.0,0.0,0.0,0.0,0.0,0.0,0.0,0.0,0.0,0.0,0.0,0.0,0.0,0.0,0.0,0.0,0.0,0.0,0.0,0.0,0.0,0.0,0.0,0.0,0.0,0.0,0.0,0.0,0.0,0.0,0.0,0.0,0.0,0.0,0.0,0.0,0.0,0.0,0.0,0.0,0.0,0.0,0.0,0.0,0.0,0.0,0.0,0.0,0.0,0.0,0.0,0.0,0.0,0.0,0.0,0.0,0.0,0.0,0.0,0.0,0.0,0.0,0.0,0.0,0.0,0.0,0.0,0.0,0.0,0.0,0.0,0.0,0.0,0.0,0.0,0.0,0.0,0.0,0.0,0.0,0.0,0.0,0.0,0.0,0.0,0.0,0.0,0.0,0.0,0.0,0.0,0.0,0.0,0.0,0.0,0.0,0.0,0.0,0.0,0.0,0.0,0.0,0.0,0.0,0.0,0.0,0.0,0.0,0.0,0.0,0.0,0.0,0.0,0.0,0.0,0.0,0.0,0.0,0.0,0.0,0.0,0.0,0.0,0.0,0.0,0.0,0.0,0.0,0.0,0.0,0.0,0.0,0.0,0.0,0.0,0.0,0.0,0.0,0.0,0.0,0.0,0.0,0.0,0.0,0.0,0.0,0.0,0.0,0.0,0.0,0.0,0.0,0.0,0.0,0.0,0.0,0.0,0.0,0.0,0.0,0.0,0.0,0.0,0.0,0.0,0.0,0.0,0.0,0.0,0.0,0.0,0.0,0.0,0.0,0.0,0.0,0.0,0.0,0.0,0.0,0.0,0.0,0.0,0.0,0.0,0.0,0.0,0.0,0.0,0.0,0.0,0.0,0.0,0.0,0.0,0.0,0.0,0.0,0.0,0.0,0.0,0.0,0.0,0.0,0.0,0.0,0.0,0.0,0.0,0.0,0.0,0.0,0.0,0.0,0.0,0.0,0.0,0.0,0.0,0.0,0.0,0.0,0.0,0.0,0.0,0.0,0.0,0.0,0.0,0.0,0.0,0.0,0.0,0.0,0.0,0.0,0.0,0.0,0.0,0.0,0.0,0.0,0.0,0.0,0.0,0.0,0.0,0.0,0.0,0.0,0.0,0.0,0.0,0.0,0.0,0.0,0.0,0.0,0.0,0.0,0.0,0.0,0.0,0.0,0.0,0.0,0.0,0.0,0.0,0.0,0.0,0.0,0.0,0.0,0.0,0.0,0.0,0.0,0.0,0.0,0.0,0.0,0.0,0.0,0.0,0.0,0.0,0.0,0.0,0.0,0.0,0.0,0.0,0.0,0.0,0.0,0.0,0.0,0.0,0.0,0.0,0.0,0.0,0.0,0.0,0.0,0.0,0.0,0.0,0.0,0.0,0.0,0.0,0.0,0.0,0.0,0.0,0.0,0.0,0.0,0.0,0.0,0.0,0.0,0.0,0.0,0.0,0.0,0.0,0.0,0.0,0.0,0.0,0.0,0.0,0.0,0.0,0.0,0.0,0.0,0.0,0.0,0.0,0.0,0.0,0.0,0.0,0.0,0.0,0.0,0.0,0.0,0.0,0.0,0.0,0.0,0.0,0.0,0.0,0.0,0.0,0.0,0.0,0.0,0.0,0.0,0.0,0.0,0.0,0.0,0.0,0.0,0.0,0.0,0.0,0.0,0.0,0.0,0.0,0.0,0.0,0.0,0.0,0.0,0.0,0.0,0.0,0.0,0.0,0.0,0.0,0.0,0.0,0.0,0.0,0.0,0.0,0.0,0.0,0.0,0.0,0.0,0.0,0.0,0.0,0.0,0.0,0.0,0.0,0.0,0.0,0.0,0.0,0.0,0.0,0.0,0.0,0.0,0.0,0.0,0.0,0.0,0.0,0.0,0.0,0.0,0.0,0.0,0.0,0.0,0.0,0.0,0.0,0.0,0.0,0.0,0.0,0.0,0.0,0.0,0.0,0.0,0.0,0.0,0.0,0.0,0.0,0.0,0.0,0.0,0.0,0.0,0.0,0.0,0.0,0.0,0.0,0.0,0.0,0.0,0.0,0.0,0.0,0.0,0.0,0.0,0.0,0.0,0.0,0.0,0.0,0.0,0.0,0.0,0.0,0.0,0.0,0.0,0.0,0.0,0.0,0.0,0.0,0.0,0.0,0.0,0.0,0.0,0.0,0.0,0.0,0.0,0.0,0.0,0.0,0.0,0.0,0.0,0.0,0.0,0.0,0.0,0.0,0.0,0.0,0.0,0.0,0.0,0.0,0.0,0.0,0.0,0.0,0.0,0.0,0.0,0.0,0.0,0.0,0.0,0.0,0.0,0.0,0.0,0.0,0.0,0.0,0.0,0.0,0.0,0.0,0.0,0.0,0.0,0.0,0.0,0.0,0.0,0.0,0.0,0.0,0.0,0.0,0.0,0.0,0.0,0.0,0.0,0.0,0.0,0.0,0.0,0.0,0.0,0.0,0.0,0.0,0.0,0.0,0.0,0.0,0.0,0.0,0.0,0.0,0.0,0.0,0.0,0.0,0.0,0.0,0.0,0.0,0.0,0.0,0.0,0.0,0.0,0.0,0.0,0.0,0.0,0.0,0.0,0.0,0.0,0.0,0.0,0.0,0.0,0.0,0.0,0.0,0.0,0.0,0.0,0.0,0.0,0.0,0.0,0.0,0.0,0.0,0.0,0.0,0.0,0.0,0.0,0.0,0.0,0.0,0.0,0.0,0.0,0.0,0.0,0.0,0.0,0.0,0.0,0.0,0.0,0.0,0.0,0.0,0.0,0.0,0.0,0.0,0.0,0.0,0.0,0.0,0.0,0.0,0.0,0.0,0.0,0.0,0.0,0.0,0.0,0.0,0.0,0.0,0.0,0.0,0.0,0.0,0.0,0.0,0.0,0.0,0.0,0.0,0.0,0.0,0.0,0.0,0.0,0.0,0.0,0.0,0.0,0.0,0.0,0.0,0.0,0.0,0.0,0.0,0.0,0.0,0.0,0.0,0.0,0.0,0.0,0.0,0.0,0.0,0.0,0.0,0.0,0.0,0.0,0.0,0.0,0.0,0.0,0.0,0.0,0.0,0.0,0.0,0.0,0.0,0.0,0.0,0.0,0.0,0.0,0.0,0.0,0.0,0.0,0.0,0.0,0.0,0.0,0.0,0.0,0.0,0.0,0.0,0.0,0.0,0.0,0.0,0.0,0.0,0.0,0.0,0.0,0.0,0.0,0.0,0.0,0.0,0.0,0.0,0.0,0.0,0.0,0.0,0.0,0.0,0.0,0.0,0.0,0.0,0.0,0.0,0.0,0.0,0.0,0.0,0.0,0.0,0.0,0.0,0.0,0.0,0.0,0.0,0.0,0.0,0.0,0.0,0.0,0.0,0.0,0.0,0.0,0.0,0.0,0.0,0.0,0.0,0.0,0.0,0.0,0.0,0.0,0.0,0.0,0.0,0.0,0.0,0.0,0.0,0.0,0.0,0.0,0.0,0.0,0.0,0.0,0.0,0.0,0.0,0.0,0.0,0.0,0.0,0.0,0.0,0.0,0.0,0.0,0.0,0.0,0.0,0.0,0.0,0.0,0.0,0.0,0.0,0.0,0.0,0.0,0.0,0.0,0.0,0.0,0.0,0.0,0.0,0.0,0.0,0.0,0.0,0.0,0.0,0.0,0.0,0.0,0.0,0.0,0.0,0.0,0.0,0.0,0.0,0.0,0.0,0.0,0.0,0.0,0.0,0.0,0.0,0.0,0.0,0.0,0.0,0.0,0.0,0.0,0.0,0.0,0.0,0.0,0.0,0.0,0.0,0.0,0.0,0.0,0.0,0.0,0.0,0.0,0.0,0.0,0.0,0.0,0.0,0.2752,0.462,0.4667,0.27,0.5604,0.5551,0.2796,0.1927,0.1997,0.2868,0.0,0.0,0.0,0.0,0.0,0.0,0.0,0.0,0.0,0.0,0.0,0.0,0.0,0.0,0.0,0.0,0.0,0.0,0.0,0.0,0.0,0.0,0.0,0.0,0.0,0.0,0.0,0.0,0.0,0.0,0.0,0.0,0.0,0.0,0.0,0.0,0.0,0.0,0.0,0.0,0.0,0.0,0.0,0.0,0.0,0.0,0.0,0.0,0.0,0.0,0.0,0.0,0.0,0.0,0.0,0.0,0.0,0.0,0.0,0.0,0.0,0.0,0.0,0.0,0.0,0.0,0.0,0.0,0.0,0.0,0.0,0.0,0.0,0.0,0.0,0.0,0.0,0.0,0.0,0.0,0.0,0.0,0.0,0.0,0.0,0.0,0.0,0.0,0.0,0.0,0.0,0.0,0.0,0.0,0.0,0.0,0.0,0.0,0.0,0.0,0.0,0.1697,0.2692,0.2685,0.2685,0.2689,0.2696,0.4305,0.4154,0.224,0.5414,0.5418,0.233,0.0746,0.1037,0.2946,0.48,0.0,0.0,0.0,0.0,0.0,0.0,0.0,0.0,0.0,0.0,0.0,0.0,0.0,0.0,0.0,0.0,0.0,0.0,0.0,0.0,0.0,0.0,0.0,0.0,0.0,0.0,0.0,0.0,0.0,0.0,0.0,0.0,0.0,0.0,0.0,0.0,0.0,0.0,0.0,0.0,0.0,0.0,0.0,0.0,0.0,0.0,0.0,0.0,0.0,0.0,0.0,0.0,0.0,0.0,0.0,0.0,0.0,0.0,0.0,0.0,0.0,0.0,0.0,0.0,0.0,0.0,0.0,0.0,0.0,0.0,0.0,0.0,0.0,0.0,0.0,0.0,0.0,0.0,0.0,0.0,0.0,0.0,0.0,0.0,0.0,0.0,0.0,0.0,0.0,0.0,0.0,0.0,0.0,0.0,0.0,0.0,0.0,0.0,0.0,0.0,0.1712,0.2719,0.2687,0.2685,0.2701,0.2733,0.3081,0.2331,0.035,0.0871,0.083,0.0394,0.0158,0.1269,0.3573,0.4929,0.7625,1.085,0.0,0.0,0.0,0.0,0.0,0.0,0.0,0.0,0.0,0.0,0.0,0.0,0.0,0.0,0.0,0.0,0.0,0.0,0.0,0.0,0.0,0.0,0.0,0.0,0.0,0.0,0.0,0.0,0.0,0.0,0.0,0.0,0.0,0.0,0.0,0.0,0.0,0.0,0.0,0.0,0.0,0.0,0.0,0.0,0.0,0.0,0.0,0.0,0.0,0.0,0.0,0.0,0.0,0.0,0.0,0.0,0.0,0.0,0.0,0.0,0.0,0.0,0.0,0.0,0.0,0.0,0.0,0.0,0.0,0.0,0.0,0.0,0.0,0.0,0.0,0.0,0.0,0.0,0.0,0.0,0.0,0.0,0.0,0.0,0.0,0.0,0.0,0.0,0.0,0.0,0.0,0.0,0.0,0.0,0.0,0.0,0.0,0.0,0.0725,0.1655,0.2755,0.2817,0.2826,0.2843,0.3923,0.3552,0.1664,0.0538,0.0,0.0,0.0,0.1853,0.5128,0.5714,0.7649,1.0312,1.0239,0.0,0.0,0.0,0.0,0.0,0.0,0.0,0.0,0.0,0.0,0.0,0.0,0.0,0.0,0.0,0.0,0.0,0.0,0.0,0.0,0.0,0.0,0.0,0.0,0.0,0.0,0.0,0.0,0.0,0.0,0.0,0.0,0.0,0.0,0.0,0.0,0.0,0.0,0.0,0.0,0.0,0.0,0.0,0.0,0.0,0.0,0.0,0.0,0.0,0.0,0.0,0.0,0.0,0.0,0.0,0.0,0.0,0.0,0.0,0.0,0.0,0.0,0.0,0.0,0.0,0.0,0.0,0.0,0.0,0.0,0.0,0.0,0.0,0.0,0.0,0.0,0.0,0.0,0.0,0.0,0.0,0.0,0.0,0.0,0.0,0.0,0.0,0.0,0.0,0.0,0.0,0.0,0.0,0.0,0.0,0.0,0.0,0.0,0.1033,0.345,0.2655,0.2583,0.3514,0.4056,0.3596,0.2157,0.073,0.0,0.0,0.0665,0.2903,0.6567,0.7118,0.8451,1.0325,1.1215,1.1491,1.1274,0.0,0.0,0.0,0.0,0.0,0.0,0.0,0.0,0.0,0.0,0.0,0.0,0.0,0.0,0.0,0.0,0.0,0.0,0.0,0.0,0.0,0.0,0.0,0.0,0.0,0.0,0.0,0.0,0.0,0.0,0.0,0.0,0.0,0.0,0.0,0.0,0.0,0.0,0.0,0.0,0.0,0.0,0.0,0.0,0.0,0.0,0.0,0.0,0.0,0.0,0.0,0.0,0.0,0.0,0.0,0.0,0.0,0.0,0.0,0.0,0.0,0.0,0.0,0.0,0.0,0.0,0.0,0.0,0.0,0.0,0.0,0.0,0.0,0.0,0.0,0.0,0.0,0.0,0.0,0.0,0.0,0.0,0.0,0.0,0.0,0.0,0.0,0.0,0.0,0.0,0.0,0.0,0.0,0.0,0.0,0.0,0.1554,0.5118,0.1948,0.1737,0.5189,0.2019,0.0238,0.017,0.0084,0.0,0.0089,0.2317,0.4717,0.7194,0.9315,1.1345,1.3104,1.2033,1.185,1.2149,1.1294,0.0,0.0,0.0,0.0,0.0,0.0,0.0,0.0,0.0,0.0,0.0,0.0,0.0,0.0,0.0,0.0,0.0,0.0,0.0,0.0,0.0,0.0,0.0,0.0,0.0,0.0,0.0,0.0,0.0,0.0,0.0,0.0,0.0,0.0,0.0,0.0,0.0,0.0,0.0,0.0,0.0,0.0,0.0,0.0,0.0,0.0,0.0,0.0,0.0,0.0,0.0,0.0,0.0,0.0,0.0,0.0,0.0,0.0,0.0,0.0,0.0,0.0,0.0,0.0,0.0,0.0,0.0,0.0,0.0,0.0,0.0,0.0,0.0,0.0,0.0,0.0,0.0,0.0,0.0,0.0,0.0699,0.0065,0.0,0.0,0.0,0.0,0.0,0.0,0.0,0.0,0.0,0.0,0.0,0.0,0.1095,0.2969,0.5676,0.4366,0.369,0.3816,0.1339,0.0,0.0,0.0,0.0,0.009,0.2435,0.4861,0.7235,0.9605,1.1916,1.3919,1.3003,1.2433,1.2101,1.1586,1.1253,0.0,0.0,0.0,0.0,0.0,0.0,0.0,0.0,0.0,0.0,0.0,0.0,0.0,0.0,0.0,0.0,0.0,0.0,0.0,0.0,0.0,0.0,0.0,0.0,0.0,0.0,0.0,0.0,0.0,0.0,0.0,0.0,0.0,0.0,0.0,0.0,0.0,0.0,0.0,0.0,0.0,0.0,0.0,0.0,0.0,0.0,0.0,0.0,0.0,0.0,0.0,0.0,0.0,0.0,0.0,0.0,0.0,0.0,0.0,0.0,0.0,0.0,0.0,0.0,0.0,0.0,0.0,0.0,0.0,0.0,0.0,0.0,0.0,0.0,0.0,0.0,0.0,0.154,0.075,0.0,0.0,0.0,0.0,0.0,0.0,0.0,0.0,0.0,0.0,0.0,0.0,0.0,0.0,0.1111,0.2693,0.4762,0.4726,0.3771,0.1959,0.066,0.0,0.0,0.0,0.0,0.0091,0.2466,0.446,0.6053,0.9294,1.1642,1.3146,1.3561,1.3214,1.24,1.2006,1.1782,1.1613,0.0,0.0,0.0,0.0,0.0,0.0,0.0,0.0,0.0,0.0,0.0,0.0,0.0,0.0,0.0,0.0,0.0,0.0,0.0,0.0,0.0,0.0,0.0,0.0,0.0,0.0,0.0,0.0,0.0,0.0,0.0,0.0,0.0,0.0,0.0,0.0,0.0,0.0,0.0,0.0,0.0,0.0,0.0,0.0,0.0,0.0,0.0,0.0,0.0,0.0,0.0,0.0,0.0,0.0,0.0,0.0,0.0,0.0,0.0,0.0,0.0,0.0,0.0,0.0,0.0,0.0,0.0,0.0,0.0,0.0,0.0,0.0,0.0,0.0,0.3466,0.191,0.0308,0.0,0.0,0.0,0.0,0.0,0.0,0.0,0.0,0.0,0.0,0.0,0.0,0.0,0.0,0.0,0.0076,0.0868,0.2593,0.2736,0.1884,0.0,0.0,0.0,0.0,0.0,0.0,0.0094,0.2509,0.3603,0.3785,0.8656,1.0769,1.0952,1.3443,1.3887,1.301,1.2491,1.2242,1.2181,0.0,0.0,0.0,0.0,0.0,0.0,0.0,0.0,0.0,0.0,0.0,0.0,0.0,0.0,0.0,0.0,0.0,0.0,0.0,0.0,0.0,0.0,0.0,0.0,0.0,0.0,0.0,0.0,0.0,0.0,0.0,0.0,0.0,0.0,0.0,0.0,0.0,0.0,0.0,0.0,0.0,0.0,0.0,0.0,0.0,0.0,0.0,0.0,0.0,0.0,0.0,0.0,0.0,0.0,0.0,0.0,0.0,0.0,0.0,0.0,0.0,0.0,0.0,0.0,0.0,0.0,0.0,0.0,0.0,0.0,0.0,0.0,0.0,0.466,0.2476,0.0555,0.0062,0.0,0.0,0.0,0.0,0.0,0.0,0.0,0.0,0.0,0.0,0.0,0.0,0.0,0.0,0.0,0.1209,0.2155,0.2701,0.287,0.204,0.0087,0.0,0.0,0.0,0.0,0.0,0.0094,0.2449,0.3556,0.3694,0.6819,0.8106,0.8198,0.8936,0.9052,0.8986,1.1945,1.1906,1.0144,0.0,0.0,0.0,0.0,0.0,0.0,0.0,0.0,0.0,0.0,0.0,0.0,0.0,0.0,0.0,0.0,0.0,0.0,0.0,0.0,0.0,0.0,0.0,0.0,0.0,0.0,0.0,0.0,0.0,0.0,0.0,0.0,0.0,0.0,0.0,0.0,0.0,0.0,0.0,0.0,0.0,0.0,0.0,0.0,0.0,0.0,0.0,0.0,0.0,0.0,0.0,0.0,0.0,0.0,0.0,0.0,0.0,0.0,0.0,0.0,0.0,0.0,0.0,0.0,0.0,0.0,0.0,0.0,0.0,0.0,0.0,0.0,0.0,0.3656,0.1604,0.0,0.0,0.0,0.0,0.0,0.0,0.0,0.0,0.0,0.0,0.0,0.0,0.0,0.0,0.0,0.0,0.0,0.0978,0.1543,0.1598,0.1696,0.1197,0.0,0.0,0.0,0.0,0.0,0.0,0.0,0.1428,0.2091,0.2179,0.4616,0.5745,0.5766,0.687,0.6707,0.5976,0.9518,0.9822,0.8497,1.0101,1.088,1.0922,1.0675,0.9329,0.7536,0.6654,0.0,0.0,0.0,0.0,0.0,0.0,0.0,0.0,0.0,0.0,0.0,0.0,0.0,0.0,0.0,0.0,0.0,0.0,0.0,0.0,0.0,0.0,0.0,0.0,0.0,0.0,0.0,0.0,0.0,0.0,0.0,0.0,0.0,0.0,0.0,0.0,0.0,0.0,0.0,0.0,0.0,0.0,0.0,0.0,0.0,0.0,0.0,0.0,0.0,0.0,0.0,0.0,0.0,0.0,0.0,0.0,0.0,0.0,0.0,0.0,0.0,0.0,0.0,0.0,0.0,0.0,0.2462,0.099,0.0,0.0,0.0,0.0,0.0,0.0,0.0,0.0,0.0,0.0,0.0,0.0,0.0,0.0,0.0163,0.0312,0.0298,0.0301,0.023,0.0,0.0,0.0,0.0,0.0,0.0,0.0,0.0,0.0,0.0,0.0,0.0,0.0098,0.2329,0.3399,0.3523,0.5815,0.544,0.3523,0.5692,0.6604,0.6851,0.8848,0.9604,0.9613,0.9881,0.8318,0.5824,0.4067,0.0,0.0,0.0,0.0,0.0,0.0,0.0,0.0,0.0,0.0,0.0,0.0,0.0,0.0,0.0,0.0,0.0,0.0,0.0,0.0,0.0,0.0,0.0,0.0,0.0,0.0,0.0,0.0,0.0,0.0,0.0,0.0,0.0,0.0,0.0,0.0,0.0,0.0,0.0,0.0,0.0,0.0,0.0,0.0,0.0,0.0,0.0,0.0,0.0,0.0,0.0,0.0,0.0,0.0,0.0,0.0,0.0,0.0,0.0,0.0,0.0,0.0,0.0,0.0,0.0,0.0,0.2287,0.1,0.0,0.0,0.0,0.0,0.0,0.0,0.0,0.0,0.0,0.0,0.0,0.0,0.0,0.0,0.1419,0.2323,0.2375,0.2272,0.1504,0.0085,0.0,0.0,0.0,0.0,0.0,0.0,0.0,0.0,0.0,0.0,0.0,0.0,0.0488,0.0783,0.0785,0.1272,0.118,0.0792,0.125,0.243,0.4355,0.8358,0.8575,0.6855,0.8748,0.6848,0.3341,0.2995,0.1557,0.0,0.0,0.0,0.0,0.0,0.0,0.0,0.0,0.0,0.0,0.0,0.0,0.0,0.0,0.0,0.0,0.0,0.0,0.0,0.0,0.0,0.0,0.0,0.0,0.0,0.0,0.0,0.0,0.0,0.0,0.0,0.0,0.0,0.0,0.0,0.0,0.0,0.0,0.0,0.0,0.0,0.0,0.0,0.0,0.0,0.0,0.0,0.0,0.0,0.0,0.0,0.0,0.0,0.0,0.0,0.0,0.0,0.0,0.0,0.0,0.0,0.0,0.0,0.0,0.0,0.1075,0.0517,0.0,0.0,0.0,0.0,0.0,0.0,0.0,0.0,0.0,0.0,0.0,0.0,0.0392,0.1255,0.2235,0.2768,0.2765,0.1882,0.0914,0.0,0.0,0.0,0.0,0.0,0.0,0.0,0.0,0.0,0.0,0.0,0.0,0.0,0.0,0.0,0.0,0.0,0.0,0.0,0.0,0.0668,0.1951,0.5419,0.5893,0.4982,0.7337,0.5984,0.317,0.3166,0.1755,0.0,0.0,0.0,0.0,0.0,0.0,0.0,0.0,0.0,0.0,0.0,0.0,0.0,0.0,0.0,0.0,0.0,0.0,0.0,0.0,0.0,0.0,0.0,0.0,0.0,0.0,0.0,0.0,0.0,0.0,0.0,0.0,0.0,0.0,0.0,0.0,0.0,0.0,0.0,0.0,0.0,0.0,0.0,0.0,0.0,0.0,0.0,0.0,0.0,0.0,0.0,0.0,0.0,0.0,0.0,0.0,0.0,0.0,0.0,0.0,0.0,0.0,0.0,0.0,0.0,0.0,0.0,0.0,0.0,0.0,0.0,0.0,0.0,0.0,0.0,0.0,0.0,0.0,0.0294,0.1403,0.3599,0.3416,0.3258,0.3282,0.1555,0.0349,0.0,0.0,0.0,0.0,0.0,0.0,0.0,0.0,0.0,0.0,0.0,0.0,0.0,0.0,0.0,0.0,0.0,0.0,0.0,0.0,0.0,0.0191,0.2151,0.2939,0.3173,0.5602,0.4867,0.2924,0.2887,0.1593,0.0,0.0,0.0,0.0,0.0,0.0,0.0,0.0,0.0,0.0,0.0,0.0,0.0,0.0,0.0,0.0,0.0,0.0,0.0,0.0,0.0,0.0,0.0,0.0,0.0,0.0,0.0,0.0,0.0,0.0,0.0,0.0,0.0,0.0,0.0,0.0,0.0,0.0,0.0,0.0,0.0,0.0,0.0,0.0,0.0,0.0,0.0,0.0,0.0,0.0,0.0,0.0,0.0,0.0,0.0,0.0,0.0,0.0,0.0,0.0,0.0,0.0,0.0,0.0,0.0,0.0,0.0,0.0,0.0,0.0,0.0,0.0,0.0,0.0,0.0,0.0,0.0,0.0,0.146,0.3855,0.7374,0.6094,0.5133,0.5285,0.3484,0.1722,0.0097,0.0,0.0,0.0,0.0,0.0,0.0,0.0,0.0,0.0,0.0,0.0,0.0,0.0,0.0,0.0,0.0,0.0,0.0,0.0,0.0,0.0,0.0285,0.0369,0.0718,0.3106,0.2428,0.0424,0.0431,0.0256,0.0,0.0,0.0,0.0,0.0,0.0,0.0,0.0,0.0,0.0,0.0,0.0,0.0,0.0,0.0,0.0,0.0,0.0,0.0,0.0,0.0,0.0,0.0,0.0,0.0,0.0,0.0,0.0,0.0,0.0,0.0,0.0,0.0,0.0,0.0,0.0,0.0,0.0,0.0,0.0,0.0,0.0,0.0,0.0,0.0,0.0,0.0,0.0,0.0,0.0,0.0,0.0,0.0,0.0,0.0,0.0,0.0,0.0,0.0,0.0,0.0,0.0,0.0,0.0,0.0,0.0,0.0,0.0,0.0,0.0,0.0,0.0,0.0,0.0,0.0,0.0,0.0,0.0,0.2579,0.5308,0.7905,0.7592,0.6739,0.554,0.3866,0.203,0.0098,0.0,0.0,0.0,0.0,0.0,0.0,0.0,0.0,0.0,0.0,0.0,0.0,0.0,0.0,0.0,0.0,0.0,0.0,0.0,0.0,0.0,0.0,0.0,0.0175,0.1128,0.0853,0.0,0.0,0.0,0.0,0.0,0.0,0.0,0.0,0.0,0.0,0.0,0.0,0.0,0.0,0.0,0.0,0.0,0.0,0.0,0.0,0.0,0.0,0.0,0.0,0.0,0.0,0.0,0.0,0.0,0.0,0.0,0.0,0.0,0.0,0.0,0.0,0.0,0.0,0.0,0.0,0.0,0.0,0.0,0.0,0.0,0.0,0.0,0.0,0.0,0.0,0.0,0.0,0.0,0.0,0.0,0.0,0.0,0.0,0.0,0.0,0.0,0.0,0.0,0.0,0.0,0.0,0.0,0.0,0.0,0.0,0.0,0.0,0.0,0.0,0.0,0.0,0.0,0.0,0.0,0.0404,0.1411,0.3823,0.6297,0.8568,0.8526,0.7504,0.5537,0.3847,0.2123,0.0098,0.0,0.0,0.0,0.0,0.0,0.0,0.0,0.0,0.0,0.0,0.0,0.0,0.0,0.0,0.0,0.0,0.0,0.0,0.0,0.0,0.0,0.0,0.0,0.0,0.0,0.0,0.008,0.0548,0.0395,0.0081,0.0577,0.0414,0.0,0.0,0.0,0.0,0.0,0.0,0.0,0.0,0.0,0.0,0.0,0.0,0.0,0.0,0.0,0.0,0.0,0.0,0.0,0.0,0.0,0.0,0.0,0.0,0.0,0.0,0.0,0.0,0.0,0.0,0.0,0.0,0.0,0.0,0.0,0.0,0.0,0.0,0.0,0.0,0.0,0.0,0.0,0.0,0.0,0.0,0.0,0.0,0.0,0.0,0.0,0.0,0.0,0.0,0.0,0.0,0.0,0.0,0.0,0.0,0.0,0.0,0.0,0.0,0.0,0.0,0.0,0.0,0.0,0.0,0.0,0.0,0.0,0.1344,0.4827,0.5362,0.6836,1.0313,0.9001,0.7293,0.5528,0.3681,0.1895,0.0098,0.0,0.0,0.0,0.0,0.0,0.0,0.0,0.0,0.0,0.0,0.0,0.0,0.0,0.0,0.0,0.0,0.0,0.0,0.0,0.0,0.0,0.0,0.0,0.0,0.0,0.0,0.0294,0.2027,0.1428,0.0301,0.2048,0.1451,0.0,0.0,0.0,0.0,0.0,0.0,0.0,0.0,0.0,0.0,0.0,0.0,0.0,0.0,0.0,0.0,0.0,0.0,0.0,0.0,0.0,0.0,0.0,0.0,0.0,0.0,0.0,0.0,0.0,0.0,0.0,0.0,0.0,0.0,0.0,0.0,0.0,0.0,0.0,0.0,0.0,0.0,0.0,0.0,0.0,0.0,0.0,0.0,0.0,0.0,0.0,0.0,0.0,0.0,0.0,0.0,0.0,0.0,0.0,0.0,0.0,0.0,0.0,0.0,0.0,0.0,0.0,0.0,0.0,0.0,0.0,0.0,0.1057,0.0,0.0,0.0,0.0,0.0,1.037,0.9236,0.7277,0.5622,0.3834,0.19,0.0681,0.0,0.0,0.0,0.0,0.0,0.0,0.0,0.0,0.0,0.0,0.0,0.0,0.0,0.0,0.0,0.0,0.0,0.0,0.0,0.0,0.0,0.0761,0.1781,0.0,0.1802,0.1864,0.2463,0.226,0.1653,0.1117,0.0453,0.0,0.0,0.0,0.0,0.0,0.0,0.0,0.0,0.0,0.0,0.0,0.0,0.0,0.0,0.0,0.0,0.0,0.0,0.0,0.0,0.0,0.0,0.0,0.0,0.0,0.0,0.0,0.0,0.0,0.0,0.0,0.0,0.0,0.0,0.0,0.0,0.0,0.0,0.0,0.0,0.0,0.0,0.0,0.0,0.0,0.0,0.0,0.0,0.0,0.0,0.0,0.0,0.0,0.0,0.0,0.0,0.0,0.0,0.0,0.0,0.0,0.0,0.0,0.0,0.0,0.0,0.0,0.0,0.0,0.0,0.0,0.0,0.0,0.0,0.0,0.0,0.0,0.0,0.0,1.0172,0.8126,0.7077,0.5426,0.2793,0.1541,0.066,0.0,0.0,0.0,0.0,0.0,0.0,0.0,0.0,0.0,0.0,0.0,0.0,0.0,0.0,0.0,0.0,0.0,0.0372,0.0992,0.0929,0.2085,0.0,0.4341,0.4561,0.4516,0.3859,0.3203,0.251,0.1356,0.0508,0.0,0.0,0.0,0.0,0.0,0.0,0.0,0.0,0.0,0.0,0.0,0.0,0.0,0.0,0.0,0.0,0.0,0.0,0.0,0.0,0.0,0.0,0.0,0.0,0.0,0.0,0.0,0.0,0.0,0.0,0.0,0.0,0.0,0.0,0.0,0.0,0.0,0.0,0.0,0.0,0.0,0.0,0.0,0.0,0.0,0.0,0.0,0.0,0.0,0.0,0.0,0.0,0.0,0.0,0.0,0.0,0.0,0.0,0.0,0.0,0.0,0.0,0.0,0.0,0.0,0.0,0.0,0.0,0.0,0.0,0.0,0.0,0.0,0.0,0.0,0.0,0.0,0.0,0.0,0.0,0.8278,0.8082,0.6452,0.2977,0.2726,0.1862,0.0,0.0,0.0,0.0,0.0,0.0,0.0,0.0,0.0,0.0,0.0,0.0,0.0,0.0,0.0,0.0,0.0,0.1037,0.2533,0.2669,0.3822,0.5623,0.7392,0.8046,0.7831,0.603,0.4135,0.255,0.2586,0.1372,0.0,0.0,0.0,0.0,0.0,0.0,0.0,0.0,0.0,0.0,0.0,0.0,0.0,0.0,0.0,0.0,0.0,0.0,0.0,0.0,0.0,0.0,0.0,0.0,0.0,0.0,0.0,0.0,0.0,0.0,0.0,0.0,0.0,0.0,0.0,0.0,0.0,0.0,0.0,0.0,0.0,0.0,0.0,0.0,0.0,0.0,0.0,0.0,0.0,0.0,0.0,0.0,0.0,0.0,0.0,0.0,0.0,0.0,0.0,0.0,0.0,0.0,0.0,0.0,0.0,0.0,0.0,0.0,0.0,0.0,0.0,0.0,0.0,0.0,0.0,0.0,0.0,0.0,0.0,0.0,1.0065,0.8747,0.7023,0.479,0.3445,0.1866,0.0,0.0,0.0,0.0,0.0,0.0,0.0,0.0,0.0,0.0,0.0,0.0,0.0,0.0,0.0,0.0,0.0,0.0244,0.0871,0.2212,0.3851,0.5643,0.7349,0.8864,0.951,0.6431,0.3318,0.072,0.0657,0.0376,0.0,0.0,0.0,0.0,0.0,0.0,0.0,0.0,0.0,0.0,0.0,0.0,0.0,0.0,0.0,0.0,0.0,0.0,0.0,0.0,0.0,0.0,0.0,0.0,0.0,0.0,0.0,0.0,0.0,0.0,0.0,0.0,0.0,0.0,0.0,0.0,0.0,0.0,0.0,0.0,0.0,0.0,0.0,0.0,0.0,0.0,0.0,0.0,0.0,0.0,0.0,0.0,0.0,0.0,0.0,0.0,0.0,0.0,0.0,0.0,0.0,0.0,0.0,0.0,0.0,0.0,0.0,0.0,0.0,0.0,0.0,0.0,0.0,0.0,0.0,0.0,0.0,0.0,0.0,0.0,0.0,0.9719,0.8382,0.6586,0.4852,0.3042,0.1189,0.0377,0.0,0.0,0.0,0.0,0.0,0.0,0.0,0.0,0.0,0.0,0.0,0.0,0.0,0.0,0.0,0.0458,0.1418,0.3283,0.5108,0.6914,0.8771,0.9001,0.8016,0.5202,0.2352,0.0,0.0,0.0,0.0,0.0,0.0,0.0,0.0,0.0,0.0,0.0,0.0,0.0,0.0,0.0,0.0,0.0,0.0,0.0,0.0,0.0,0.0,0.0,0.0,0.0,0.0,0.0,0.0,0.0,0.0,0.0,0.0,0.0,0.0,0.0,0.0,0.0,0.0,0.0,0.0,0.0,0.0,0.0,0.0,0.0,0.0,0.0,0.0,0.0,0.0,0.0,0.0,0.0,0.0,0.0,0.0,0.0,0.0,0.0,0.0,0.0,0.0,0.0,0.0,0.0,0.0,0.0,0.0,0.0,0.0,0.0,0.0,0.0,0.0,0.0,0.4804,0.6411,0.0,0.0,0.0,0.0,0.0,0.0,0.0,0.0,0.9908,0.8097,0.6564,0.476,0.2752,0.1142,0.0274,0.0,0.0,0.0,0.0,0.0,0.0,0.0,0.0,0.0,0.0,0.0,0.0,0.0,0.0,0.0939,0.2585,0.0,0.6558,0.8159,1.0097,0.8557,0.5314,0.3387,0.1502,0.0,0.0,0.0,0.0,0.0,0.0,0.0,0.0,0.0,0.0,0.0,0.0,0.0,0.0,0.0,0.0,0.0,0.0,0.0,0.0,0.0,0.0,0.0,0.0,0.0,0.0,0.0,0.0,0.0,0.0,0.0,0.0,0.0,0.0,0.0,0.0,0.0,0.0,0.0,0.0,0.0,0.0,0.0,0.0,0.0,0.0,0.0,0.0,0.0,0.0,0.0,0.0,0.0,0.0,0.0,0.0,0.0,0.0,0.0,0.0,0.0,0.0,0.0,0.0,0.0,0.0,0.0,0.0,0.0,0.0,0.0,0.0,0.0,0.0,0.0,0.7469,0.8209,0.0,0.0,0.0,0.0,0.0,0.0,0.0,0.0,0.0,0.8097,0.7698,0.6027,0.2752,0.2417,0.1484,0.0,0.0,0.0,0.0,0.0,0.0,0.0,0.0,0.0,0.0,0.0,0.0,0.0,0.0,0.0212,0.0841,0.4319,0.0,0.0,0.8128,0.7406,0.5334,0.3366,0.1482,0.0,0.0,0.0,0.0,0.0,0.0,0.0,0.0,0.0,0.0,0.0,0.0,0.0,0.0,0.0,0.0,0.0,0.0,0.0,0.0,0.0,0.0,0.0,0.0,0.0,0.0,0.0,0.0,0.0,0.0,0.0,0.0,0.0,0.0,0.0,0.0,0.0,0.0,0.0,0.0,0.0,0.0,0.0,0.0,0.0,0.0,0.0,0.0,0.0,0.0,0.0,0.0,0.0,0.0,0.0,0.0,0.0,0.0,0.0,0.0,0.0,0.0,0.0,0.0,0.0,0.0,0.0,0.0,0.0,0.0,0.0,0.0,0.4465,0.6349,0.8469,0.9543,1.0372,1.0914,1.0812,1.0717,0.0,0.0,0.0,0.0,0.0,0.0,0.9437,0.8501,0.7227,0.5492,0.3622,0.23,0.1374,0.0,0.0,0.0,0.0,0.0,0.0,0.0,0.0,0.0,0.0,0.0,0.0,0.0,0.0,0.0425,0.0,0.0,0.0,0.7436,0.6411,0.527,0.2275,0.0748,0.0,0.0,0.0,0.0,0.0,0.0,0.0,0.0,0.0,0.0,0.0,0.0,0.0,0.0,0.0,0.0,0.0,0.0,0.0,0.0,0.0,0.0,0.0,0.0,0.0,0.0,0.0,0.0,0.0,0.0,0.0,0.0,0.0,0.0,0.0,0.0,0.0,0.0,0.0,0.0,0.0,0.0,0.0,0.0,0.0,0.0,0.0,0.0,0.0,0.0,0.0,0.0,0.0,0.0,0.0,0.0,0.0,0.0,0.0,0.0,0.0,0.0,0.0,0.0,0.0,0.0,0.0,0.0,0.0,0.0,0.0,0.3919,0.6124,0.8354,0.9736,1.1256,1.1952,1.1487,1.109,1.086,0.0,0.0,0.0,0.0,0.0,0.0,0.0,0.0,0.0,0.0,0.0,0.0,0.0,0.089,0.0,0.0,0.0,0.0,0.0,0.0,0.0,0.0,0.0,0.0,0.0,0.0,0.0,0.0,0.0,0.0,0.0,0.0,0.5152,0.467,0.1163,0.0,0.0,0.0,0.0,0.0,0.0,0.0,0.0,0.0,0.0,0.0,0.0,0.0,0.0,0.0,0.0,0.0,0.0,0.0,0.0,0.0,0.0,0.0,0.0,0.0,0.0,0.0,0.0,0.0,0.0,0.0,0.0,0.0,0.0,0.0,0.0,0.0,0.0,0.0,0.0,0.0,0.0,0.0,0.0,0.0,0.0,0.0,0.0,0.0,0.0,0.0,0.0,0.0,0.0,0.0,0.0,0.0,0.0,0.0,0.0,0.0,0.0,0.0,0.0,0.0,0.0,0.0,0.0,0.0,0.0,0.0,0.0,0.5245,0.6092,0.786,1.1689,1.2363,1.2338,1.2013,1.1714,1.1314,0.0,0.0,0.0,0.0,0.0,0.0,0.0,0.0,0.0,0.0,0.0,0.0,0.0,0.0,0.0,0.0,0.0,0.0,0.0,0.0,0.0,0.0,0.0,0.0,0.0,0.0,0.0,0.0,0.0,0.0,0.0,0.0,0.318,0.2874,0.075,0.0,0.0,0.0,0.0,0.0,0.0,0.0,0.0,0.0,0.0,0.0,0.0,0.0,0.0,0.0,0.0,0.0,0.0,0.0,0.0,0.0,0.0,0.0,0.0,0.0,0.0,0.0,0.0,0.0,0.0,0.0,0.0,0.0,0.0,0.0,0.0,0.0,0.0,0.0,0.0,0.0,0.0,0.0,0.0,0.0,0.0,0.0,0.0,0.0,0.0,0.0,0.0,0.0,0.0,0.0,0.0,0.0,0.0,0.0,0.0,0.0,0.0,0.0,0.0,0.0,0.0,0.0,0.0,0.0,0.0,0.0,0.0,0.7379,0.8293,0.98,1.2206,1.2664,1.2698,1.2488,1.2277,1.1762,1.0806,1.0717,0.0,0.0,0.0,0.0,0.0,0.0,0.0,0.0,0.0,0.6248,0.4295,0.2582,0.0,0.0,0.0,0.0,0.0,0.0,0.0,0.0,0.0,0.0,0.0,0.0,0.0,0.0,0.0,0.0,0.0,0.0,0.0,0.2615,0.0647,0.0,0.0,0.0,0.0,0.0,0.0,0.0,0.0,0.0,0.0,0.0,0.0,0.0,0.0,0.0,0.0,0.0,0.0,0.0,0.0,0.0,0.0,0.0,0.0,0.0,0.0,0.0,0.0,0.0,0.0,0.0,0.0,0.0,0.0,0.0,0.0,0.0,0.0,0.0,0.0,0.0,0.0,0.0,0.0,0.0,0.0,0.0,0.0,0.0,0.0,0.0,0.0,0.0,0.0,0.0,0.0,0.0,0.0,0.0,0.0,0.0,0.0,0.0,0.0,0.0,0.0,0.0,0.0,0.0,0.0,0.0,0.8823,0.8467,0.9367,1.0651,1.2161,1.2637,1.2786,1.2671,1.2406,1.1904,1.1056,1.0819,0.0,0.0,0.0,0.0,0.0,0.0,0.0,0.0,0.0,0.7323,0.5371,0.3733,0.1922,0.0,0.0,0.0,0.0,0.0,0.0,0.0,0.0,0.0,0.0,0.0,0.0,0.0,0.0,0.0,0.0,0.0,0.0,0.0,0.0,0.0,0.0711,0.0141,0.037,0.0729,0.0187,0.0,0.0,0.0,0.0,0.0,0.0,0.0,0.0,0.0,0.0,0.0,0.0,0.0,0.0,0.0,0.0,0.0,0.0,0.0,0.0,0.0,0.0,0.0,0.0,0.0,0.0,0.0,0.0,0.0,0.0,0.0,0.0,0.0,0.0,0.0,0.0,0.0,0.0,0.0,0.0,0.0,0.0,0.0,0.0,0.0,0.0,0.0,0.0,0.0,0.0,0.0,0.0,0.0,0.0,0.0,0.0,0.0,0.0,0.0,0.0,0.0,0.0,0.0,0.0,0.0,0.7635,0.8233,0.8565,0.9519,1.1837,1.2325,1.2508,1.2501,1.1979,1.1619,1.1613,1.1063,0.0,0.0,0.0,0.0,0.0,0.0,0.0,1.0873,0.9216,0.7326,0.5371,0.3729,0.1892,0.0,0.0,0.0,0.0,0.0,0.0,0.0,0.0,0.0,0.0,0.0,0.0,0.0,0.0,0.0,0.0,0.0,0.0,0.0,0.0,0.0,0.0,0.0,0.1223,0.2346,0.0501,0.0,0.0,0.0,0.0,0.0,0.0,0.0,0.0,0.0,0.0,0.0,0.0,0.0,0.0,0.0,0.0,0.0,0.0,0.0,0.0,0.0,0.0,0.0,0.0,0.0,0.0,0.0,0.0,0.0,0.0,0.0,0.0,0.0,0.0,0.0,0.0,0.0,0.0,0.0,0.0,0.0,0.0,0.0,0.0,0.0,0.0,0.0,0.0,0.0,0.0,0.0,0.0,0.0,0.0,0.0,0.0,0.0,0.0,0.0,0.0,0.0,0.0,0.0,0.0,0.0,0.0,0.9431,0.9563,1.005,1.1355,1.1619,1.1898,1.2311,1.1918,1.1619,1.1619,1.107,0.0,0.0,0.0,0.0,0.0,0.0,1.1002,1.088,1.0562,0.8765,0.5376,0.5087,0.3181,0.0,0.0,0.0,0.0,0.0,0.0,0.0,0.0,0.0802,0.0,0.0,0.0,0.0,0.0,0.0,0.0,0.0,0.0,0.0,0.0,0.0,0.0,0.0,0.0,0.0,0.0149,0.0,0.0,0.0,0.0,0.0,0.0,0.0,0.0,0.0,0.0,0.0,0.0,0.0,0.0,0.0,0.0,0.0,0.0,0.0,0.0,0.0,0.0,0.0,0.0,0.0,0.0,0.0,0.0,0.0,0.0,0.0,0.0,0.0,0.0,0.0,0.0,0.0,0.0,0.0,0.0,0.0,0.0,0.0,0.0,0.0,0.0,0.0,0.0,0.0,0.0,0.0,0.0,0.0,0.0,0.0,0.0,0.0,0.0,0.0,0.0,0.0,0.0,0.0,0.0,0.0,0.0,0.9862,0.995,1.0152,1.0683,1.0921,1.128,1.1884,1.1552,1.1375,1.1599,1.1118,0.0,0.0,0.0,0.0,0.0,1.1261,1.1145,1.1118,1.1294,0.9888,0.6833,0.7055,0.515,0.139,0.1386,0.0838,0.0,0.0,0.0,0.0,0.0,0.1536,0.3996,0.0,0.0,0.4066,0.0,0.0,0.0,0.0,0.0,0.0,0.0,0.0,0.0,0.0,0.0,0.0,0.0,0.0,0.0,0.0,0.0,0.0,0.0,0.0,0.0,0.0,0.0,0.0,0.0,0.0,0.0,0.0,0.0,0.0,0.0,0.0,0.0,0.0,0.0,0.0,0.0,0.0,0.0,0.0,0.0,0.0,0.0,0.0,0.0,0.0,0.0,0.0,0.0,0.0,0.0,0.0,0.0,0.0,0.0,0.0,0.0,0.0,0.0,0.0,0.0,0.0,0.0,0.0,0.0,0.0,0.0,0.0,0.0,0.0,0.0,0.0,0.0,0.0,0.0,0.0,0.0,0.0,0.0,0.0,0.9883,0.9977,1.0004,1.0304,1.0697,1.128,1.0968,1.0948,1.1504,1.1185,0.0,0.0,0.0,0.0,1.1402,1.1274,1.1253,1.1389,1.1402,1.0671,0.9185,0.9309,0.7472,0.3835,0.3636,0.2379,0.0228,0.0077,0.0076,0.0219,0.0369,0.2575,0.6025,0.5881,0.5881,0.0,0.0,0.0,0.0,0.0,0.0,0.0,0.0,0.0,0.0,0.0,0.0,0.0,0.0,0.0,0.0,0.0,0.0,0.0,0.0,0.0,0.0,0.0,0.0,0.0,0.0,0.0,0.0,0.0,0.0,0.0,0.0,0.0,0.0,0.0,0.0,0.0,0.0,0.0,0.0,0.0,0.0,0.0,0.0,0.0,0.0,0.0,0.0,0.0,0.0,0.0,0.0,0.0,0.0,0.0,0.0,0.0,0.0,0.0,0.0,0.0,0.0,0.0,0.0,0.0,0.0,0.0,0.0,0.0,0.0,0.0,0.0,0.0,0.0,0.0,0.0,0.0,0.0,0.0,0.0,0.0,0.0,0.0,0.0,1.029,1.0473,1.0839,1.0785,1.0778,0.0,0.0,0.0,0.0,0.0,0.0,1.1558,1.1531,1.147,1.1396,1.1504,1.0699,0.8965,0.9239,0.8308,0.6048,0.4431,0.3304,0.264,0.085,0.0831,0.2328,0.3791,0.5825,0.8049,0.7977,0.7977,0.0,0.0,0.0,0.0,0.12,0.0418,0.0,0.0,0.0,0.0,0.0,0.0,0.0,0.0,0.0,0.0,0.0,0.0,0.0,0.0,0.0,0.0,0.0,0.0,0.0,0.0,0.0,0.0,0.0,0.0,0.0,0.0,0.0,0.0,0.0,0.0,0.0,0.0,0.0,0.0,0.0,0.0,0.0,0.0,0.0,0.0,0.0,0.0,0.0,0.0,0.0,0.0,0.0,0.0,0.0,0.0,0.0,0.0,0.0,0.0,0.0,0.0,0.0,0.0,0.0,0.0,0.0,0.0,0.0,0.0,0.0,0.0,0.0,0.0,0.0,0.0,0.0,0.0,0.0,0.0,0.0,0.0,0.0,0.0,1.0195,1.0344,1.05,1.0636,1.0717,0.0,0.0,0.0,0.0,0.0,0.0,1.1511,1.1586,1.1579,1.1497,1.1579,1.127,1.0662,1.0802,0.9517,0.6909,0.671,0.5494,0.3233,0.282,0.3705,0.5591,0.57,0.7443,0.9939,0.8992,0.0,0.0,0.0,0.0,0.0,0.1743,0.0757,0.0,0.0,0.0,0.0,0.0,0.0,0.0,0.0,0.0,0.0,0.0,0.0,0.0,0.0,0.0,0.0,0.0,0.0,0.0,0.0,0.0,0.0,0.0,0.0,0.0,0.0,0.0,0.0,0.0,0.0,0.0,0.0,0.0,0.0,0.0,0.0,0.0,0.0,0.0,0.0,0.0,0.0,0.0,0.0,0.0,0.0,0.0,0.0,0.0,0.0,0.0,0.0,0.0,0.0,0.0,0.0,0.0,0.0,0.0,0.0,0.0,0.0,0.0,0.0,0.0,0.0,0.0,0.0,0.0,0.0,0.0,0.0,0.0,0.0,0.0,0.0,0.0,0.0,0.0,0.0,0.0,0.0,0.0,0.0,0.0,0.0,0.0,0.0,1.1335,1.1355,1.1525,1.1633,1.1653,1.1653,1.1993,1.2698,1.2786,1.1114,0.7956,0.9645,0.7877,0.3508,0.5491,0.7221,0.8636,0.7271,0.8577,1.1397,0.9357,0.0,0.0,0.0,0.0,0.0,0.0,0.0,0.0,0.0,0.0,0.0,0.0,0.0,0.0,0.0,0.0,0.0,0.0,0.0,0.0,0.0,0.0,0.0,0.0,0.0,0.0,0.0,0.0,0.0,0.0,0.0,0.0,0.0,0.0,0.0,0.0,0.0,0.0,0.0,0.0,0.0,0.0,0.0,0.0,0.0,0.0,0.0,0.0,0.0,0.0,0.0,0.0,0.0,0.0,0.0,0.0,0.0,0.0,0.0,0.0,0.0,0.0,0.0,0.0,0.0,0.0,0.0,0.0,0.0,0.0,0.0,0.0,0.0,0.0,0.0,0.0,0.0,0.0,0.0,0.0,0.0,0.0,0.0,0.0,0.0,0.0,0.0,0.0,0.0,0.0,0.0,0.0,0.0,0.0,1.0921,1.107,1.1192,1.147,1.1674,1.1796,1.1796,1.204,1.2535,1.3051,1.3061,1.2717,1.145,0.9085,0.6046,0.798,0.882,0.8776,1.0107,1.1057,1.1397,0.943,0.0,0.0,0.0,0.0,0.0,0.0,0.0,0.0,0.0,0.0,0.0,0.0,0.0,0.0,0.0,0.0,0.0,0.0,0.0,0.0,0.0,0.0,0.0,0.0,0.0,0.0,0.0,0.0,0.0,0.0,0.0,0.0,0.0,0.0,0.0,0.0,0.0,0.0,0.0,0.0,0.0,0.0,0.0,0.0,0.0,0.0,0.0,0.0,0.0,0.0,0.0,0.0,0.0,0.0,0.0,0.0,0.0,0.0,0.0,0.0,0.0,0.0,0.0,0.0,0.0,0.0,0.0,0.0,0.0,0.0,0.0,0.0,0.0,0.0,0.0,0.0,0.0,0.0,0.0,0.0,0.0,0.0,0.0,0.0,0.0,0.0,0.0,0.0,0.0,0.0,0.0,0.0,0.0,0.0,1.0799,1.1015,1.1396,1.1545,1.1687,1.183,1.1993,1.2338,1.2861,1.3471,1.3342,1.2343,1.0959,1.0136,0.9839,1.0358,1.0474,1.0305,1.1253,1.1619,1.1397,0.0,0.0,0.0,0.0,0.0,0.0,0.0,0.0,0.0,0.0,0.0,0.0,0.0,0.0,0.0,0.0,0.0,0.0,0.0,0.0,0.0,0.0,0.0,0.0,0.0,0.0,0.0,0.0,0.0,0.0,0.0,0.0,0.0,0.0,0.0,0.0,0.0,0.0,0.0,0.0,0.0,0.0,0.0,0.0,0.0,0.0,0.0,0.0,0.0,0.0,0.0,0.0,0.0,0.0,0.0,0.0,0.0,0.0,0.0,0.0,0.0,0.0,0.0,0.0,0.0,0.0,0.0,0.0,0.0,0.0,0.0,0.0,0.0,0.0,0.0,0.0,0.0,0.0,0.0,0.0,0.0,0.0,0.0,0.0,0.0,0.0,0.0,0.0,0.0,0.0,0.0,0.0,0.0,0.0,0.0,1.0826,1.1077,1.1497,1.1579,1.1769,1.2088,1.2325,1.2739,1.3329,1.3966,1.3585,1.2172,1.1259,1.1547,1.28,1.2094,1.1721,1.1619,1.1619,1.1325,1.0743,0.0,0.0,0.0,0.0,0.0,0.0,0.0,0.0,0.0,0.0,0.0,0.0,0.0,0.0,0.0,0.0,0.0,0.0,0.0,0.0,0.0,0.0,0.0,0.0,0.0,0.0,0.0,0.0,0.0,0.0,0.0,0.0,0.0,0.0,0.0,0.0,0.0,0.0,0.0,0.0,0.0,0.0,0.0,0.0,0.0,0.0,0.0,0.0,0.0,0.0,0.0,0.0,0.0,0.0,0.0,0.0,0.0,0.0,0.0,0.0,0.0,0.0,0.0,0.0,0.0,0.0,0.0,0.0,0.0,0.0,0.0,0.0,0.0,0.0,0.0,0.0,0.0,0.0,0.0,0.0,0.0,0.0,0.0,0.0,0.0,0.0,0.0,0.0,0.0,0.0,0.0,0.0,0.0,0.0,1.0717,1.0731,1.0873,1.1179,1.147,1.2013,1.2861,1.2901,1.32,1.379,1.4543,1.4965,1.5052,1.4173,1.3532,1.3112,1.2508,1.2013,1.1619,1.1619,1.0593,0.8776,0.6821,0.0,0.0,0.0,0.0,0.0,0.0,0.0,0.0,0.0,0.0,0.0,0.0,0.0,0.0,0.0,0.0,0.0,0.0,0.0,0.0,0.0,0.0,0.0,0.0,0.0,0.0,0.0,0.0,0.0,0.0,0.0,0.0,0.0,0.0,0.0,0.0,0.0,0.0,0.0,0.0,0.0,0.0,0.0,0.0,0.0,0.0,0.0,0.0,0.0,0.0,0.0,0.0,0.0,0.0,0.0,0.0,0.0,0.0,0.0,0.0,0.0,0.0,0.0,0.0,0.0,0.0,0.0,0.0,0.0,0.0,0.0,0.0,0.0,0.0,0.0,0.0,0.0,0.0,0.0,0.0,0.0,0.0,0.0,0.0,0.0,0.0,0.0,0.0,0.0,0.0,0.0,0.0,0.0,1.0717,1.0717,1.0894,1.1287,1.1416,1.185,1.2657,1.3315,1.3946,1.4543,1.5106,1.5343,1.5248,1.4163,1.3383,1.2868,1.2176,1.1062,0.9872,1.1108,0.9814,0.6821,0.6064,0.5276,0.0,0.0,0.0,0.0,0.0,0.0,0.0,0.0,0.168,0.168,0.168,0.168,0.1478,0.0336,0.0,0.0,0.0,0.0,0.0,0.0,0.0,0.0,0.0,0.0,0.0,0.0,0.0,0.0,0.0,0.0,0.0,0.0,0.0,0.0,0.0,0.0,0.0,0.0,0.0,0.0,0.0,0.0,0.0,0.0,0.0,0.0,0.0,0.0,0.0,0.0,0.0,0.0,0.0,0.0,0.0,0.0,0.0,0.0,0.0,0.0,0.0,0.0,0.0,0.0,0.0,0.0,0.0,0.0,0.0,0.0,0.0,0.0,0.0,0.0,0.0,0.0,0.0,0.0,0.0,0.0,0.0,0.0,0.0,0.0,0.0,0.0,0.0,0.0,0.0,0.0,0.0,0.0,1.0717,1.0717,1.088,1.1233,1.1341,1.1721,1.242,1.3464,1.4251,1.476,1.535,1.5432,1.5025,1.4109,1.3444,1.2983,1.2332,1.0938,0.9081,1.0322,0.8558,0.489,0.4917,0.484,0.0,0.0,0.0,0.0,0.0,0.0,0.0,0.0,0.235,0.1948,0.2551,0.2283,0.1613,0.0336,0.0,0.0,0.0,0.0,0.0,0.0,0.0,0.0,0.0,0.0,0.0,0.0,0.0,0.0,0.0,0.0,0.0,0.0,0.0,0.0,0.0,0.0,0.0,0.0,0.0,0.0,0.0,0.0,0.0,0.0,0.0,0.0,0.0,0.0,0.0,0.0,0.0,0.0,0.0,0.0,0.0,0.0,0.0,0.0,0.0,0.0,0.0,0.0,0.0,0.0,0.0,0.0,0.0,0.0,0.0,0.0,0.0,0.0,0.0,0.0,0.0,0.0,0.0,0.0,0.0,0.0,0.0,0.0,0.9984,0.9984,1.0304,0.0,0.0,0.0,0.0,0.0,1.0717,1.0717,1.0717,1.0717,1.0785,1.0873,1.1233,1.1667,1.2264,1.3295,1.398,1.4306,1.5194,1.5323,1.4719,1.4428,1.4048,1.36,1.3159,1.174,0.9607,0.9501,0.6933,0.2939,0.2939,0.2979,0.3116,0.0,0.0,0.0,0.0,0.0,0.0,0.0,0.1545,0.0336,0.2148,0.1478,0.0,0.0,0.0,0.0,0.0,0.0,0.0,0.0,0.0,0.0,0.0,0.0,0.0,0.0,0.0,0.0,0.0,0.0,0.0,0.0,0.0,0.0,0.0,0.0,0.0,0.0,0.0,0.0,0.0,0.0,0.0,0.0,0.0,0.0,0.0,0.0,0.0,0.0,0.0,0.0,0.0,0.0,0.0,0.0,0.0,0.0,0.0,0.0,0.0,0.0,0.0,0.0,0.0,0.0,0.0,0.0,0.0,0.0,0.0,0.0,0.0,0.0,0.0,0.0,0.0,0.0,0.0,0.0,0.0,0.0,0.989,0.989,1.0059,0.0,0.0,0.0,0.0,0.0,0.0,1.0717,1.0717,1.0717,1.0744,1.0785,1.0907,1.1165,1.1341,1.2162,1.3308,1.4774,1.493,1.4645,1.3953,1.3648,1.3322,1.2996,1.2969,1.1635,0.938,1.0732,0.884,0.5043,0.6515,0.6945,0.6637,0.0,0.0,0.0,0.0,0.0,0.0,0.0,0.0,0.0,0.2954,0.2299,0.1633,0.0405,0.0,0.0,0.0,0.0,0.0,0.0,0.0,0.0,0.0,0.0,0.0,0.0,0.0,0.0,0.0,0.0,0.0,0.0,0.0,0.0,0.0,0.0,0.0,0.0,0.0,0.0,0.0,0.0,0.0,0.0,0.0,0.0,0.0,0.0,0.0,0.0,0.0,0.0,0.0,0.0,0.0,0.0,0.0,0.0,0.0,0.0,0.0,0.0,0.0,0.0,0.0,0.0,0.0,0.0,0.0,0.0,0.0,0.0,0.0,0.0,0.0,0.0,0.0,0.0,0.0,0.0,0.0,0.0,0.9822,0.9822,0.9896,1.0107,0.0,0.0,0.0,0.0,1.0717,1.0717,1.0717,1.0717,1.0717,1.0717,1.0806,1.09,1.1143,1.1945,1.2813,1.3817,1.4021,1.3797,1.3186,1.3485,1.3492,1.3281,1.3736,1.2439,0.9907,1.1042,0.9376,0.6111,0.7394,0.8269,0.8566,0.0,0.0,0.0,0.0,0.0,0.0,0.0,0.0,0.0,0.389,0.2768,0.1563,0.1213,0.0535,0.0,0.0,0.0,0.0,0.0,0.0,0.0,0.0,0.0,0.0,0.0,0.0,0.0,0.0,0.0,0.0,0.0,0.0,0.0,0.0,0.0,0.0,0.0,0.0,0.0,0.0,0.0,0.0,0.0,0.0,0.0,0.0,0.0,0.0,0.0,0.0,0.0,0.0,0.0,0.0,0.0,0.0,0.0,0.0,0.0,0.0,0.0,0.0,0.0,0.0,0.0,0.0,0.0,0.0,0.0,0.0,0.0,0.0,0.0,0.0,0.0,0.9612,0.9625,0.0,0.0,0.0,0.0,0.9822,0.9822,0.9883,1.0086,0.0,0.0,0.0,0.0,0.0,0.0,1.0717,1.0717,1.0717,1.0717,1.0744,1.1036,1.1626,1.2264,1.2386,1.2053,1.2725,1.2881,1.2508,1.3675,1.4163,1.4109,1.4936,1.3701,1.0906,1.0905,0.9231,0.6741,0.6919,0.7969,0.934,0.9034,0.0,0.0,0.0,0.0,0.0,0.0,0.0,0.0,0.4492,0.262,0.0337,0.1948,0.1308,0.0,0.0,0.0,0.0,0.0,0.0,0.0,0.0,0.0,0.0,0.0,0.0,0.0,0.0,0.0,0.0,0.0,0.0,0.0,0.0,0.0,0.0,0.0,0.0,0.0,0.0,0.0,0.0,0.0,0.0,0.0,0.0,0.0,0.0,0.0,0.0,0.0,0.0,0.0,0.0,0.0,0.0,0.0,0.0,0.0,0.0,0.0,0.0,0.0,0.0,0.0,0.0,0.0,0.0,0.0,0.0,0.0,0.0,0.0,0.0,0.0,0.9646,0.9754,0.0,0.0,0.0,0.0,0.0,0.9822,0.9849,0.0,0.0,0.0,0.0,0.0,0.0,0.0,1.0717,1.0717,1.0717,1.0717,1.0941,1.1294,1.1775,1.1599,1.145,1.1355,1.2108,1.2427,1.2352,1.32,1.3763,1.4089,1.4401,1.3834,1.2662,1.2159,1.129,1.0342,1.0705,1.0846,1.0658,0.9407,0.8544,0.0,0.0,0.0,0.0,0.0,0.0,0.0,0.1948,0.061,0.0068,0.0472,0.0334,0.0,0.0,0.0,0.0,0.0,0.0,0.0,0.0,0.0,0.0,0.0,0.0,0.0,0.0,0.0,0.0,0.0,0.0,0.0,0.0,0.0,0.0,0.0,0.0,0.0,0.0,0.0,0.0,0.0,0.0,0.0,0.0,0.0,0.0,0.0,0.0,0.0,0.0,0.0,0.0,0.0,0.0,0.0,0.0,0.0,0.0,0.0,0.0,0.0,0.0,0.0,0.0,0.0,0.0,0.0,0.0,0.0,0.0,0.0,0.0,0.0,0.0,0.0,0.0,0.0,0.0,0.0,0.0,0.0,0.0,0.0,0.0,0.0,0.0,0.0,0.0,0.0,1.0717,1.0717,1.0751,1.0759,1.1043,1.124,1.1332,1.1246,1.109,1.0948,1.1348,1.1762,1.2196,1.3017,1.3715,1.4292,1.4516,1.4122,1.3247,1.2725,1.2155,1.1626,1.1938,1.183,1.1426,1.0564,0.9924,0.9259,0.8256,0.0,0.0,0.0,0.0,0.0,0.0,0.0,0.1492,0.2356,0.1332,0.0,0.0,0.0,0.0,0.0,0.0,0.0,0.0,0.0,0.0,0.0,0.0,0.0,0.0,0.0,0.0,0.0,0.0,0.0,0.0,0.0,0.0,0.0,0.0,0.0,0.0,0.0,0.0,0.0,0.0,0.0,0.0,0.0,0.0,0.0,0.0,0.0,0.0,0.0,0.0,0.0,0.0,0.0,0.0,0.0,0.0,0.0,0.0,0.0,0.0,0.0,0.0,0.0,0.0,0.0,0.0,0.0,0.0,0.0,0.0,0.0,0.0,0.0,0.0,0.0,0.0,0.0,0.0,0.0,0.0,0.0,0.0,0.0,0.0,0.0,0.0,0.0,1.067,1.0704,1.0812,1.0948,1.1111,1.1145,1.1035,1.1138,1.1043,1.0799,1.0772,1.1274,1.2347,1.3017,1.3804,1.4597,1.4719,1.4251,1.3322,1.2773,1.221,1.1694,1.1877,1.1837,1.1681,1.1708,1.1382,1.0826,1.0765,1.0717,1.0452,0.8634,0.0,0.0,0.0,0.0,0.3421,0.4615,0.2824,0.039,0.0067,0.0,0.0,0.0,0.0,0.0,0.0,0.0,0.0,0.0,0.0,0.0,0.0,0.0,0.0,0.0,0.0,0.0,0.0,0.0,0.0,0.0,0.0,0.0,0.0,0.0,0.0,0.0,0.0,0.0,0.0,0.0,0.0,0.0,0.0,0.0,0.0,0.0,0.0,0.0,0.0,0.0,0.0,0.0,0.0,0.0,0.0,0.0,0.0,0.0,0.0,0.0,0.0,0.0,0.0,0.0,0.0,0.0,0.0,0.0,0.0,0.0,0.0,0.0,0.0,0.0,0.0,0.0,0.9822,0.9829,0.0,0.0,1.0004,1.0044,1.0229,1.0371,1.0514,0.0,0.0,1.1314,1.1226,1.1335,1.1708,1.1348,1.1214,1.1104,1.0982,1.164,1.3024,1.3146,1.3817,1.4882,1.4265,1.3702,1.3139,1.2176,1.1497,1.1022,1.1369,1.1314,1.1008,1.1206,1.1043,1.0751,1.0724,1.0717,1.0452,0.8634,0.803,0.0,0.0,0.0,0.4748,0.3437,0.2735,0.2013,0.0407,0.0,0.0,0.0,0.0,0.0,0.0,0.0,0.0,0.0,0.0,0.0,0.0,0.0,0.0,0.0,0.0,0.0,0.0,0.0,0.0,0.0,0.0,0.0,0.0,0.0,0.0,0.0,0.0,0.0,0.0,0.0,0.0,0.0,0.0,0.0,0.0,0.0,0.0,0.0,0.0,0.0,0.0,0.0,0.0,0.0,0.0,0.0,0.0,0.0,0.0,0.0,0.0,0.0,0.0,0.0,0.0,0.0,0.0,0.0,0.0,0.0,0.0,0.0,0.0,0.0,0.0,0.0,0.0,0.9822,0.9822,0.9883,0.9896,0.9977,1.0051,1.0249,1.048,1.0555,1.0758,1.1124,1.0995,1.105,1.1258,1.1056,1.0914,1.0914,1.0853,1.1714,1.3431,1.3512,1.4231,1.5425,1.4509,1.3804,1.3227,1.2094,1.1362,1.0894,1.109,1.1212,1.1301,1.1118,1.1063,1.1063,1.0812,1.0717,1.0585,0.9775,0.951,0.9371,0.864,0.0,0.0,0.0,0.3465,0.2313,0.0495,0.0,0.0,0.0,0.0,0.0,0.0,0.0,0.0,0.0,0.0,0.0,0.0,0.0,0.0,0.0,0.0,0.0,0.0,0.0,0.0,0.0,0.0,0.0,0.0,0.0,0.0,0.0,0.0,0.0,0.0,0.0,0.0,0.0,0.0,0.0,0.0,0.0,0.0,0.0,0.0,0.0,0.0,0.0,0.0,0.0,0.0,0.0,0.0,0.0,0.0,0.0,0.0,0.0,0.0,0.0,0.0,0.0,0.0,0.0,0.0,0.0,0.0,0.0,0.0,0.0,0.0,0.0,0.0,0.9822,0.9822,0.0,0.0,0.0,0.9963,1.0161,1.0419,1.0507,1.0636,1.0759,1.0758,1.0772,1.082,1.0778,1.0717,1.0717,1.0799,1.183,1.3743,1.3926,1.4814,1.6205,1.512,1.4245,1.3498,1.2338,1.1647,1.1321,1.1097,1.1206,1.1477,1.119,1.1287,1.1402,1.1023,1.0867,1.0819,1.0744,1.0717,1.0717,1.0717,0.9775,0.0,0.0,0.0,0.2918,0.1135,0.0,0.0529,0.0084,0.0,0.0,0.0,0.0,0.0,0.0,0.0,0.0,0.0,0.0,0.0,0.0,0.0,0.0,0.0,0.0,0.0,0.0,0.0,0.0,0.0,0.0,0.0,0.0,0.0,0.0,0.0,0.0,0.0,0.0,0.0,0.0,0.0,0.0,0.0,0.0,0.0,0.0,0.0,0.0,0.0,0.0,0.0,0.0,0.0,0.0,0.0,0.0,0.0,0.0,0.0,0.0,0.0,0.0,0.0,0.0,0.0,0.0,0.0,0.0,0.0,0.0,0.0,0.0,0.0,0.9822,0.9822,0.9822,0.9822,0.9829,0.9903,1.012,1.0283,1.0555,1.0649,1.0521,1.0649,0.0,1.0731,1.0724,1.0717,1.0717,1.1002,1.2135,1.4055,1.434,1.5499,1.7283,1.6096,1.4997,1.3966,1.2908,1.244,1.2345,1.1491,1.1165,1.1226,1.1633,1.1708,1.1586,1.1416,1.126,1.1097,1.0819,1.0717,1.0717,1.0717,1.0651,1.022,0.0,0.0,0.0,0.283,0.2339,0.0,0.0373,0.0,0.0,0.0,0.0,0.0,0.0,0.0,0.0,0.0,0.0,0.0,0.0,0.0,0.0,0.0,0.0,0.0,0.0,0.0,0.0,0.0,0.0,0.0,0.0,0.0,0.0,0.0,0.0,0.0,0.0,0.0,0.0,0.0,0.0,0.0,0.0,0.0,0.0,0.0,0.0,0.0,0.0,0.0,0.0,0.0,0.0,0.0,0.0,0.0,0.0,0.0,0.0,0.0,0.0,0.0,0.0,0.0,0.0,0.0,0.0,0.0,0.0,0.0,0.0,0.0,0.0,0.0,0.9903,1.0005,1.0107,1.0168,1.0222,1.0276,1.0466,1.0548,1.0493,1.0636,1.0717,1.0717,1.0717,1.0717,1.0717,1.0826,1.1728,1.337,1.3763,1.4624,1.5832,1.5398,1.4943,1.4394,1.2759,1.202,1.1891,1.1369,1.1466,1.1714,1.1491,1.1674,1.1993,1.1552,1.1355,1.1294,1.1185,1.1023,1.0799,1.0799,1.0799,1.0353,0.8552,0.6683,0.5175,0.4548,0.0,0.0,0.1905,0.0842,0.0,0.0,0.0,0.0,0.0,0.0,0.0,0.0,0.0,0.0,0.0,0.0,0.0,0.0,0.0,0.0,0.0,0.0,0.0,0.0,0.0,0.0,0.0,0.0,0.0,0.0079,0.1184,0.127,0.0,0.0,0.0,0.0,0.0,0.0,0.0,0.0,0.0,0.0,0.0,0.0,0.0,0.0,0.0,0.0,0.0,0.0,0.0,0.0,0.0,0.0,0.0,0.0,0.0,0.0,0.0,0.0,0.0,0.0,0.9822,0.9822,0.9822,0.9822,0.9822,0.0,0.0,0.0,0.0,1.0188,1.0337,1.0351,1.0351,1.0351,1.0487,1.0548,1.0493,1.0636,1.0717,1.0717,1.0717,1.0717,1.0717,1.0819,1.1531,1.2813,1.322,1.3939,1.4875,1.4421,1.4496,1.4869,1.3424,1.2698,1.2467,1.1857,1.1911,1.2345,1.2142,1.2311,1.261,1.221,1.1938,1.1714,1.1416,1.1151,1.0873,1.082,1.0806,1.0426,0.9211,0.8005,0.696,0.636,0.4894,0.3379,0.0,0.0,0.0,0.0,0.0,0.0,0.0,0.0,0.0,0.0,0.0,0.0,0.0,0.0,0.0,0.0,0.0,0.0,0.0,0.0,0.0,0.0,0.0,0.0,0.0,0.0,0.0,0.0078,0.1845,0.2012,0.0079,0.0,0.0,0.0,0.0,0.0,0.0,0.0,0.0,0.0,0.0,0.0,0.0,0.0,0.0,0.0,0.0,0.0,0.0,0.0,0.0,0.0,0.0,0.0,0.0,0.0,0.0,0.9822,0.9822,0.9822,0.9822,0.9829,0.9829,0.9829,0.9836,0.0,0.0,0.0,0.0,0.0,1.0514,1.0521,1.0514,1.0493,1.0636,1.0649,1.05,1.0636,1.0717,1.0717,1.0717,1.0717,1.0717,1.1009,1.1599,1.2467,1.2779,1.3546,1.4618,1.3322,1.3709,1.5309,1.4841,1.4496,1.417,1.2963,1.2684,1.3051,1.3593,1.3641,1.341,1.3403,1.303,1.24,1.1518,1.1118,1.0887,1.0778,1.0724,1.0697,1.0541,1.05,1.0104,0.0,0.0,0.0,0.3178,0.0,0.0,0.0,0.0,0.0,0.0,0.0,0.0,0.0,0.0,0.0,0.0,0.0,0.0,0.0,0.0,0.0,0.0,0.0,0.0,0.0,0.0,0.0,0.0,0.0,0.2037,0.0076,0.1813,0.1965,0.0076,0.0,0.0,0.0,0.0,0.0,0.0,0.0,0.0,0.0,0.0,0.0,0.0,0.0,0.0,0.0,0.0,0.0,0.0,0.0,0.0,0.0,0.0,0.0,0.0,0.0,0.9822,0.9822,0.9822,0.9822,0.9856,0.9909,0.9923,1.0025,0.0,0.0,0.0,1.0514,1.0962,1.1267,1.1301,1.1206,1.0955,1.0521,1.0636,1.0649,1.05,1.0636,1.0717,1.0717,1.0717,1.0717,1.0717,1.0799,1.1077,1.1538,1.185,1.2393,1.3119,1.3071,1.3268,1.358,1.2691,1.2834,1.3553,1.2454,1.2651,1.3546,1.3057,1.3227,1.3688,1.3478,1.3363,1.3247,1.2773,1.2305,1.1796,1.1104,1.082,1.0786,1.0704,1.0656,1.0524,1.0056,0.0,0.0,0.0,0.0,0.0,0.0,0.0,0.0,0.0,0.0,0.0,0.0,0.0,0.0,0.0,0.0,0.0,0.0,0.0,0.0,0.0,0.0,0.0,0.0,0.0,0.0,0.0,0.1814,0.2039,0.0074,0.0525,0.053,0.0,0.0,0.0,0.0,0.0,0.0,0.0,0.0,0.0,0.0,0.0,0.0,0.0,0.0,0.0,0.0,0.0,0.0,0.0,0.0,0.0,0.0,0.0,0.0,0.0,0.9836,0.9869,0.9856,0.9856,1.0019,1.0134,1.0222,1.029,1.0337,0.0,0.0,0.0,1.105,1.1626,1.1911,1.1721,1.1511,1.1212,1.0799,1.0738,1.0677,1.0588,1.067,1.0717,1.0717,1.0717,1.0717,1.0717,1.0717,1.0806,1.0982,1.1158,1.1497,1.1945,1.2088,1.2244,1.2352,1.1613,1.204,1.3186,1.2813,1.3254,1.4089,1.3817,1.4041,1.4475,1.4299,1.4217,1.4095,1.3478,1.2745,1.1965,1.1123,1.088,1.086,1.0839,1.0772,1.0717,1.0717,0.9371,0.7754,0.6726,0.0,0.0,0.1547,0.1052,0.0,0.0,0.0,0.0,0.0,0.0,0.0,0.0,0.0,0.0,0.0,0.0,0.0,0.0,0.0,0.0,0.0,0.0,0.0,0.0,0.177,0.2415,0.129,0.0437,0.0,0.0,0.0,0.0,0.0,0.0,0.0,0.0,0.0,0.0,0.0,0.0,0.0,0.0,0.0,0.0,0.0,0.0,0.0,0.0,0.0,0.0,0.0,0.0,0.0,0.0168,0.0,0.9869,0.997,1.0004,1.0304,1.0514,1.0582,1.069,1.0751,0.0,1.0839,1.1172,1.1775,1.2277,1.2413,1.2013,1.1681,1.1402,1.1199,1.0928,1.0765,1.0744,1.0758,1.0751,1.0717,1.0738,1.0738,1.0717,1.0717,1.0717,1.0717,1.0717,1.086,1.1104,1.0839,1.1016,1.1504,1.1301,1.183,1.2868,1.3492,1.4075,1.4618,1.516,1.5404,1.5459,1.5459,1.5289,1.4909,1.3858,1.2813,1.185,1.119,1.0968,1.0927,1.0907,1.0853,1.0724,1.0744,0.9528,0.8293,0.8059,0.6769,0.0,0.3402,0.2904,0.2423,0.0,0.0,0.0,0.0,0.0,0.0,0.0,0.0,0.0,0.0,0.0,0.0,0.0,0.0,0.0,0.0,0.0,0.0,0.0,0.1606,0.2585,0.259,0.0911,0.0,0.0,0.0,0.0,0.0,0.0,0.0,0.0,0.0217,0.0293,0.0297,0.0297,0.0301,0.0308,0.0077,0.0,0.0,0.0,0.0,0.0,0.0,0.0,0.0,0.0,0.0168,0.0589,0.9829,0.9842,0.9944,1.0188,1.0378,1.0656,1.1138,1.1138,1.1287,1.1864,1.2169,1.2569,1.3173,1.3119,1.3003,1.2915,1.242,1.1898,1.1382,1.1179,1.1023,1.084,1.1016,1.0962,1.0724,1.0839,1.0846,1.0717,1.0717,1.0717,1.0717,1.0717,1.0751,1.0806,1.0744,1.0785,1.0921,1.1348,1.1667,1.1952,1.2793,1.3838,1.4896,1.5011,1.535,1.5764,1.5764,1.573,1.552,1.4475,1.3512,1.2637,0.0,0.0,0.0,1.1158,1.0928,1.0744,1.0806,1.0631,0.9973,0.8397,0.0,0.0,0.5339,0.5014,0.5021,0.0,0.0,0.0,0.0,0.0,0.0,0.0,0.0,0.0,0.0,0.0,0.0,0.0,0.0,0.0,0.0,0.0,0.0,0.0,0.0343,0.0554,0.056,0.021,0.0,0.0,0.0,0.0,0.0,0.0,0.0,0.0,0.1575,0.232,0.2299,0.2299,0.2318,0.2276,0.0691,0.0,0.0,0.0,0.0,0.0,0.0,0.0,0.0,0.0,0.1169,0.252,0.9849,0.9998,1.0229,1.046,1.0744,1.1118,1.1647,1.1782,1.1993,1.2447,1.2963,1.3342,1.3498,1.3512,1.3356,1.2983,1.2474,1.1986,1.1538,1.1294,1.1131,1.1056,1.1056,1.1056,1.1056,1.0907,1.0867,1.0941,1.0792,1.0717,1.0717,1.0717,1.0643,1.0514,1.0731,1.0711,1.0541,1.1219,1.1552,1.1728,1.3003,1.4007,1.4787,1.5242,1.5689,1.6069,1.5995,1.5825,1.5472,1.4421,1.3722,0.0,1.2325,1.1904,1.1708,0.0,1.1348,1.1056,0.0,0.0,0.0,0.9924,0.0,0.0,0.0,0.6859,0.6522,0.0,0.0,0.0,0.0,0.0,0.0,0.0,0.0,0.0,0.0,0.0,0.0,0.0,0.0,0.0,0.0,0.0,0.0,0.0,0.0,0.0409,0.1303,0.0481,0.0413,0.1317,0.0486,0.0416,0.1317,0.1326,0.182,0.273,0.3754,0.4231,0.4213,0.4314,0.4359,0.4265,0.3313,0.2359,0.1542,0.2556,0.2425,0.1427,0.0404,0.0,0.0163,0.1152,0.223,0.3383,0.9883,1.0134,1.0466,1.0643,1.107,1.1545,1.1993,1.2311,1.2596,1.2868,1.3478,1.3824,1.3675,1.3743,1.3614,1.3159,1.2467,1.2033,1.1965,1.1518,1.1226,1.1234,1.1138,1.1165,1.126,1.0962,1.0907,1.1124,1.0853,1.0717,1.0717,1.0717,1.0595,1.0378,1.0711,1.0724,1.0534,1.1138,1.1558,1.1959,1.3403,1.4109,1.4407,1.5391,1.592,1.613,1.6096,1.5791,1.5269,1.4326,1.3858,1.3505,1.2569,1.2196,0.0,0.0,0.0,0.0,0.0,0.0,0.0,0.0,0.0,1.0635,0.0,0.0,0.0,0.0,0.0,0.0,0.0,0.0,0.0,0.0,0.0,0.0,0.0,0.0,0.0,0.0,0.0,0.0,0.0,0.0,0.0,0.0,0.0,0.0605,0.2081,0.0807,0.0676,0.2117,0.0752,0.0889,0.2663,0.2693,0.3596,0.543,0.5898,0.6185,0.6219,0.6285,0.6352,0.6341,0.5991,0.4951,0.3601,0.5293,0.5106,0.3529,0.1841,0.0965,0.0881,0.2932,0.3752,0.4214,0.9883,0.9909,1.0188,1.0466,1.1002,1.1545,1.1993,1.2311,1.2745,1.3437,1.3831,1.4183,1.455,1.4027,1.3885,1.4462,1.301,1.2386,1.3146,1.2176,1.145,1.1241,1.1531,1.1436,1.0812,1.1002,1.1063,1.0907,1.0806,1.0717,1.0717,1.0717,1.0704,1.0663,1.0582,1.0812,1.1274,1.1355,1.1857,1.2664,1.339,1.362,0.0,1.4964,1.5486,1.556,1.5947,1.5791,1.533,0.0,1.4272,1.3729,0.0,1.2684,1.2264,1.2264,0.0,0.0,0.0,0.0,0.0,0.0,1.1755,0.0,0.0,0.0,0.0,0.0,0.0,0.0,0.0,0.0,0.0,0.0,0.0,0.0,0.0,0.0,0.0,0.0,0.0,0.0,0.0,0.0,0.0,0.0,0.0,0.0067,0.0269,0.0135,0.0067,0.027,0.0135,0.0876,0.2692,0.2696,0.3682,0.557,0.7335,0.8213,0.8323,0.8333,0.8348,0.829,0.6554,0.5745,0.5669,0.5886,0.5955,0.5945,0.5648,0.4424,0.3029,0.5112,0.6027,0.6152,1.0114,1.0276,1.0507,1.0717,1.1111,1.1572,1.2115,1.2963,1.3688,1.4089,1.4475,1.4821,1.5099,1.4618,1.4333,1.4475,1.3634,1.303,1.2888,1.2406,1.1999,1.1694,1.1701,1.164,1.1504,1.1199,1.109,1.1206,1.088,1.0717,1.0717,1.0717,1.067,1.0595,1.0704,1.09,1.1158,1.1504,1.1918,0.0,0.0,0.0,0.0,1.4767,1.5337,1.5438,1.5622,1.5459,1.5059,0.0,1.4109,0.0,0.0,0.0,0.0,0.0,0.0,0.0,0.0,0.0,0.0,0.0,0.0,0.0,1.1463,0.0,1.1179,0.0,0.0,0.0,0.0,0.0,0.0,0.0,0.0,0.0,0.0,0.0,0.0,0.0,0.0,0.0,0.0,0.0,0.0,0.0,0.0,0.0471,0.1478,0.0538,0.0471,0.1545,0.1545,0.2417,0.4225,0.5292,0.6736,0.8585,0.9478,0.9965,1.0141,1.022,1.0305,1.0305,0.949,0.8548,0.7682,0.8985,0.8944,0.8121,0.9423,0.7838,0.5204,0.7299,0.8102,0.8326,1.0392,1.0541,1.069,1.0739,1.1104,1.1558,1.2244,1.3247,1.4061,1.4407,1.474,1.5079,1.5432,1.5072,1.4848,1.4964,1.4394,1.3804,1.3268,1.2929,1.2522,1.202,1.1911,1.185,1.1816,1.1369,1.1219,1.1389,1.0982,1.0785,1.0778,1.0738,1.0683,1.0629,1.0934,1.1185,1.1332,1.1877,1.2284,1.2651,1.3044,1.3363,1.3702,1.4645,1.514,1.5343,1.5303,1.5126,1.4814,1.4177,1.4041,0.0,1.3519,0.0,0.0,0.0,0.0,0.0,1.2189,0.0,0.0,0.0,0.0,0.0,0.0,0.0,0.0,0.0,0.0,0.0,0.0,0.0,0.0,1.0575,0.0,0.0,0.0,0.0,0.0,0.0,0.0,0.0,0.0,0.0,0.0,0.0,0.0,0.0,0.1869,0.0738,0.0606,0.1948,0.2417,0.3557,0.5362,0.7098,0.8923,1.0785,1.0826,1.1043,1.1226,1.1341,1.1477,1.1619,1.1619,1.0819,0.9691,1.1399,1.1308,1.0216,1.1895,1.0624,0.8214,0.9704,0.9917,0.9687,1.0677,1.0595,1.05,1.0507,1.0873,1.147,1.2359,1.2786,1.3315,1.419,1.4319,1.4658,1.554,1.5228,1.5425,1.6571,1.5337,1.4665,1.5072,1.4014,1.2915,1.1884,1.2244,1.2074,1.1282,1.1457,1.1531,1.1389,1.109,1.0873,1.0873,1.0785,1.0799,1.088,1.1246,1.1775,1.2461,1.263,1.3207,1.3994,1.3865,1.4163,1.4679,0.0,1.4808,1.5174,1.5031,0.0,0.0,1.4387,1.4292,0.0,0.0,0.0,0.0,0.0,0.0,0.0,0.0,0.0,0.0,1.2393,0.0,0.0,0.0,0.0,1.1687,0.0,0.0,0.0,0.0,1.0752,1.0717,1.0711,1.0582,0.0,0.0,0.0,0.0,0.0,0.0,0.0,0.0,0.0,0.0,0.0,0.0,0.0,0.0066,0.0,0.0,0.0067,0.1814,0.3557,0.5362,0.7098,0.8968,1.0873,1.088,1.1104,1.1382,1.1389,1.1477,1.1619,1.1619,1.1628,1.1697,1.1999,1.2155,1.2228,1.2447,1.2424,1.2347,1.2353,1.1095,0.9687,1.0839,1.0826,1.0725,1.0725,1.0995,1.1497,1.2501,1.3078,1.3797,1.4889,1.5208,1.5784,1.6978,1.689,1.6944,1.7439,0.0,1.6096,1.5655,1.4787,0.0,1.3342,1.3078,1.2712,1.221,1.2013,1.1789,1.1545,1.124,1.109,1.109,1.1036,1.1097,1.1246,1.1348,1.1755,0.0,0.0,0.0,0.0,0.0,1.4414,1.5018,0.0,0.0,1.4869,1.4719,1.457,0.0,1.4333,1.4231,1.4129,1.4027,1.3722,1.3383,1.3281,1.318,0.0,0.0,0.0,1.339,1.2745,0.0,0.0,0.0,0.0,0.0,0.0,0.0,0.0,0.0,1.084,1.0772,1.0738,1.0595,1.0473,0.0,0.0,0.0,0.0,0.0,0.0,0.0,0.0,0.0,0.0,0.0,0.0,0.0,0.0,0.0538,0.1747,0.3555,0.5362,0.7098,0.8906,1.0139,1.0799,1.0833,1.105,1.1246,1.1348,1.1477,1.1619,1.1619,1.1647,1.1708,1.1959,1.2169,1.2162,1.2406,1.2501,1.2501,1.2501,1.203,1.1572,1.1016,1.1023,1.1023,1.1023,1.1233,1.1667,1.2454,1.3308,1.4217,0.0,1.5778,0.0,1.7738,0.0,1.7846,0.0,1.786,1.7195,1.609,1.5716,0.0,1.4116,1.3797,1.3437,0.0,0.0,0.0,1.1857,1.1606,1.143,1.1321,1.1212,1.1246,1.1396,1.1558,1.1932,1.2474,1.2881,1.322,0.0,0.0,1.4516,0.0,0.0,1.4848,1.4855,0.0,1.438,1.4299,1.4299,1.4238,1.415,1.415,1.3919,1.362,1.3512,1.3451,1.3376,1.3214,1.3464,0.0,1.3105,1.3071,0.0,1.2305,0.0,0.0,0.0,0.0,0.0,0.0,0.0,1.0847,1.0819,1.067,1.0555,0.0,0.7932,0.0,0.0,0.0,0.0,0.0,0.0,0.0,0.0,0.0,0.0,0.0,0.0,0.0803,0.2618,0.4426,0.6231,0.7964,0.9775,1.0717,1.0724,1.0806,1.1023,1.1165,1.1321,1.1477,1.1619,1.1619,1.1619,1.164,1.1938,1.2135,1.2169,1.2386,1.2501,1.2501,1.2501,1.2501,1.2528,1.1199,1.1261,1.1282,1.1219,1.1565,1.1952,0.0,0.0,1.4523,0.0,1.6022,1.6924,1.7826,1.7935,1.8165,1.8742,1.8654,1.7948,1.6517,1.6781,0.0,0.0,1.4448,1.4231,1.3485,0.0,0.0,0.0,1.2149,1.1911,1.1647,1.1335,1.126,1.1423,1.1864,1.2298,1.2739,1.3349,1.379,1.4095,1.4387,1.4516,1.4529,1.4509,1.478,1.5092,1.4509,1.4299,1.4299,1.4299,1.4299,1.4299,1.4299,1.4197,1.4014,1.3722,1.3743,1.3756,1.3322,1.3431,1.362,1.3451,0.0,0.0,0.0,0.0,1.2886,0.0,0.0,0.0,0.0,0.0,1.0887,1.0873,1.0745,1.067,1.0521,0.8926,0.0,0.0,0.0,0.0,0.0,0.0,0.0,0.0,0.0,0.0,0.0,0.0,0.0861,0.2617,0.4359,0.6097,0.7831,0.9643,1.0585,1.0585,1.0813,1.1029,1.1165,1.1328,1.1484,1.1619,1.1626,1.1633,1.1653,1.1945,1.2067,1.2176,1.2379,1.2494,1.2501,1.2501,1.2501,1.2542,1.1314,1.1599,1.187,1.1979,1.1999,1.2216,0.0,0.0,0.0,0.0,1.6802,1.7738,1.8742,1.8952,1.9094,1.9237,1.9115,0.0,0.0,0.0,0.0,1.6096,1.571,1.516,1.4414,1.3919,0.0,1.3119,0.0,1.1965,1.2108,1.1694,1.1525,1.1572,1.1911,1.2128,1.2277,1.299,1.3593,1.4089,1.4278,1.4557,0.0,0.0,1.4631,1.4964,1.4475,1.4299,1.4299,1.4299,1.4299,1.4299,1.4299,1.4197,1.4034,1.3844,1.3892,1.396,1.3729,1.3892,1.4041,1.3661,1.3539,1.3376,0.0,0.0,0.0,0.0,0.0,0.0,0.0,0.0,0.0,1.0812,1.0744,1.0704,1.067,0.0,0.0,0.7923,0.0,0.0,0.0,0.0,0.0,0.0,0.0,0.0,0.0,0.0,0.0,0.2617,0.3155,0.4225,0.603,0.7831,0.8701,0.8706,1.0363,1.1124,1.1241,1.1436,1.1586,1.1626,1.1728,1.1775,1.1789,1.1986,1.2128,1.2237,1.2318,1.2406,1.2501,1.2501,1.2501,1.2528,1.1579,1.1999,1.242,1.2637,0.0,0.0,1.3512,1.4034,0.0,1.5961,1.689,0.0,1.8531,1.904,1.9379,1.9522,1.9393,0.0,1.8287,0.0,0.0,1.6686,1.6388,1.5893,1.5147,1.4414,0.0,1.3403,0.0,1.2088,1.2182,1.1796,1.1619,1.1633,1.1857,1.2033,1.2216,1.303,1.3682,1.4177,1.4265,0.0,0.0,1.4394,1.4455,1.4645,1.4387,1.4299,1.4299,1.4299,1.4299,1.4285,1.4224,1.4143,1.4041,1.3885,1.3905,1.3966,1.3946,1.4021,1.4055,1.3871,1.377,1.358,1.3044,1.3119,1.3125,0.0,0.0,0.0,0.0,0.0,0.0,1.0867,1.0765,1.0717,0.0,0.0,0.0,0.0,0.0,0.0,0.0,0.0,0.0,0.0,0.0,0.0,0.0,0.0,0.0,0.2617,0.3508,0.4787,0.6498,0.8354,0.923,0.9172,1.0538,1.1234,1.1241,1.1484,1.1619,1.1626,1.1769,1.183,1.185,1.2067,1.221,1.2298,1.2359,1.2433,1.2501,1.2501,1.2542,1.2623,1.1938,1.2386,0.0,0.0,0.0,0.0,0.0,1.459,0.0,1.592,0.0,1.7548,1.7935,1.8708,1.9305,1.9556,0.0,1.8972,1.8023,1.8287,1.7935,1.672,1.6761,1.6469,1.5744,1.4848,1.4109,0.0,1.2705,1.223,1.2115,1.1775,1.1619,1.1626,1.1769,0.0,0.0,1.3207,1.3804,1.419,1.4272,1.4299,1.4299,1.4299,1.4299,1.4299,1.4299,1.4299,1.4299,1.4299,1.4299,1.4272,1.4122,1.4075,1.4041,1.3865,1.3824,1.3865,1.398,1.3933,1.3871,1.3987,1.3899,1.3675,1.3268,1.3159,1.3024,1.2589,1.2284,1.2026,0.0,0.0,0.0,0.0,0.0,0.0,0.0,0.0,0.0,0.0,0.0,0.0,0.0,0.0,0.0,0.0,0.0,0.0,0.0,0.0,0.0,0.0,0.4335,0.0,0.765,0.0,1.0483,1.0445,1.0988,1.1261,1.1206,1.1491,1.1619,1.1626,1.1789,1.1864,1.1884,1.2169,1.2291,1.2305,1.2447,1.2501,1.2501,1.2501,1.261,1.2779,1.2338,1.2766,0.0,0.0,0.0,1.4719,1.5432,1.6008,1.6503,1.6904,1.7846,1.8518,1.8606,1.8959,1.9183,1.9115,1.9081,0.0,0.0,0.0,0.0,1.7473,1.7236,1.6822,1.6205,1.5309,1.4679,0.0,1.2956,1.2338,1.2413,1.187,1.1619,1.1626,1.1769,0.0,1.2332,1.2976,0.0,1.36,1.4102,1.4299,1.4299,1.4299,1.4299,1.4299,1.4299,1.4299,1.4299,1.4299,1.4299,1.4272,1.4122,1.4075,1.4021,1.3743,1.3749,1.3824,1.3729,1.377,1.3817,1.3729,1.3593,1.3424,1.322,1.3085,1.2901,1.2569,1.2366,1.2088,1.1565,0.0,0.0,0.0,0.0,0.0,0.0,0.0,0.0,0.0,0.0,0.0,0.0,0.0,0.0,0.0,0.0,0.0,0.0,0.0,0.0,0.0,0.0,0.0,0.0,0.0,0.8791,0.8872,1.0563,1.1348,1.1355,1.1538,1.1619,1.1633,1.1904,1.202,1.2033,1.2216,1.2291,1.2305,1.2447,1.2501,1.2501,1.2501,1.2678,1.2922,1.3119,0.0,0.0,0.0,0.0,0.0,0.0,1.6944,0.0,1.6998,1.7473,1.7901,1.8057,1.8531,1.8884,1.8993,1.885,1.862,1.8321,1.8091,1.7812,1.7426,1.727,0.0,1.6429,1.5466,1.4821,1.4509,1.3091,1.24,1.2379,1.1938,1.1728,1.1735,0.0,1.2088,0.0,0.0,0.0,1.3566,1.4089,1.4299,1.4299,1.4299,1.4299,1.4299,1.4299,1.4299,1.4299,1.4299,1.4299,1.4258,1.4027,1.3953,1.3892,1.36,1.3559,1.3614,1.3627,1.3559,1.3498,1.3505,1.3342,1.3112,1.2874,1.2834,1.2732,1.2352,1.2223,1.2013,1.1491,1.109,0.0,0.0,0.0,0.0,0.0,0.0,0.0,0.0,0.0,0.0,0.0,0.0,0.0,0.0,0.0,0.0,0.0,0.0,0.0,0.0,0.0,0.0,0.0,0.0,0.0,0.8441,1.0392,1.1314,1.1396,1.1463,1.1586,1.1742,1.1965,1.2108,1.2189,1.2338,1.24,1.2406,1.2474,1.2501,1.2501,1.2501,1.2698,1.2963,0.0,1.4116,0.0,0.0,1.5832,0.0,1.6924,1.746,1.7629,1.7107,1.7141,1.7304,1.7534,1.8111,1.8586,1.883,1.8599,1.8321,1.8057,1.786,1.7595,1.7209,1.7161,1.6965,1.6578,1.5615,1.4903,0.0,1.3241,1.2488,0.0,1.1979,1.1864,0.0,0.0,0.0,0.0,0.0,1.3247,1.3668,1.4116,1.4299,1.4299,1.4299,1.4299,1.4299,1.4299,1.4299,1.4299,1.4299,1.4278,1.4204,1.3926,1.3817,1.3743,1.3478,1.3403,1.3417,1.3505,1.3356,1.3193,1.3288,1.3085,1.28,1.2556,1.2549,1.2481,1.2094,1.1938,1.1775,1.145,1.1124,0.0,0.0,0.0,0.0,0.0,0.0,0.0,0.0,0.0,0.0,0.0,0.0,0.0,0.0,0.0,0.0,0.0,0.0,0.0,0.0,0.0,0.3605,0.392,0.0,0.8857,0.0,1.031,1.1294,1.1436,1.1402,1.1538,1.1796,1.1979,1.2169,1.2345,1.2454,1.2501,1.2501,1.2501,1.2501,1.2501,1.2501,1.2698,1.2963,0.0,0.0,0.0,0.0,0.0,0.0,1.6951,1.7372,1.7738,1.7935,1.7989,1.8002,1.8023,1.8213,1.8355,1.8375,1.8233,1.8057,1.7901,1.7616,1.7385,1.7202,1.7066,1.6917,1.6734,1.5974,1.516,0.0,0.0,1.2684,0.0,1.1986,0.0,0.0,0.0,0.0,0.0,1.2915,1.3336,1.3668,1.4116,1.4299,1.4299,1.4299,1.4299,1.4299,1.4299,1.4299,1.4299,1.4299,1.4211,1.4061,1.3892,1.3749,1.3614,1.3451,1.3403,1.3376,1.3247,1.3193,1.3146,1.303,1.2773,1.2535,1.2508,1.2305,1.2074,1.1891,1.1531,1.128,1.1375,1.1036,1.0833,0.0,0.0,0.0,0.0,0.0,0.0,0.0,0.0,0.0,0.0,0.0,0.0,0.0,0.0,0.0,0.0,0.0,0.1483,0.4762,0.0,0.613,0.7728,1.0034,0.0,0.8668,1.0503,1.145,1.1592,1.1457,1.1484,1.1653,1.1938,1.2223,1.2481,1.2494,1.2501,1.2501,1.2501,1.2501,1.2501,1.2501,1.2698,1.2963,0.0,0.0,0.0,0.0,0.0,0.0,0.0,1.7534,1.7717,1.7935,1.788,1.7894,1.8077,1.8057,1.8091,1.8179,1.7968,1.7758,1.7609,1.7399,1.7216,1.7073,1.7012,1.6951,1.689,1.6334,1.5689,0.0,0.0,0.0,0.0,0.0,0.0,0.0,0.0,1.2332,1.2589,1.3091,1.3431,1.3668,1.4116,1.4299,1.4299,1.4299,1.4299,1.4299,1.4299,1.4299,1.4299,1.4299,1.4197,1.4048,1.3885,1.3743,1.36,1.3444,1.3403,1.337,1.3214,1.3112,1.299,1.2745,1.2596,1.2433,1.2162,1.2149,1.2108,1.1775,1.1491,1.1294,1.126,1.1111,1.0995,0.0,0.0,0.0,0.0,0.0,0.0,0.0,0.0,0.0,0.0,0.0,0.0,0.0,0.0,0.0,0.0064,0.1037,0.0,0.3711,0.0,0.5968,0.6696,0.8758,0.9341,0.8596,1.0403,1.1335,1.1477,1.1321,1.1436,1.1755,1.1972,1.2182,1.2372,1.2372,1.2427,1.2501,1.2501,1.2501,1.2501,1.2501,1.2698,1.2963,1.5811,0.0,1.6259,0.0,1.7005,1.7283,1.7602,1.7568,1.7582,1.7772,1.767,1.7704,1.7989,1.7935,1.7901,1.8023,1.7792,1.7582,1.7433,1.7277,1.7127,1.6985,1.6978,0.0,1.6978,1.6585,1.6056,1.5411,1.4753,0.0,0.0,0.0,0.0,0.0,1.2501,1.2712,1.3017,1.3336,1.3607,1.3851,1.417,1.4299,1.4299,1.4299,1.4299,1.4299,1.4299,1.4299,1.4299,1.4299,1.4197,1.4048,1.3885,1.3709,1.3539,1.3431,1.3403,1.3356,1.3166,1.3037,1.2888,1.2576,1.2467,1.2345,1.1979,1.2033,1.2054,1.1694,1.1497,1.1341,1.1192,1.1131,1.1063,1.0894,0.0,0.0,0.0,0.0,0.0,0.0,1.0439,1.0378,1.029,0.0,0.0,0.0,0.0,0.0,0.0,0.0,0.0,0.0,0.0,0.0,0.0,0.8384,0.915,0.853,1.0278,1.1199,1.1389,1.1328,1.1491,1.1837,1.1945,1.2108,1.2291,1.2291,1.2372,1.2501,1.2501,1.2501,1.2501,1.2501,1.2664,1.2901,1.6212,1.6537,1.6883,1.7331,1.7541,1.754,1.765,1.7392,1.7304,1.7609,1.7521,1.7534,1.7826,1.786,1.786,1.786,1.7738,1.7582,1.7433,1.7277,1.7127,0.0,0.0,1.6978,1.6978,1.668,1.6157,1.5411,0.0,0.0,1.3166,0.0,1.3024,1.3159,1.3159,1.3336,1.362,1.3627,1.3885,1.4292,1.4299,1.4299,1.4299,1.4299,1.4299,1.4299,1.4299,1.4299,1.4299,1.4299,1.4197,1.4048,1.3885,1.3641,1.3403,1.3403,1.3403,1.3336,1.3044,1.2963,1.2888,1.2576,1.2393,1.225,1.2094,1.1945,1.1796,1.1647,1.1497,1.1341,1.1192,1.105,1.088,1.088,0.0,0.0,0.0,0.0,0.0,0.0,1.0622,1.0602,1.031,0.0,0.0,0.0,0.0,0.0,0.0,0.0,0.0,0.7797,0.8153,0.0,0.8303,1.0184,1.0253,0.853,1.0116,1.1104,1.1396,1.1545,1.1694,1.183,1.183,1.2006,1.2291,1.2291,1.2372,1.2501,1.2501,1.2501,1.2501,1.2501,1.2603,1.2752,1.6741,1.6917,1.7066,1.7114,1.7324,1.746,1.7351,1.7256,1.7263,1.7467,1.7453,1.7453,1.7555,1.7738,1.7826,0.0,1.7582,1.7426,0.0,1.7127,1.7026,1.6985,1.6978,1.6978,1.6978,1.6883,1.6564,1.6022,0.0,0.0,0.0,1.3376,1.3227,1.318,1.339,1.3593,1.379,1.4,1.417,1.4299,1.4299,1.4299,1.4299,1.4299,1.4299,1.4299,1.4299,1.4299,1.4299,1.4299,1.4197,1.4048,1.3885,1.3709,1.3539,1.3431,1.3403,1.3336,1.3044,1.2963,1.2861,1.2461,1.2393,1.2372,1.2121,1.1945,1.1789,1.1647,1.1579,1.1497,1.1348,1.1192,1.1063,1.0894,1.0793,0.0,0.0,0.0,0.0,0.0,0.0,1.0487,0.0,1.0412,0.0,0.0,0.0,0.0,0.0,0.0,0.0,0.0,0.9344,0.0,1.0254,1.0882,1.0902,1.0385,1.0856,1.1199,1.1396,1.1552,1.1647,1.1687,1.1687,1.1857,1.2135,1.2135,1.2277,1.2501,1.2501,1.2501,1.2501,1.2501,1.2596,1.2739,1.6978,1.7093,1.7161,1.7073,1.7216,1.7304,1.7209,1.7148,1.7168,1.7317,1.7331,1.7358,1.7412,1.7582,0.0,1.7575,1.7419,1.7297,1.7202,1.706,1.6978,1.6978,1.6978,1.6978,1.6978,0.0,0.0,1.6388,1.5859,1.5147,1.4258,1.3905,1.3715,1.3682,1.3817,1.3933,1.4027,1.4217,1.4299,1.4299,1.4299,1.4299,1.4299,1.4299,1.4299,1.4299,1.4299,1.4299,1.4299,1.4299,1.4238,1.4129,1.3973,1.3865,1.3743,1.3478,1.3403,1.3336,1.3044,1.2963,1.2868,1.2467,1.2433,1.2427,1.2128,1.1898,1.1728,1.164,1.1619,1.1572,1.1416,1.1267,1.1118,1.09,1.0819,1.0717,1.0717,0.0,0.0,0.0,0.0,0.0,0.0,1.0473,0.0,0.0,0.0,0.0,0.0,0.0,0.0,0.8972,1.0203,0.0,1.1227,1.105,1.105,1.1234,1.1234,1.1246,1.1396,1.1552,1.1619,1.1619,1.1674,1.1837,1.2067,1.2121,1.2284,1.2501,1.2501,1.2501,1.2501,1.2501,1.2562,1.2664,1.6978,1.7087,0.0,0.0,1.7175,0.0,1.7175,1.7066,1.7026,1.7161,1.7188,1.7243,1.7372,1.7399,1.7399,1.7392,0.0,0.0,0.0,1.7053,1.6978,1.6978,1.6978,1.6978,1.6978,1.6971,1.6815,1.651,1.5635,1.5133,1.4977,1.4523,1.4387,1.4502,1.4367,1.4306,1.4312,1.4306,1.4299,1.4299,1.4299,1.4299,1.4299,1.4299,1.4299,1.4299,1.4299,1.4299,1.4299,1.4299,1.4299,1.4272,1.4122,1.4075,1.3987,1.3546,1.341,1.3336,1.3044,1.2956,1.2874,1.2576,1.2501,1.2427,1.2142,1.1864,1.1667,1.1653,1.164,1.1592,1.145,1.128,1.1118,1.0921,1.0826,1.0717,1.0717,0.0,0.0,0.0,0.0,0.0,0.0,1.0595,1.0507,0.0,0.0,0.0,0.0,0.0,0.8972,1.0651,1.0731,1.0873,1.1227,1.0887,1.0894,1.1179,1.1179,1.126,1.1409,1.1552,1.1626,1.164,1.1775,1.1925,1.2088,1.223,1.2372,1.2501,1.2501,1.2501,1.2501,1.2515,1.2515,1.2562,0.0,0.0,1.7032,1.7032,1.7032,1.7032,1.7032,1.7005,1.6992,1.7026,1.7127,1.7161,1.7093,1.7182,1.7202,1.7093,1.7148,1.7148,1.7039,1.6998,1.6978,1.6978,1.6978,1.6978,1.6978,1.6863,1.6659,1.6361,1.5805,1.5398,1.512,1.4672,1.4482,1.4502,1.4367,1.436,1.4455,1.4346,1.4299,1.4299,1.4299,1.4299,1.4299,1.4299,1.4299,1.4299,1.4299,1.4299,1.4299,1.4299,1.4299,1.4272,1.4122,1.4075,1.4007,1.3675,1.3492,1.3336,1.3044,1.2874,1.2739,1.2549,1.2501,1.2454,1.2277,1.2182,1.2101,1.1979,1.1864,1.1769,1.1735,1.1416,1.1151,1.1118,1.0894,1.0717,1.0717,1.0717,0.0,0.0,1.0717,1.0717,1.0717,1.0683,1.0663,0.0,0.0,0.0,0.0,1.03,1.0246,1.0717,1.0766,1.0982,1.1227,1.109,1.1151,1.1335,1.1335,1.1416,1.1565,1.1606,1.1681,1.1782,1.1816,1.1986,1.2237,1.2277,1.2372,1.2501,1.2501,1.2501,1.2515,1.263,1.2678,1.2705,1.6978,1.6978,1.6978,1.6978,1.6978,1.6978,1.6978,1.6978,1.6978,1.6978,1.7046,1.7066,1.6992,1.7046,1.7066,1.6985,1.7053,1.7066,1.6985,1.6978,1.6978,1.6978,1.6978,1.6978,1.6978,1.6897,1.6707,1.6408,1.5961,1.5622,1.5384,1.4997,1.478,1.4713,1.457,1.4502,1.4509,1.4428,1.436,1.4299,1.4299,1.4299,1.4299,1.4299,1.4299,1.4299,1.4299,1.4299,1.4299,1.4299,1.4299,1.4285,1.4204,1.4177,1.4116,1.3817,1.362,1.3437,1.3139,1.2949,1.2779,1.2556,1.2454,1.2386,1.2311,1.2237,1.2162,1.2155,1.1938,1.183,1.183,1.1463,1.1234,1.1234,1.0914,1.0717,1.0717,1.0717,0.0,1.0717,1.0717,1.0717,1.0717,1.0717,1.0717,1.0717,0.0,0.0,1.0717,1.0785,1.0759,1.0759,1.084,1.105,1.1267,1.1267,1.1307,1.1389,1.1389,1.147,1.1619,1.1619,1.1694,1.1837,1.1904,1.2074,1.2298,1.2359,1.2433,1.2501,1.2501,1.2501,1.2515,1.2596,1.2671,1.2752,1.6978,1.6978,1.6978,1.6978,1.6978,1.6978,1.6978,1.6978,1.6978,1.6978,1.6978,1.6978,1.6978,1.6978,1.6978,1.6978,1.6978,1.6971,1.6944,1.6971,1.6971,1.6944,1.6971,1.6978,1.6978,1.6937,1.6761,1.6456,1.6049,1.5771,1.5601,1.5316,1.512,1.4997,1.4821,1.4692,1.4611,1.4536,1.4441,1.4333,1.4306,1.4299,1.4299,1.4299,1.4299,1.4299,1.4299,1.4299,1.4299,1.4299,1.4299,1.4299,1.4299,1.4299,1.4245,1.396,1.3777,1.3587,1.3261,1.3051,1.2861,1.2569,1.2413,1.2332,1.2352,1.2237,1.2135,1.2155,1.2006,1.1864,1.1864,1.1497,1.1199,1.1199,1.0948,1.0758,1.0758,0.0,1.0717,1.0717,1.0717,1.0717,1.0717,1.0717,1.0717,1.0717,1.0717,1.0717,0.0,1.0799,1.0894,1.0914,1.0934,1.1145,1.1423,1.1423,1.1423,1.1423,1.145,1.1525,1.1653,1.1653,1.1742,1.1904,1.2013,1.2162,1.2332,1.2454,1.2501,1.2501,1.2501,1.2501,1.2508,1.2556,1.2651,1.2793,1.6978,1.6978,1.6978,1.6978,1.6978,1.6978,1.6978,1.6978,1.6978,1.6978,1.6978,1.6978,1.6978,1.6978,1.6978,1.6978,1.6978,1.6924,1.6795,1.691,1.6924,1.6788,1.691,1.6978,1.6978,1.6727,1.6449,1.6151,1.5947,1.5716,1.5445,1.5262,1.5167,1.514,1.4862,1.4869,1.5052,1.4672,1.4502,1.4468,1.4346,1.4299,1.4299,1.4299,1.4299,1.4299,1.4299,1.4299,1.4299,1.4299,1.4299,1.4299,1.4299,1.4299,1.4265,1.4089,1.3926,1.3715,1.3288,1.2976,1.2725,1.2549,1.2488,1.2501,1.263,1.2542,1.2467,1.2603,1.2305,1.2026,1.2026,1.166,1.1355,1.1355,1.1104,1.0847,1.0847,0.0,1.0717,1.0717,1.0717,1.0717,1.0717,1.0717,1.0717,1.0717,1.0717,1.0717,1.0717,1.0799,1.1002,1.1124,1.1253,1.1409,1.1586,1.1586,1.1586,1.1586,1.1708,1.1775,1.1796,1.1796,1.1952,1.221,1.2108,1.2216,1.2467,1.2494,1.2501,1.2501,1.2501,1.2501,1.2535,1.2793,1.2901,1.2963,1.6978,1.6978,1.6978,1.6978,1.6978,1.6978,1.6978,1.6978,1.6978,1.6978,1.6978,1.6978,1.6978,1.6978,1.6978,1.6978,1.6978,1.6917,1.6761,1.6897,1.6951,1.6876,1.6944,1.6944,1.6856,1.6564,1.6341,1.6205,1.6049,1.5866,1.5649,1.5581,1.5459,1.5303,1.516,1.5086,1.5052,1.476,1.4584,1.4502,1.4353,1.4299,1.4299,1.4299,1.4299,1.4299,1.4299,1.4299,1.4299,1.4299,1.4299,1.4299,1.4299,1.4299,1.4272,1.4116,1.3905,1.3648,1.3275,1.3017,1.2834,1.2766,1.2623,1.2562,1.28,1.2671,1.2549,1.2698,1.2372,1.2135,1.2135,1.1694,1.1389,1.1389,1.1145,0.0,0.0,1.0934,1.0873,1.0948,1.0962,1.0962,1.0962,1.0962,1.0962,1.0962,1.0962,1.0962,1.0962,1.1104,1.1219,1.128,1.1436,1.1545,1.1619,1.1619,1.1619,1.1619,1.1762,1.183,1.1837,1.1918,1.2081,1.2284,1.2216,1.2305,1.2501,1.2501,1.2501,1.2501,1.2501,1.2501,1.2522,1.2657,1.282,1.2983,1.6978,1.6978,1.6978,1.6978,1.6978,1.6978,1.6978,1.6978,1.6978,1.6978,1.6978,1.6978,1.6978,1.6978,1.6978,1.6978,1.6978,1.6917,1.6761,1.6897,1.6965,1.6931,1.6931,1.6856,1.67,1.6442,1.6293,1.6259,1.6137,1.6001,1.5852,1.5818,1.5683,1.5459,1.5391,1.5255,1.5059,1.4835,1.4672,1.455,1.4373,1.4299,1.4299,1.4299,1.4319,1.4346,1.4312,1.4319,1.4346,1.4312,1.4299,1.4299,1.4299,1.4299,1.4278,1.4156,1.3939,1.3661,1.3315,1.3119,1.3003,1.2969,1.2779,1.2678,1.2949,1.2773,1.2596,1.2752,1.2427,1.2115,1.2115,1.1803,1.1538,1.1497,0.0,0.0,0.0,1.109,1.1036,1.1151,1.1234,1.1234,1.1234,1.1234,1.1234,1.1234,1.1234,1.1234,1.1234,1.1307,1.1409,1.1443,1.1558,1.1619,1.1619,1.1653,1.1667,1.1674,1.185,1.1938,1.1945,1.206,1.2196,1.2338,1.2305,1.2372,1.2501,1.2501,1.2501,1.2501,1.2501,1.2501,1.2508,1.2583,1.2759,1.2969,1.6978,1.6978,1.6978,1.6978,1.6978,1.6978,1.6978,1.6978,1.6978,1.6978,1.6978,1.6978,1.6978,1.6978,1.6978,1.6978,1.6978,1.6917,1.6761,1.6897,1.6917,1.6775,1.6768,1.6693,1.6537,1.6388,1.6239,1.6096,1.609,1.6001,1.595,1.5716,1.5642,1.5608,1.5323,1.5269,1.535,1.4923,1.4733,1.4699,1.4414,1.4299,1.4299,1.4299,1.438,1.4475,1.4346,1.4387,1.4475,1.4346,1.4299,1.4299,1.4299,1.4299,1.4299,1.4285,1.417,1.3939,1.3505,1.3275,1.3125,1.2996,1.2942,1.2969,1.3119,1.2929,1.2759,1.2908,1.2589,1.2271,1.2271,1.2128,1.1965,1.1823,0.0,0.0,1.1396,1.1246,1.1151,1.1227,1.1234,1.1234,1.1234,1.1234,1.1234,1.1234,1.1234,1.1234,1.1234,1.1307,1.1457,1.1599,1.1613,1.1619,1.1619,1.1748,1.1816,1.1816,1.2115,1.2257,1.2257,1.2271,1.2352,1.2481,1.2345,1.2372,1.2501,1.2501,1.2501,1.2501,1.2501,1.2501,1.2535,1.282,1.2942,1.3003,1.6978,1.6978,1.6978,1.6978,1.6978,1.6978,1.6978,1.6978,1.6978,1.6978,1.6978,1.6978,1.6978,1.6978,1.6978,1.6978,1.6978,1.6958,1.6897,1.6951,1.6951,1.6897,1.6707,1.6625,1.6659,1.6341,1.6185,1.6225,1.613,1.6049,1.5995,1.594,1.5866,1.5764,1.5554,1.5445,1.5391,1.5031,1.4882,1.4862,1.4658,1.457,1.457,1.457,1.455,1.4502,1.4448,1.4407,1.4373,1.4319,1.4299,1.4299,1.4299,1.4299,1.4299,1.4299,1.419,1.4034,1.3865,1.3573,1.3302,1.3247,1.3098,1.3024,1.3261,1.301,1.2773,1.2929,1.2603,1.2291,1.2291,1.2169,1.204,1.1986,0.0,1.1667,1.1789,1.1518,1.1369,1.1552,1.1497,1.1443,1.1443,1.1443,1.1443,1.1443,1.1443,1.1443,1.1443,1.1504,1.1599,1.1748,1.1748,1.1748,1.1748,1.1803,1.1877,1.1979,1.2189,1.2291,1.2291,1.2379,1.2447,1.2501,1.2447,1.2454,1.2501,1.2501,1.2501,1.2508,1.261,1.2644,1.2671,1.2881,1.3017,1.3112,1.6978,1.6978,1.6978,1.6978,1.6978,1.6978,1.6978,1.6978,1.6978,1.6978,1.6978,1.6978,1.6978,1.6978,1.6978,1.6978,1.6978,1.6958,1.691,1.691,1.6931,1.6978,1.6686,1.6571,1.6673,1.6286,1.613,1.6239,1.613,1.6083,1.6083,1.6035,1.5954,1.5845,1.5655,1.5506,1.5391,1.5092,1.497,1.4957,1.4801,1.474,1.474,1.474,1.4706,1.4645,1.455,1.4482,1.4421,1.4333,1.4299,1.4299,1.4299,1.4299,1.4299,1.4299,1.4224,1.4136,1.4082,1.3844,1.3587,1.3498,1.3322,1.3214,1.3363,1.3125,1.2901,1.3003,1.2745,1.2501,1.2501,1.2372,1.2257,1.221,1.1993,1.1884,1.204,1.1796,1.1674,1.1877,1.1816,1.1742,1.1687,1.1687,1.1667,1.1619,1.1619,1.164,1.1681,1.1687,1.1755,1.1898,1.1904,1.1925,1.1972,1.1979,1.2026,1.2135,1.2284,1.2359,1.2359,1.2461,1.2501,1.2501,1.2501,1.2501,1.2508,1.2556,1.2576,1.2589,1.2745,1.28,1.282,1.2969,1.3091,1.318,1.6978,1.6978,1.6978,1.6978,1.6978,1.6978,1.6978,1.6978,1.6978,1.6978,1.6978,1.6978,1.6978,1.6978,1.6978,1.6978,1.6978,1.6917,1.6761,1.6754,1.6822,1.6971,1.6686,1.6524,1.6524,1.6232,1.6083,1.6083,1.6083,1.6083,1.6076,1.5927,1.5852,1.5845,1.5547,1.5411,1.5398,1.5099,1.4977,1.4964,1.4808,1.4746,1.4746,1.474,1.4835,1.493,1.4624,1.4611,1.4692,1.4401,1.4299,1.4299,1.4299,1.4299,1.4299,1.4299,1.4299,1.4265,1.4116,1.4075,1.4,1.3709,1.3627,1.3587,1.3437,1.3281,1.3173,1.3173,1.3057,1.2963,1.2963,1.2834,1.2684,1.2528,1.2386,1.2237,1.2088,1.206,1.2135,1.206,1.2135,1.1999,1.1843,1.183,1.1775,1.1633,1.1619,1.1687,1.1823,1.183,1.1904,1.2135,1.206,1.2135,1.2291,1.2291,1.2291,1.2291,1.2433,1.2501,1.2501,1.2501,1.2501,1.2501,1.2501,1.2501,1.2515,1.2664,1.2732,1.2745,1.2901,1.2963,1.2983,1.3119,1.3173,1.3193,1.6958,1.6978,1.6978,1.6978,1.6978,1.6978,1.6978,1.6978,1.6978,1.6978,1.6978,1.6978,1.6978,1.6978,1.6978,1.6978,1.6978,1.6958,1.6917,1.691,1.6931,1.6978,1.6686,1.6571,1.668,1.6286,1.6137,1.6239,1.6137,1.6083,1.6083,1.6035,1.6015,1.6001,1.5703,1.5628,1.5703,1.5404,1.5343,1.5425,1.5276,1.5208,1.5201,1.5092,1.5018,1.4957,1.4869,1.4726,1.4563,1.4475,1.438,1.4299,1.4299,1.4299,1.4299,1.4299,1.4299,1.4292,1.4245,1.4231,1.4156,1.3851,1.3702,1.3614,1.3573,1.3356,1.3173,1.3173,1.3057,1.2963,1.2963,1.2922,1.2881,1.2834,1.261,1.2461,1.2522,1.2264,1.2101,1.221,1.2128,1.2047,1.1999,1.1993,1.1972,1.1932,1.1932,1.1952,1.1993,1.1993,1.206,1.2216,1.2223,1.2291,1.2433,1.2338,1.2338,1.244,1.2481,1.2501,1.2501,1.2501,1.2501,1.2501,1.2501,1.2501,1.2515,1.2664,1.2732,1.2752,1.301,1.3112,1.3125,1.3275,1.3336,1.3342,1.6965,1.6978,1.6978,1.6978,1.6978,1.6978,1.6978,1.6978,1.6978,1.6978,1.6978,1.6978,1.6978,1.6978,1.6978,1.6978,1.6978,1.6978,1.6978,1.6978,1.6951,1.689,1.6653,1.6564,1.6659,1.6279,1.613,1.6218,1.613,1.6083,1.6083,1.6083,1.6083,1.6069,1.5832,1.5771,1.5839,1.5601,1.5554,1.5628,1.5472,1.5411,1.5391,1.5242,1.5126,1.5045,1.4991,1.4814,1.459,1.4529,1.4421,1.4299,1.4299,1.4299,1.4299,1.4299,1.4299,1.4299,1.4299,1.4299,1.4258,1.4068,1.3912,1.3777,1.3654,1.3532,1.3403,1.3288,1.3241,1.3207,1.3146,1.3085,1.3044,1.3044,1.284,1.2718,1.2807,1.2589,1.2427,1.2461,1.2379,1.2277,1.2162,1.2149,1.2128,1.2067,1.2135,1.2088,1.2149,1.2149,1.2223,1.2372,1.2372,1.2413,1.2501,1.242,1.242,1.2501,1.2501,1.2501,1.2501,1.2501,1.2501,1.2501,1.2501,1.2535,1.2603,1.2691,1.28,1.2922,1.3105,1.3207,1.3275,1.337,1.3403,1.3403,1.6978,1.6978,1.6978,1.6978,1.6978,1.6978,1.6978,1.6978,1.6978,1.6978,1.6978,1.6978,1.6978,1.6978,1.6978,1.6978,1.6978,1.6978,1.6978,1.6978,1.691,1.6754,1.6605,1.6517,1.6503,1.6225,1.6083,1.6083,1.6083,1.6083,1.6083,1.6083,1.6083,1.6076,1.592,1.5852,1.5845,1.5703,1.5649,1.5642,1.5493,1.5432,1.5418,1.5276,1.5208,1.5167,1.5052,1.4903,1.4733,1.457,1.4421,1.4299,1.4299,1.4299,1.4299,1.4299,1.4299,1.4299,1.4299,1.4299,1.4299,1.4299,1.4197,1.4021,1.3736,1.3756,1.3763,1.3498,1.3553,1.3607,1.3464,1.3315,1.3214,1.3214,1.3085,1.2983,1.2983,1.2969,1.2908,1.2766,1.2739,1.2623,1.2352,1.2318,1.225,1.2108,1.2176,1.2162,1.2298,1.2325,1.2386,1.2515,1.2535,1.2542,1.2542,1.2542,1.2535,1.2522,1.2522,1.2528,1.2542,1.2528,1.2528,1.2542,1.2515,1.2589,1.2732,1.2732,1.2895,1.3152,1.3166,1.3268,1.3403,1.3403,1.3403,1.3403,1.6958,1.6978,1.6978,1.6978,1.6978,1.6978,1.6978,1.6978,1.6978,1.6978,1.6978,1.6978,1.6978,1.6978,1.6978,1.6978,1.6978,1.6978,1.6978,1.6978,1.691,1.6754,1.6605,1.6469,1.6361,1.6178,1.6083,1.6083,1.6083,1.6083,1.6083,1.6083,1.6083,1.6076,1.592,1.5852,1.5845,1.5703,1.5703,1.5791,1.5649,1.5588,1.5588,1.5554,1.5391,1.5194,1.5282,1.5147,1.4882,1.4604,1.4421,1.4299,1.4299,1.4299,1.4299,1.4299,1.4299,1.4299,1.4299,1.4299,1.4299,1.4299,1.4278,1.4204,1.4021,1.3905,1.3824,1.3756,1.377,1.3783,1.3749,1.3627,1.3532,1.3532,1.3302,1.3125,1.3125,1.303,1.2949,1.2915,1.2807,1.2705,1.2637,1.2528,1.244,1.2406,1.2406,1.242,1.2454,1.2569,1.2651,1.2678,1.28,1.2861,1.2861,1.2861,1.28,1.2678,1.2678,1.2745,1.2854,1.2739,1.2745,1.2847,1.2603,1.2589,1.2732,1.2732,1.284,1.3017,1.3125,1.3268,1.3403,1.3403,1.3403,1.3403,1.6965,1.6978,1.6978,1.6978,1.6978,1.6978,1.6978,1.6978,1.6978,1.6978,1.6978,1.6978,1.6978,1.6978,1.6978,1.6978,1.6978,1.6978,1.6978,1.6978,1.6876,1.6653,1.6564,1.6422,1.6205,1.6123,1.6083,1.6083,1.6083,1.6083,1.6083,1.6083,1.6083,1.6076,1.5995,1.5961,1.5954,1.5805,1.5784,1.5839,1.5696,1.5642,1.5642,1.5642,1.5493,1.5303,1.5384,1.5174,1.4828,1.459,1.4421,1.4299,1.4299,1.4299,1.4299,1.4299,1.4299,1.4299,1.4299,1.4299,1.4299,1.4299,1.4299,1.4258,1.4109,1.4068,1.4014,1.3871,1.3899,1.3926,1.3858,1.3783,1.3729,1.3729,1.3593,1.3464,1.3397,1.3329,1.3227,1.3078,1.299,1.2915,1.2847,1.2766,1.2718,1.2718,1.2718,1.2718,1.2718,1.28,1.284,1.284,1.2922,1.2963,1.2963,1.2963,1.2956,1.2942,1.2874,1.2881,1.3036,1.2874,1.2888,1.2949,1.2793,1.2766,1.284,1.284,1.2929,1.3071,1.3146,1.3268,1.3403,1.3403,1.3403,1.3403,1.6978,1.6978,1.6978,1.6978,1.6978,1.6978,1.6978,1.6978,1.6978,1.6978,1.6978,1.6978,1.6978,1.6978,1.6978,1.6978,1.6978,1.6978,1.6978,1.6978,1.6842,1.6537,1.6524,1.6381,1.609,1.6083,1.6083,1.6083,1.6083,1.6083,1.6083,1.6056,1.6056,1.6083,1.6029,1.6008,1.5995,1.5845,1.5778,1.5771,1.5676,1.5642,1.5642,1.5696,1.5601,1.5452,1.5452,1.5147,1.4719,1.459,1.4441,1.4299,1.4299,1.4299,1.4299,1.4299,1.4299,1.4299,1.4299,1.4299,1.4299,1.4299,1.4299,1.4265,1.4143,1.4211,1.4224,1.3973,1.4021,1.4068,1.3946,1.3899,1.3878,1.3878,1.3858,1.3797,1.3682,1.3648,1.3532,1.3281,1.3207,1.3119,1.2976,1.2963,1.2963,1.2963,1.2963,1.2963,1.2963,1.2983,1.2996,1.2996,1.3024,1.3037,1.3037,1.3037,1.3091,1.3207,1.3091,1.3037,1.3037,1.301,1.301,1.303,1.2983,1.2976,1.2996,1.2969,1.3044,1.3173,1.3173,1.3268,1.3403,1.3403,1.3403,1.3403,1.6978,1.6978,1.6978,1.6978,1.6978,1.6978,1.6978,1.6978,1.6978,1.6978,1.6978,1.6978,1.6978,1.6978,1.6978,1.6978,1.6978,1.6978,1.6978,1.6978,1.6842,1.6537,1.6524,1.6381,1.609,1.6083,1.6083,1.6083,1.6083,1.6083,1.6076,1.5947,1.5954,1.6069,1.5811,1.5696,1.5689,1.5533,1.5472,1.5479,1.5594,1.5642,1.5669,1.5927,1.5852,1.5608,1.5608,1.5235,1.4733,1.4713,1.4529,1.4299,1.4299,1.4299,1.4299,1.4299,1.4299,1.4299,1.4299,1.4299,1.4299,1.4299,1.4299,1.4292,1.4272,1.4285,1.4285,1.4245,1.4251,1.4265,1.4245,1.4129,1.4041,1.4041,1.3926,1.3745,1.3817,1.3709,1.3614,1.3573,1.3336,1.3119,1.2976,1.2963,1.2963,1.2963,1.2963,1.2963,1.2963,1.3078,1.3146,1.3146,1.3275,1.3342,1.3342,1.3342,1.3349,1.337,1.3349,1.3342,1.3336,1.3207,1.3214,1.3329,1.3071,1.303,1.3132,1.301,1.3044,1.3173,1.3173,1.3268,1.3403,1.3403,1.3403,1.3403,1.6978,1.6978,1.6951,1.687,1.6849,1.6849,1.6849,1.6849,1.6883,1.6971,1.6978,1.6978,1.6978,1.6978,1.6978,1.6978,1.6978,1.6978,1.6978,1.6897,1.6754,1.653,1.6442,1.63,1.609,1.6083,1.6083,1.6083,1.6083,1.6083,1.6076,1.5927,1.5893,1.5947,1.5818,1.5716,1.5635,1.5567,1.5493,1.5425,1.5581,1.5642,1.5669,1.5967,1.5947,1.5737,1.5574,1.5235,1.4855,1.4767,1.4597,1.4421,1.4421,1.4367,1.4319,1.4394,1.436,1.4299,1.4299,1.4299,1.4299,1.4299,1.4299,1.4299,1.4299,1.4299,1.4299,1.4299,1.4299,1.4299,1.4299,1.4245,1.4197,1.4197,1.4143,1.4068,1.398,1.3844,1.3688,1.3519,1.3383,1.3275,1.3214,1.3207,1.3207,1.3207,1.3207,1.3207,1.3207,1.3268,1.3302,1.3302,1.3363,1.3403,1.3403,1.3403,1.3403,1.3403,1.3403,1.3403,1.3397,1.3329,1.3336,1.3397,1.3261,1.3193,1.3173,1.32,1.3193,1.318,1.3268,1.3342,1.3403,1.3403,1.3403,1.3403]}]]